<?xml version="1.0" encoding="UTF-8" standalone="no" ?>
<gpx xmlns="http://www.topografix.com/GPX/1/1" xmlns:xsi="http://www.w3.org/2001/XMLSchema-instance" xsi:schemaLocation="http://www.topografix.com/GPX/1/1 http://www.topografix.com/GPX/1/1/gpx.xsd" version="1.1" creator="VisuGPX - https://www.visugpx.com">
  <metadata>
    <name>Ansabère . Achérito</name>
    <desc><![CDATA[5h30 nous partons de Tarbes en direction du pic d Ansabère
2heures plus tard nous arrivons à Pont Lamareich et nous tentons la remontée de la piste pour Pont Lamary, mais très vite vers 1100 mètres quelques plaques de neige dure, nous barrerons le passage
Nous nous équipons skis sur le sac, nous les porterons jusqu au début du second plateau 1354 mètres ; à partir de là nous aurons droit à une bonne neige de printemps à la montée comme à la décente 
Sommet à skis
Bonne décente jusqu au col de Pétragème ou nous remettrons les peluches pour gravir les jolies pentes Nord Est de Lachérito ; en fait nous nous arrêterons sous le sommet à 2250 mètres stoppé par quelques difficultés du terrain et la montre  
Neige pas terrible jusqu à 1170 mètres puis excellant jusqu à l endroit ou nous avions chaussée au départ
]]></desc>
  </metadata>
  <trk>
    <name><![CDATA[ACTIVE LOG]]></name>
    <trkseg>
      <trkpt lat="42.90954" lon="-0.67908">
        <ele>1060.952148</ele>
        <time>2012-03-24T06:56:08Z</time>
      </trkpt>
      <trkpt lat="42.90956" lon="-0.67909">
        <ele>1063.355469</ele>
        <time>2012-03-24T06:56:46Z</time>
      </trkpt>
      <trkpt lat="42.90958" lon="-0.67909">
        <ele>1064.797363</ele>
        <time>2012-03-24T06:59:39Z</time>
      </trkpt>
      <trkpt lat="42.90959" lon="-0.67908">
        <ele>1065.278076</ele>
        <time>2012-03-24T06:59:57Z</time>
      </trkpt>
      <trkpt lat="42.90957" lon="-0.67911">
        <ele>1067.200684</ele>
        <time>2012-03-24T07:00:02Z</time>
      </trkpt>
      <trkpt lat="42.90956" lon="-0.67915">
        <ele>1067.681152</ele>
        <time>2012-03-24T07:00:05Z</time>
      </trkpt>
      <trkpt lat="42.90955" lon="-0.67919">
        <ele>1067.681152</ele>
        <time>2012-03-24T07:00:08Z</time>
      </trkpt>
      <trkpt lat="42.90953" lon="-0.67929">
        <ele>1068.642822</ele>
        <time>2012-03-24T07:00:16Z</time>
      </trkpt>
      <trkpt lat="42.90953" lon="-0.67933">
        <ele>1069.604248</ele>
        <time>2012-03-24T07:00:21Z</time>
      </trkpt>
      <trkpt lat="42.90951" lon="-0.67943">
        <ele>1071.046143</ele>
        <time>2012-03-24T07:00:27Z</time>
      </trkpt>
      <trkpt lat="42.90948" lon="-0.67951">
        <ele>1071.526611</ele>
        <time>2012-03-24T07:00:33Z</time>
      </trkpt>
      <trkpt lat="42.90946" lon="-0.67956">
        <ele>1072.007324</ele>
        <time>2012-03-24T07:00:37Z</time>
      </trkpt>
      <trkpt lat="42.90947" lon="-0.67959">
        <ele>1072.488037</ele>
        <time>2012-03-24T07:00:39Z</time>
      </trkpt>
      <trkpt lat="42.90946" lon="-0.6796">
        <ele>1072.96875</ele>
        <time>2012-03-24T07:00:41Z</time>
      </trkpt>
      <trkpt lat="42.90944" lon="-0.67966">
        <ele>1074.410645</ele>
        <time>2012-03-24T07:00:46Z</time>
      </trkpt>
      <trkpt lat="42.90945" lon="-0.67968">
        <ele>1074.891357</ele>
        <time>2012-03-24T07:00:48Z</time>
      </trkpt>
      <trkpt lat="42.90945" lon="-0.6797">
        <ele>1075.852539</ele>
        <time>2012-03-24T07:00:50Z</time>
      </trkpt>
      <trkpt lat="42.90944" lon="-0.67973">
        <ele>1077.294678</ele>
        <time>2012-03-24T07:00:54Z</time>
      </trkpt>
      <trkpt lat="42.90944" lon="-0.6798">
        <ele>1079.217041</ele>
        <time>2012-03-24T07:01:01Z</time>
      </trkpt>
      <trkpt lat="42.90943" lon="-0.67985">
        <ele>1079.697754</ele>
        <time>2012-03-24T07:01:05Z</time>
      </trkpt>
      <trkpt lat="42.90943" lon="-0.67987">
        <ele>1080.178467</ele>
        <time>2012-03-24T07:01:07Z</time>
      </trkpt>
      <trkpt lat="42.90943" lon="-0.67991">
        <ele>1080.65918</ele>
        <time>2012-03-24T07:01:10Z</time>
      </trkpt>
      <trkpt lat="42.90941" lon="-0.67994">
        <ele>1080.65918</ele>
        <time>2012-03-24T07:01:13Z</time>
      </trkpt>
      <trkpt lat="42.90942" lon="-0.67997">
        <ele>1080.65918</ele>
        <time>2012-03-24T07:01:15Z</time>
      </trkpt>
      <trkpt lat="42.90939" lon="-0.68002">
        <ele>1081.139893</ele>
        <time>2012-03-24T07:01:20Z</time>
      </trkpt>
      <trkpt lat="42.90939" lon="-0.68005">
        <ele>1081.620361</ele>
        <time>2012-03-24T07:01:23Z</time>
      </trkpt>
      <trkpt lat="42.90935" lon="-0.68011">
        <ele>1082.101074</ele>
        <time>2012-03-24T07:01:29Z</time>
      </trkpt>
      <trkpt lat="42.90935" lon="-0.68015">
        <ele>1082.581787</ele>
        <time>2012-03-24T07:01:32Z</time>
      </trkpt>
      <trkpt lat="42.9093" lon="-0.68022">
        <ele>1083.542969</ele>
        <time>2012-03-24T07:01:38Z</time>
      </trkpt>
      <trkpt lat="42.90929" lon="-0.68027">
        <ele>1084.504639</ele>
        <time>2012-03-24T07:01:42Z</time>
      </trkpt>
      <trkpt lat="42.90928" lon="-0.68029">
        <ele>1084.985352</ele>
        <time>2012-03-24T07:01:44Z</time>
      </trkpt>
      <trkpt lat="42.90928" lon="-0.68035">
        <ele>1085.946533</ele>
        <time>2012-03-24T07:01:48Z</time>
      </trkpt>
      <trkpt lat="42.90928" lon="-0.6804">
        <ele>1086.427246</ele>
        <time>2012-03-24T07:01:51Z</time>
      </trkpt>
      <trkpt lat="42.90926" lon="-0.68045">
        <ele>1087.388428</ele>
        <time>2012-03-24T07:01:55Z</time>
      </trkpt>
      <trkpt lat="42.90926" lon="-0.68049">
        <ele>1087.869141</ele>
        <time>2012-03-24T07:01:58Z</time>
      </trkpt>
      <trkpt lat="42.90926" lon="-0.68057">
        <ele>1088.349854</ele>
        <time>2012-03-24T07:02:03Z</time>
      </trkpt>
      <trkpt lat="42.90919" lon="-0.68071">
        <ele>1088.830566</ele>
        <time>2012-03-24T07:02:15Z</time>
      </trkpt>
      <trkpt lat="42.90916" lon="-0.68076">
        <ele>1087.869141</ele>
        <time>2012-03-24T07:02:20Z</time>
      </trkpt>
      <trkpt lat="42.90911" lon="-0.68082">
        <ele>1086.907715</ele>
        <time>2012-03-24T07:02:26Z</time>
      </trkpt>
      <trkpt lat="42.90909" lon="-0.68083">
        <ele>1085.946533</ele>
        <time>2012-03-24T07:02:28Z</time>
      </trkpt>
      <trkpt lat="42.90908" lon="-0.68087">
        <ele>1085.46582</ele>
        <time>2012-03-24T07:02:32Z</time>
      </trkpt>
      <trkpt lat="42.90904" lon="-0.68091">
        <ele>1086.427246</ele>
        <time>2012-03-24T07:02:37Z</time>
      </trkpt>
      <trkpt lat="42.90898" lon="-0.68096">
        <ele>1087.869141</ele>
        <time>2012-03-24T07:02:46Z</time>
      </trkpt>
      <trkpt lat="42.90893" lon="-0.681">
        <ele>1091.714355</ele>
        <time>2012-03-24T07:02:54Z</time>
      </trkpt>
      <trkpt lat="42.90892" lon="-0.68102">
        <ele>1092.675781</ele>
        <time>2012-03-24T07:02:56Z</time>
      </trkpt>
      <trkpt lat="42.90886" lon="-0.68107">
        <ele>1095.078857</ele>
        <time>2012-03-24T07:03:04Z</time>
      </trkpt>
      <trkpt lat="42.90883" lon="-0.6811">
        <ele>1095.55957</ele>
        <time>2012-03-24T07:03:08Z</time>
      </trkpt>
      <trkpt lat="42.90873" lon="-0.68118">
        <ele>1096.040283</ele>
        <time>2012-03-24T07:03:19Z</time>
      </trkpt>
      <trkpt lat="42.9087" lon="-0.68122">
        <ele>1095.55957</ele>
        <time>2012-03-24T07:03:22Z</time>
      </trkpt>
      <trkpt lat="42.90861" lon="-0.68128">
        <ele>1095.078857</ele>
        <time>2012-03-24T07:03:30Z</time>
      </trkpt>
      <trkpt lat="42.90856" lon="-0.68132">
        <ele>1095.078857</ele>
        <time>2012-03-24T07:03:36Z</time>
      </trkpt>
      <trkpt lat="42.90848" lon="-0.68144">
        <ele>1097.001465</ele>
        <time>2012-03-24T07:03:48Z</time>
      </trkpt>
      <trkpt lat="42.90848" lon="-0.68145">
        <ele>1097.482178</ele>
        <time>2012-03-24T07:03:49Z</time>
      </trkpt>
      <trkpt lat="42.90847" lon="-0.68151">
        <ele>1097.962891</ele>
        <time>2012-03-24T07:03:53Z</time>
      </trkpt>
      <trkpt lat="42.90846" lon="-0.68154">
        <ele>1098.924072</ele>
        <time>2012-03-24T07:03:55Z</time>
      </trkpt>
      <trkpt lat="42.90844" lon="-0.68161">
        <ele>1099.885498</ele>
        <time>2012-03-24T07:04:01Z</time>
      </trkpt>
      <trkpt lat="42.90843" lon="-0.68168">
        <ele>1100.846924</ele>
        <time>2012-03-24T07:04:07Z</time>
      </trkpt>
      <trkpt lat="42.90842" lon="-0.68172">
        <ele>1101.80835</ele>
        <time>2012-03-24T07:04:11Z</time>
      </trkpt>
      <trkpt lat="42.90841" lon="-0.68183">
        <ele>1103.250244</ele>
        <time>2012-03-24T07:04:19Z</time>
      </trkpt>
      <trkpt lat="42.90838" lon="-0.68189">
        <ele>1104.21167</ele>
        <time>2012-03-24T07:04:24Z</time>
      </trkpt>
      <trkpt lat="42.90838" lon="-0.68192">
        <ele>1104.692139</ele>
        <time>2012-03-24T07:04:26Z</time>
      </trkpt>
      <trkpt lat="42.90837" lon="-0.68198">
        <ele>1104.692139</ele>
        <time>2012-03-24T07:04:30Z</time>
      </trkpt>
      <trkpt lat="42.90837" lon="-0.6821">
        <ele>1103.730957</ele>
        <time>2012-03-24T07:04:39Z</time>
      </trkpt>
      <trkpt lat="42.90836" lon="-0.68214">
        <ele>1103.730957</ele>
        <time>2012-03-24T07:04:42Z</time>
      </trkpt>
      <trkpt lat="42.90836" lon="-0.6822">
        <ele>1104.21167</ele>
        <time>2012-03-24T07:04:46Z</time>
      </trkpt>
      <trkpt lat="42.90835" lon="-0.68223">
        <ele>1104.21167</ele>
        <time>2012-03-24T07:04:48Z</time>
      </trkpt>
      <trkpt lat="42.90835" lon="-0.68225">
        <ele>1104.21167</ele>
        <time>2012-03-24T07:04:50Z</time>
      </trkpt>
      <trkpt lat="42.90835" lon="-0.68232">
        <ele>1104.692139</ele>
        <time>2012-03-24T07:04:54Z</time>
      </trkpt>
      <trkpt lat="42.90834" lon="-0.68238">
        <ele>1105.653564</ele>
        <time>2012-03-24T07:04:59Z</time>
      </trkpt>
      <trkpt lat="42.9083" lon="-0.68251">
        <ele>1107.095459</ele>
        <time>2012-03-24T07:05:08Z</time>
      </trkpt>
      <trkpt lat="42.90826" lon="-0.68269">
        <ele>1108.056885</ele>
        <time>2012-03-24T07:05:20Z</time>
      </trkpt>
      <trkpt lat="42.90824" lon="-0.68272">
        <ele>1108.056885</ele>
        <time>2012-03-24T07:05:23Z</time>
      </trkpt>
      <trkpt lat="42.90824" lon="-0.68286">
        <ele>1109.018066</ele>
        <time>2012-03-24T07:05:33Z</time>
      </trkpt>
      <trkpt lat="42.90821" lon="-0.68291">
        <ele>1109.018066</ele>
        <time>2012-03-24T07:05:37Z</time>
      </trkpt>
      <trkpt lat="42.90821" lon="-0.683">
        <ele>1111.9021</ele>
        <time>2012-03-24T07:06:03Z</time>
      </trkpt>
      <trkpt lat="42.9082" lon="-0.68301">
        <ele>1112.382568</ele>
        <time>2012-03-24T07:06:05Z</time>
      </trkpt>
      <trkpt lat="42.90816" lon="-0.68304">
        <ele>1113.824463</ele>
        <time>2012-03-24T07:06:11Z</time>
      </trkpt>
      <trkpt lat="42.90815" lon="-0.68306">
        <ele>1113.824463</ele>
        <time>2012-03-24T07:06:13Z</time>
      </trkpt>
      <trkpt lat="42.90812" lon="-0.68308">
        <ele>1113.824463</ele>
        <time>2012-03-24T07:06:16Z</time>
      </trkpt>
      <trkpt lat="42.90809" lon="-0.68314">
        <ele>1115.266602</ele>
        <time>2012-03-24T07:06:23Z</time>
      </trkpt>
      <trkpt lat="42.90804" lon="-0.68319">
        <ele>1115.266602</ele>
        <time>2012-03-24T07:06:29Z</time>
      </trkpt>
      <trkpt lat="42.90802" lon="-0.68322">
        <ele>1115.266602</ele>
        <time>2012-03-24T07:06:32Z</time>
      </trkpt>
      <trkpt lat="42.90801" lon="-0.68329">
        <ele>1116.228027</ele>
        <time>2012-03-24T07:06:37Z</time>
      </trkpt>
      <trkpt lat="42.90799" lon="-0.68334">
        <ele>1116.70874</ele>
        <time>2012-03-24T07:06:41Z</time>
      </trkpt>
      <trkpt lat="42.90797" lon="-0.68341">
        <ele>1116.70874</ele>
        <time>2012-03-24T07:06:47Z</time>
      </trkpt>
      <trkpt lat="42.90796" lon="-0.68343">
        <ele>1117.189453</ele>
        <time>2012-03-24T07:06:49Z</time>
      </trkpt>
      <trkpt lat="42.90795" lon="-0.68345">
        <ele>1117.669922</ele>
        <time>2012-03-24T07:06:51Z</time>
      </trkpt>
      <trkpt lat="42.90793" lon="-0.68347">
        <ele>1117.669922</ele>
        <time>2012-03-24T07:06:53Z</time>
      </trkpt>
      <trkpt lat="42.90792" lon="-0.68349">
        <ele>1118.150635</ele>
        <time>2012-03-24T07:06:55Z</time>
      </trkpt>
      <trkpt lat="42.9079" lon="-0.68351">
        <ele>1118.150635</ele>
        <time>2012-03-24T07:06:58Z</time>
      </trkpt>
      <trkpt lat="42.90787" lon="-0.68354">
        <ele>1118.631348</ele>
        <time>2012-03-24T07:07:03Z</time>
      </trkpt>
      <trkpt lat="42.90785" lon="-0.68357">
        <ele>1118.631348</ele>
        <time>2012-03-24T07:07:05Z</time>
      </trkpt>
      <trkpt lat="42.90781" lon="-0.68361">
        <ele>1117.669922</ele>
        <time>2012-03-24T07:07:10Z</time>
      </trkpt>
      <trkpt lat="42.90777" lon="-0.68368">
        <ele>1118.150635</ele>
        <time>2012-03-24T07:07:16Z</time>
      </trkpt>
      <trkpt lat="42.90776" lon="-0.68372">
        <ele>1118.150635</ele>
        <time>2012-03-24T07:07:20Z</time>
      </trkpt>
      <trkpt lat="42.90774" lon="-0.68378">
        <ele>1118.150635</ele>
        <time>2012-03-24T07:07:25Z</time>
      </trkpt>
      <trkpt lat="42.90775" lon="-0.68381">
        <ele>1118.150635</ele>
        <time>2012-03-24T07:07:27Z</time>
      </trkpt>
      <trkpt lat="42.90774" lon="-0.68383">
        <ele>1118.150635</ele>
        <time>2012-03-24T07:07:29Z</time>
      </trkpt>
      <trkpt lat="42.90773" lon="-0.68385">
        <ele>1118.150635</ele>
        <time>2012-03-24T07:07:31Z</time>
      </trkpt>
      <trkpt lat="42.90768" lon="-0.68405">
        <ele>1119.112061</ele>
        <time>2012-03-24T07:07:48Z</time>
      </trkpt>
      <trkpt lat="42.90764" lon="-0.6842">
        <ele>1121.034668</ele>
        <time>2012-03-24T07:08:04Z</time>
      </trkpt>
      <trkpt lat="42.90761" lon="-0.68427">
        <ele>1121.515137</ele>
        <time>2012-03-24T07:08:09Z</time>
      </trkpt>
      <trkpt lat="42.90761" lon="-0.68437">
        <ele>1124.39917</ele>
        <time>2012-03-24T07:08:17Z</time>
      </trkpt>
      <trkpt lat="42.90757" lon="-0.68446">
        <ele>1126.321777</ele>
        <time>2012-03-24T07:08:24Z</time>
      </trkpt>
      <trkpt lat="42.90756" lon="-0.68449">
        <ele>1126.80249</ele>
        <time>2012-03-24T07:08:26Z</time>
      </trkpt>
      <trkpt lat="42.90755" lon="-0.68451">
        <ele>1126.80249</ele>
        <time>2012-03-24T07:08:28Z</time>
      </trkpt>
      <trkpt lat="42.90754" lon="-0.68459">
        <ele>1126.80249</ele>
        <time>2012-03-24T07:08:33Z</time>
      </trkpt>
      <trkpt lat="42.90754" lon="-0.68464">
        <ele>1126.80249</ele>
        <time>2012-03-24T07:08:36Z</time>
      </trkpt>
      <trkpt lat="42.90752" lon="-0.6847">
        <ele>1126.80249</ele>
        <time>2012-03-24T07:08:41Z</time>
      </trkpt>
      <trkpt lat="42.90751" lon="-0.68474">
        <ele>1127.283203</ele>
        <time>2012-03-24T07:08:45Z</time>
      </trkpt>
      <trkpt lat="42.9075" lon="-0.6848">
        <ele>1127.283203</ele>
        <time>2012-03-24T07:08:49Z</time>
      </trkpt>
      <trkpt lat="42.90749" lon="-0.68482">
        <ele>1127.763672</ele>
        <time>2012-03-24T07:08:51Z</time>
      </trkpt>
      <trkpt lat="42.90748" lon="-0.6849">
        <ele>1128.244385</ele>
        <time>2012-03-24T07:08:56Z</time>
      </trkpt>
      <trkpt lat="42.90746" lon="-0.68495">
        <ele>1128.725098</ele>
        <time>2012-03-24T07:09:00Z</time>
      </trkpt>
      <trkpt lat="42.90744" lon="-0.68503">
        <ele>1128.725098</ele>
        <time>2012-03-24T07:09:05Z</time>
      </trkpt>
      <trkpt lat="42.90743" lon="-0.68507">
        <ele>1129.205566</ele>
        <time>2012-03-24T07:09:08Z</time>
      </trkpt>
      <trkpt lat="42.9074" lon="-0.68511">
        <ele>1128.725098</ele>
        <time>2012-03-24T07:09:12Z</time>
      </trkpt>
      <trkpt lat="42.90734" lon="-0.68521">
        <ele>1129.205566</ele>
        <time>2012-03-24T07:09:20Z</time>
      </trkpt>
      <trkpt lat="42.90733" lon="-0.68526">
        <ele>1129.686279</ele>
        <time>2012-03-24T07:09:24Z</time>
      </trkpt>
      <trkpt lat="42.90732" lon="-0.6853">
        <ele>1130.166992</ele>
        <time>2012-03-24T07:09:27Z</time>
      </trkpt>
      <trkpt lat="42.90727" lon="-0.68538">
        <ele>1132.089844</ele>
        <time>2012-03-24T07:09:37Z</time>
      </trkpt>
      <trkpt lat="42.90724" lon="-0.68542">
        <ele>1134.012451</ele>
        <time>2012-03-24T07:09:42Z</time>
      </trkpt>
      <trkpt lat="42.90721" lon="-0.68544">
        <ele>1135.454346</ele>
        <time>2012-03-24T07:09:46Z</time>
      </trkpt>
      <trkpt lat="42.90715" lon="-0.68554">
        <ele>1140.260986</ele>
        <time>2012-03-24T07:09:59Z</time>
      </trkpt>
      <trkpt lat="42.90714" lon="-0.68556">
        <ele>1140.741455</ele>
        <time>2012-03-24T07:10:01Z</time>
      </trkpt>
      <trkpt lat="42.90714" lon="-0.6856">
        <ele>1142.183594</ele>
        <time>2012-03-24T07:10:04Z</time>
      </trkpt>
      <trkpt lat="42.9071" lon="-0.68573">
        <ele>1145.548096</ele>
        <time>2012-03-24T07:10:15Z</time>
      </trkpt>
      <trkpt lat="42.90704" lon="-0.6858">
        <ele>1147.951416</ele>
        <time>2012-03-24T07:10:23Z</time>
      </trkpt>
      <trkpt lat="42.90702" lon="-0.68584">
        <ele>1149.393555</ele>
        <time>2012-03-24T07:10:27Z</time>
      </trkpt>
      <trkpt lat="42.90699" lon="-0.68586">
        <ele>1150.35498</ele>
        <time>2012-03-24T07:10:30Z</time>
      </trkpt>
      <trkpt lat="42.90698" lon="-0.68591">
        <ele>1150.835449</ele>
        <time>2012-03-24T07:10:33Z</time>
      </trkpt>
      <trkpt lat="42.90694" lon="-0.68597">
        <ele>1153.719482</ele>
        <time>2012-03-24T07:10:40Z</time>
      </trkpt>
      <trkpt lat="42.90686" lon="-0.68612">
        <ele>1155.64209</ele>
        <time>2012-03-24T07:10:54Z</time>
      </trkpt>
      <trkpt lat="42.90682" lon="-0.68618">
        <ele>1156.603271</ele>
        <time>2012-03-24T07:11:00Z</time>
      </trkpt>
      <trkpt lat="42.90679" lon="-0.68632">
        <ele>1156.122559</ele>
        <time>2012-03-24T07:11:08Z</time>
      </trkpt>
      <trkpt lat="42.90678" lon="-0.68639">
        <ele>1155.64209</ele>
        <time>2012-03-24T07:11:12Z</time>
      </trkpt>
      <trkpt lat="42.90676" lon="-0.68652">
        <ele>1155.161377</ele>
        <time>2012-03-24T07:11:25Z</time>
      </trkpt>
      <trkpt lat="42.90676" lon="-0.68653">
        <ele>1155.161377</ele>
        <time>2012-03-24T07:11:26Z</time>
      </trkpt>
      <trkpt lat="42.90676" lon="-0.68657">
        <ele>1155.161377</ele>
        <time>2012-03-24T07:11:28Z</time>
      </trkpt>
      <trkpt lat="42.90676" lon="-0.6866">
        <ele>1155.161377</ele>
        <time>2012-03-24T07:11:30Z</time>
      </trkpt>
      <trkpt lat="42.90675" lon="-0.68666">
        <ele>1154.680664</ele>
        <time>2012-03-24T07:11:37Z</time>
      </trkpt>
      <trkpt lat="42.90675" lon="-0.68669">
        <ele>1154.680664</ele>
        <time>2012-03-24T07:11:39Z</time>
      </trkpt>
      <trkpt lat="42.90675" lon="-0.68672">
        <ele>1155.161377</ele>
        <time>2012-03-24T07:11:42Z</time>
      </trkpt>
      <trkpt lat="42.90661" lon="-0.68673">
        <ele>1153.23877</ele>
        <time>2012-03-24T07:11:55Z</time>
      </trkpt>
      <trkpt lat="42.90657" lon="-0.68674">
        <ele>1152.277344</ele>
        <time>2012-03-24T07:12:00Z</time>
      </trkpt>
      <trkpt lat="42.90654" lon="-0.68674">
        <ele>1151.796875</ele>
        <time>2012-03-24T07:12:04Z</time>
      </trkpt>
      <trkpt lat="42.9065" lon="-0.68678">
        <ele>1151.316162</ele>
        <time>2012-03-24T07:12:10Z</time>
      </trkpt>
      <trkpt lat="42.90648" lon="-0.68685">
        <ele>1150.835449</ele>
        <time>2012-03-24T07:12:16Z</time>
      </trkpt>
      <trkpt lat="42.90648" lon="-0.6869">
        <ele>1150.835449</ele>
        <time>2012-03-24T07:12:20Z</time>
      </trkpt>
      <trkpt lat="42.90644" lon="-0.68691">
        <ele>1150.835449</ele>
        <time>2012-03-24T07:12:23Z</time>
      </trkpt>
      <trkpt lat="42.90641" lon="-0.68694">
        <ele>1151.316162</ele>
        <time>2012-03-24T07:12:27Z</time>
      </trkpt>
      <trkpt lat="42.90632" lon="-0.68698">
        <ele>1152.758057</ele>
        <time>2012-03-24T07:12:36Z</time>
      </trkpt>
      <trkpt lat="42.90628" lon="-0.68705">
        <ele>1153.719482</ele>
        <time>2012-03-24T07:12:44Z</time>
      </trkpt>
      <trkpt lat="42.90628" lon="-0.68708">
        <ele>1154.680664</ele>
        <time>2012-03-24T07:12:46Z</time>
      </trkpt>
      <trkpt lat="42.90628" lon="-0.68719">
        <ele>1156.603271</ele>
        <time>2012-03-24T07:12:53Z</time>
      </trkpt>
      <trkpt lat="42.90626" lon="-0.68726">
        <ele>1157.564697</ele>
        <time>2012-03-24T07:13:00Z</time>
      </trkpt>
      <trkpt lat="42.90624" lon="-0.68733">
        <ele>1157.564697</ele>
        <time>2012-03-24T07:13:05Z</time>
      </trkpt>
      <trkpt lat="42.90622" lon="-0.6874">
        <ele>1158.04541</ele>
        <time>2012-03-24T07:13:10Z</time>
      </trkpt>
      <trkpt lat="42.90623" lon="-0.68756">
        <ele>1159.967773</ele>
        <time>2012-03-24T07:13:23Z</time>
      </trkpt>
      <trkpt lat="42.90623" lon="-0.68763">
        <ele>1160.929199</ele>
        <time>2012-03-24T07:13:29Z</time>
      </trkpt>
      <trkpt lat="42.90624" lon="-0.68771">
        <ele>1161.890625</ele>
        <time>2012-03-24T07:13:34Z</time>
      </trkpt>
      <trkpt lat="42.90623" lon="-0.68773">
        <ele>1162.371094</ele>
        <time>2012-03-24T07:13:36Z</time>
      </trkpt>
      <trkpt lat="42.90624" lon="-0.68784">
        <ele>1162.851807</ele>
        <time>2012-03-24T07:13:45Z</time>
      </trkpt>
      <trkpt lat="42.90626" lon="-0.68796">
        <ele>1166.216553</ele>
        <time>2012-03-24T07:14:01Z</time>
      </trkpt>
      <trkpt lat="42.90626" lon="-0.68797">
        <ele>1166.697266</ele>
        <time>2012-03-24T07:14:02Z</time>
      </trkpt>
      <trkpt lat="42.90626" lon="-0.688">
        <ele>1167.177979</ele>
        <time>2012-03-24T07:14:04Z</time>
      </trkpt>
      <trkpt lat="42.90628" lon="-0.68802">
        <ele>1167.658447</ele>
        <time>2012-03-24T07:14:06Z</time>
      </trkpt>
      <trkpt lat="42.90632" lon="-0.68808">
        <ele>1168.619873</ele>
        <time>2012-03-24T07:14:10Z</time>
      </trkpt>
      <trkpt lat="42.90633" lon="-0.68812">
        <ele>1170.061768</ele>
        <time>2012-03-24T07:14:13Z</time>
      </trkpt>
      <trkpt lat="42.90635" lon="-0.68815">
        <ele>1171.023193</ele>
        <time>2012-03-24T07:14:16Z</time>
      </trkpt>
      <trkpt lat="42.90643" lon="-0.68828">
        <ele>1172.465088</ele>
        <time>2012-03-24T07:14:32Z</time>
      </trkpt>
      <trkpt lat="42.90644" lon="-0.68829">
        <ele>1172.465088</ele>
        <time>2012-03-24T07:14:33Z</time>
      </trkpt>
      <trkpt lat="42.90647" lon="-0.68832">
        <ele>1172.945801</ele>
        <time>2012-03-24T07:14:38Z</time>
      </trkpt>
      <trkpt lat="42.90656" lon="-0.68843">
        <ele>1173.906982</ele>
        <time>2012-03-24T07:14:53Z</time>
      </trkpt>
      <trkpt lat="42.90661" lon="-0.6885">
        <ele>1175.348877</ele>
        <time>2012-03-24T07:15:00Z</time>
      </trkpt>
      <trkpt lat="42.90665" lon="-0.68867">
        <ele>1175.82959</ele>
        <time>2012-03-24T07:15:11Z</time>
      </trkpt>
      <trkpt lat="42.90668" lon="-0.6889">
        <ele>1174.387695</ele>
        <time>2012-03-24T07:15:27Z</time>
      </trkpt>
      <trkpt lat="42.90667" lon="-0.68902">
        <ele>1174.387695</ele>
        <time>2012-03-24T07:15:38Z</time>
      </trkpt>
      <trkpt lat="42.90666" lon="-0.68913">
        <ele>1173.906982</ele>
        <time>2012-03-24T07:15:47Z</time>
      </trkpt>
      <trkpt lat="42.90665" lon="-0.68929">
        <ele>1174.387695</ele>
        <time>2012-03-24T07:15:57Z</time>
      </trkpt>
      <trkpt lat="42.9065" lon="-0.68946">
        <ele>1175.348877</ele>
        <time>2012-03-24T07:16:14Z</time>
      </trkpt>
      <trkpt lat="42.90639" lon="-0.68952">
        <ele>1175.348877</ele>
        <time>2012-03-24T07:16:24Z</time>
      </trkpt>
      <trkpt lat="42.90635" lon="-0.68954">
        <ele>1175.82959</ele>
        <time>2012-03-24T07:16:28Z</time>
      </trkpt>
      <trkpt lat="42.90617" lon="-0.68977">
        <ele>1174.868408</ele>
        <time>2012-03-24T07:16:47Z</time>
      </trkpt>
      <trkpt lat="42.90611" lon="-0.68984">
        <ele>1174.868408</ele>
        <time>2012-03-24T07:16:54Z</time>
      </trkpt>
      <trkpt lat="42.90607" lon="-0.68991">
        <ele>1174.868408</ele>
        <time>2012-03-24T07:16:59Z</time>
      </trkpt>
      <trkpt lat="42.90598" lon="-0.69004">
        <ele>1175.348877</ele>
        <time>2012-03-24T07:17:10Z</time>
      </trkpt>
      <trkpt lat="42.90596" lon="-0.69008">
        <ele>1175.82959</ele>
        <time>2012-03-24T07:17:14Z</time>
      </trkpt>
      <trkpt lat="42.90589" lon="-0.69028">
        <ele>1177.752197</ele>
        <time>2012-03-24T07:17:30Z</time>
      </trkpt>
      <trkpt lat="42.90587" lon="-0.69039">
        <ele>1178.713623</ele>
        <time>2012-03-24T07:17:38Z</time>
      </trkpt>
      <trkpt lat="42.90579" lon="-0.69055">
        <ele>1178.713623</ele>
        <time>2012-03-24T07:17:49Z</time>
      </trkpt>
      <trkpt lat="42.90574" lon="-0.69063">
        <ele>1178.23291</ele>
        <time>2012-03-24T07:17:55Z</time>
      </trkpt>
      <trkpt lat="42.90564" lon="-0.69091">
        <ele>1176.791016</ele>
        <time>2012-03-24T07:18:13Z</time>
      </trkpt>
      <trkpt lat="42.90561" lon="-0.69097">
        <ele>1176.791016</ele>
        <time>2012-03-24T07:18:17Z</time>
      </trkpt>
      <trkpt lat="42.9056" lon="-0.69103">
        <ele>1176.310303</ele>
        <time>2012-03-24T07:18:21Z</time>
      </trkpt>
      <trkpt lat="42.9056" lon="-0.69109">
        <ele>1175.348877</ele>
        <time>2012-03-24T07:18:25Z</time>
      </trkpt>
      <trkpt lat="42.9056" lon="-0.69113">
        <ele>1174.868408</ele>
        <time>2012-03-24T07:18:28Z</time>
      </trkpt>
      <trkpt lat="42.90559" lon="-0.69122">
        <ele>1173.906982</ele>
        <time>2012-03-24T07:18:34Z</time>
      </trkpt>
      <trkpt lat="42.90555" lon="-0.69143">
        <ele>1173.906982</ele>
        <time>2012-03-24T07:18:50Z</time>
      </trkpt>
      <trkpt lat="42.90552" lon="-0.69145">
        <ele>1176.310303</ele>
        <time>2012-03-24T07:18:54Z</time>
      </trkpt>
      <trkpt lat="42.90549" lon="-0.69147">
        <ele>1178.713623</ele>
        <time>2012-03-24T07:18:58Z</time>
      </trkpt>
      <trkpt lat="42.90546" lon="-0.69149">
        <ele>1180.636475</ele>
        <time>2012-03-24T07:19:02Z</time>
      </trkpt>
      <trkpt lat="42.90545" lon="-0.69153">
        <ele>1181.597656</ele>
        <time>2012-03-24T07:19:05Z</time>
      </trkpt>
      <trkpt lat="42.90541" lon="-0.69157">
        <ele>1182.559082</ele>
        <time>2012-03-24T07:19:10Z</time>
      </trkpt>
      <trkpt lat="42.90535" lon="-0.69167">
        <ele>1188.326904</ele>
        <time>2012-03-24T07:19:26Z</time>
      </trkpt>
      <trkpt lat="42.90531" lon="-0.69177">
        <ele>1189.288086</ele>
        <time>2012-03-24T07:19:33Z</time>
      </trkpt>
      <trkpt lat="42.90523" lon="-0.69192">
        <ele>1191.210693</ele>
        <time>2012-03-24T07:19:45Z</time>
      </trkpt>
      <trkpt lat="42.9052" lon="-0.69203">
        <ele>1192.172119</ele>
        <time>2012-03-24T07:19:58Z</time>
      </trkpt>
      <trkpt lat="42.90519" lon="-0.69202">
        <ele>1192.652832</ele>
        <time>2012-03-24T07:20:01Z</time>
      </trkpt>
      <trkpt lat="42.90511" lon="-0.69212">
        <ele>1191.210693</ele>
        <time>2012-03-24T07:20:12Z</time>
      </trkpt>
      <trkpt lat="42.90506" lon="-0.6922">
        <ele>1190.249512</ele>
        <time>2012-03-24T07:20:24Z</time>
      </trkpt>
      <trkpt lat="42.90498" lon="-0.69237">
        <ele>1190.72998</ele>
        <time>2012-03-24T07:20:36Z</time>
      </trkpt>
      <trkpt lat="42.90491" lon="-0.69249">
        <ele>1195.536621</ele>
        <time>2012-03-24T07:20:47Z</time>
      </trkpt>
      <trkpt lat="42.9049" lon="-0.69253">
        <ele>1196.017578</ele>
        <time>2012-03-24T07:20:49Z</time>
      </trkpt>
      <trkpt lat="42.90487" lon="-0.69263">
        <ele>1199.862793</ele>
        <time>2012-03-24T07:20:57Z</time>
      </trkpt>
      <trkpt lat="42.90482" lon="-0.69269">
        <ele>1204.669189</ele>
        <time>2012-03-24T07:21:14Z</time>
      </trkpt>
      <trkpt lat="42.90479" lon="-0.69274">
        <ele>1208.033936</ele>
        <time>2012-03-24T07:21:20Z</time>
      </trkpt>
      <trkpt lat="42.90478" lon="-0.6928">
        <ele>1208.995117</ele>
        <time>2012-03-24T07:21:22Z</time>
      </trkpt>
      <trkpt lat="42.90473" lon="-0.69285">
        <ele>1210.437012</ele>
        <time>2012-03-24T07:21:25Z</time>
      </trkpt>
      <trkpt lat="42.90467" lon="-0.69294">
        <ele>1212.840576</ele>
        <time>2012-03-24T07:21:32Z</time>
      </trkpt>
      <trkpt lat="42.90464" lon="-0.69302">
        <ele>1214.763184</ele>
        <time>2012-03-24T07:21:37Z</time>
      </trkpt>
      <trkpt lat="42.90462" lon="-0.69313">
        <ele>1219.089111</ele>
        <time>2012-03-24T07:21:45Z</time>
      </trkpt>
      <trkpt lat="42.90455" lon="-0.69331">
        <ele>1226.298828</ele>
        <time>2012-03-24T07:21:57Z</time>
      </trkpt>
      <trkpt lat="42.90447" lon="-0.69347">
        <ele>1231.105713</ele>
        <time>2012-03-24T07:22:08Z</time>
      </trkpt>
      <trkpt lat="42.90442" lon="-0.69357">
        <ele>1231.105713</ele>
        <time>2012-03-24T07:22:17Z</time>
      </trkpt>
      <trkpt lat="42.90437" lon="-0.69366">
        <ele>1225.818115</ele>
        <time>2012-03-24T07:22:28Z</time>
      </trkpt>
      <trkpt lat="42.90435" lon="-0.69368">
        <ele>1224.856934</ele>
        <time>2012-03-24T07:22:30Z</time>
      </trkpt>
      <trkpt lat="42.90429" lon="-0.69376">
        <ele>1221.492188</ele>
        <time>2012-03-24T07:22:37Z</time>
      </trkpt>
      <trkpt lat="42.90418" lon="-0.69394">
        <ele>1214.763184</ele>
        <time>2012-03-24T07:22:49Z</time>
      </trkpt>
      <trkpt lat="42.90415" lon="-0.694">
        <ele>1213.801758</ele>
        <time>2012-03-24T07:22:53Z</time>
      </trkpt>
      <trkpt lat="42.90406" lon="-0.69419">
        <ele>1212.359863</ele>
        <time>2012-03-24T07:23:07Z</time>
      </trkpt>
      <trkpt lat="42.90397" lon="-0.6944">
        <ele>1212.359863</ele>
        <time>2012-03-24T07:23:27Z</time>
      </trkpt>
      <trkpt lat="42.90396" lon="-0.69444">
        <ele>1212.840576</ele>
        <time>2012-03-24T07:23:30Z</time>
      </trkpt>
      <trkpt lat="42.90395" lon="-0.69465">
        <ele>1214.763184</ele>
        <time>2012-03-24T07:23:46Z</time>
      </trkpt>
      <trkpt lat="42.90395" lon="-0.69476">
        <ele>1215.724609</ele>
        <time>2012-03-24T07:23:56Z</time>
      </trkpt>
      <trkpt lat="42.904" lon="-0.69499">
        <ele>1217.646973</ele>
        <time>2012-03-24T07:24:14Z</time>
      </trkpt>
      <trkpt lat="42.90403" lon="-0.69509">
        <ele>1219.089111</ele>
        <time>2012-03-24T07:24:28Z</time>
      </trkpt>
      <trkpt lat="42.90405" lon="-0.6951">
        <ele>1219.569824</ele>
        <time>2012-03-24T07:25:04Z</time>
      </trkpt>
      <trkpt lat="42.90408" lon="-0.69521">
        <ele>1218.608398</ele>
        <time>2012-03-24T07:26:55Z</time>
      </trkpt>
      <trkpt lat="42.90409" lon="-0.69528">
        <ele>1219.089111</ele>
        <time>2012-03-24T07:27:00Z</time>
      </trkpt>
      <trkpt lat="42.9041" lon="-0.69533">
        <ele>1219.569824</ele>
        <time>2012-03-24T07:27:04Z</time>
      </trkpt>
      <trkpt lat="42.90412" lon="-0.6954">
        <ele>1220.531006</ele>
        <time>2012-03-24T07:27:09Z</time>
      </trkpt>
      <trkpt lat="42.90414" lon="-0.69546">
        <ele>1221.9729</ele>
        <time>2012-03-24T07:27:15Z</time>
      </trkpt>
      <trkpt lat="42.90414" lon="-0.69552">
        <ele>1222.453613</ele>
        <time>2012-03-24T07:27:19Z</time>
      </trkpt>
      <trkpt lat="42.90416" lon="-0.69561">
        <ele>1223.415039</ele>
        <time>2012-03-24T07:27:27Z</time>
      </trkpt>
      <trkpt lat="42.90417" lon="-0.69563">
        <ele>1223.895508</ele>
        <time>2012-03-24T07:27:29Z</time>
      </trkpt>
      <trkpt lat="42.90416" lon="-0.69566">
        <ele>1223.895508</ele>
        <time>2012-03-24T07:27:31Z</time>
      </trkpt>
      <trkpt lat="42.90416" lon="-0.6957">
        <ele>1224.856934</ele>
        <time>2012-03-24T07:27:34Z</time>
      </trkpt>
      <trkpt lat="42.90418" lon="-0.6958">
        <ele>1226.298828</ele>
        <time>2012-03-24T07:27:41Z</time>
      </trkpt>
      <trkpt lat="42.90414" lon="-0.69588">
        <ele>1226.779541</ele>
        <time>2012-03-24T07:27:47Z</time>
      </trkpt>
      <trkpt lat="42.90414" lon="-0.69592">
        <ele>1227.260254</ele>
        <time>2012-03-24T07:27:50Z</time>
      </trkpt>
      <trkpt lat="42.90418" lon="-0.69598">
        <ele>1228.22168</ele>
        <time>2012-03-24T07:27:56Z</time>
      </trkpt>
      <trkpt lat="42.90416" lon="-0.69604">
        <ele>1229.182861</ele>
        <time>2012-03-24T07:28:00Z</time>
      </trkpt>
      <trkpt lat="42.90415" lon="-0.69624">
        <ele>1234.950928</ele>
        <time>2012-03-24T07:28:17Z</time>
      </trkpt>
      <trkpt lat="42.90415" lon="-0.69633">
        <ele>1237.354004</ele>
        <time>2012-03-24T07:28:26Z</time>
      </trkpt>
      <trkpt lat="42.90421" lon="-0.69643">
        <ele>1236.392822</ele>
        <time>2012-03-24T07:28:37Z</time>
      </trkpt>
      <trkpt lat="42.90427" lon="-0.69647">
        <ele>1234.470215</ele>
        <time>2012-03-24T07:28:48Z</time>
      </trkpt>
      <trkpt lat="42.90432" lon="-0.6965">
        <ele>1234.470215</ele>
        <time>2012-03-24T07:28:53Z</time>
      </trkpt>
      <trkpt lat="42.90436" lon="-0.69658">
        <ele>1234.950928</ele>
        <time>2012-03-24T07:29:00Z</time>
      </trkpt>
      <trkpt lat="42.90436" lon="-0.69663">
        <ele>1234.950928</ele>
        <time>2012-03-24T07:29:04Z</time>
      </trkpt>
      <trkpt lat="42.90435" lon="-0.69667">
        <ele>1235.431396</ele>
        <time>2012-03-24T07:29:07Z</time>
      </trkpt>
      <trkpt lat="42.90435" lon="-0.69671">
        <ele>1235.912109</ele>
        <time>2012-03-24T07:29:10Z</time>
      </trkpt>
      <trkpt lat="42.90434" lon="-0.69673">
        <ele>1236.392822</ele>
        <time>2012-03-24T07:29:12Z</time>
      </trkpt>
      <trkpt lat="42.90434" lon="-0.69676">
        <ele>1236.873291</ele>
        <time>2012-03-24T07:29:15Z</time>
      </trkpt>
      <trkpt lat="42.90431" lon="-0.69687">
        <ele>1238.796143</ele>
        <time>2012-03-24T07:29:25Z</time>
      </trkpt>
      <trkpt lat="42.90429" lon="-0.69705">
        <ele>1239.276611</ele>
        <time>2012-03-24T07:29:41Z</time>
      </trkpt>
      <trkpt lat="42.90428" lon="-0.69706">
        <ele>1239.276611</ele>
        <time>2012-03-24T07:29:42Z</time>
      </trkpt>
      <trkpt lat="42.90427" lon="-0.69707">
        <ele>1238.796143</ele>
        <time>2012-03-24T07:29:44Z</time>
      </trkpt>
      <trkpt lat="42.90425" lon="-0.69712">
        <ele>1237.834717</ele>
        <time>2012-03-24T07:29:47Z</time>
      </trkpt>
      <trkpt lat="42.9042" lon="-0.69727">
        <ele>1238.796143</ele>
        <time>2012-03-24T07:30:01Z</time>
      </trkpt>
      <trkpt lat="42.90418" lon="-0.69737">
        <ele>1238.796143</ele>
        <time>2012-03-24T07:30:11Z</time>
      </trkpt>
      <trkpt lat="42.90419" lon="-0.69746">
        <ele>1240.238037</ele>
        <time>2012-03-24T07:30:18Z</time>
      </trkpt>
      <trkpt lat="42.90423" lon="-0.69751">
        <ele>1241.679932</ele>
        <time>2012-03-24T07:30:23Z</time>
      </trkpt>
      <trkpt lat="42.90431" lon="-0.69763">
        <ele>1244.563965</ele>
        <time>2012-03-24T07:30:36Z</time>
      </trkpt>
      <trkpt lat="42.9044" lon="-0.69775">
        <ele>1248.40918</ele>
        <time>2012-03-24T07:30:51Z</time>
      </trkpt>
      <trkpt lat="42.90444" lon="-0.6978">
        <ele>1249.370605</ele>
        <time>2012-03-24T07:30:56Z</time>
      </trkpt>
      <trkpt lat="42.90456" lon="-0.69793">
        <ele>1254.657715</ele>
        <time>2012-03-24T07:31:12Z</time>
      </trkpt>
      <trkpt lat="42.90462" lon="-0.69803">
        <ele>1257.541748</ele>
        <time>2012-03-24T07:31:23Z</time>
      </trkpt>
      <trkpt lat="42.90464" lon="-0.69808">
        <ele>1258.50293</ele>
        <time>2012-03-24T07:31:28Z</time>
      </trkpt>
      <trkpt lat="42.90467" lon="-0.69818">
        <ele>1260.425781</ele>
        <time>2012-03-24T07:31:39Z</time>
      </trkpt>
      <trkpt lat="42.90468" lon="-0.69822">
        <ele>1261.387207</ele>
        <time>2012-03-24T07:31:44Z</time>
      </trkpt>
      <trkpt lat="42.90465" lon="-0.69838">
        <ele>1263.790283</ele>
        <time>2012-03-24T07:32:01Z</time>
      </trkpt>
      <trkpt lat="42.90464" lon="-0.69841">
        <ele>1264.270996</ele>
        <time>2012-03-24T07:32:06Z</time>
      </trkpt>
      <trkpt lat="42.90461" lon="-0.69847">
        <ele>1265.232422</ele>
        <time>2012-03-24T07:32:13Z</time>
      </trkpt>
      <trkpt lat="42.90461" lon="-0.69851">
        <ele>1265.713135</ele>
        <time>2012-03-24T07:32:17Z</time>
      </trkpt>
      <trkpt lat="42.90462" lon="-0.69863">
        <ele>1269.077637</ele>
        <time>2012-03-24T07:32:31Z</time>
      </trkpt>
      <trkpt lat="42.90464" lon="-0.69871">
        <ele>1269.55835</ele>
        <time>2012-03-24T07:32:39Z</time>
      </trkpt>
      <trkpt lat="42.90465" lon="-0.69886">
        <ele>1271.000244</ele>
        <time>2012-03-24T07:32:54Z</time>
      </trkpt>
      <trkpt lat="42.90465" lon="-0.69887">
        <ele>1271.000244</ele>
        <time>2012-03-24T07:32:55Z</time>
      </trkpt>
      <trkpt lat="42.90467" lon="-0.69897">
        <ele>1271.961426</ele>
        <time>2012-03-24T07:33:08Z</time>
      </trkpt>
      <trkpt lat="42.90471" lon="-0.69914">
        <ele>1276.768311</ele>
        <time>2012-03-24T07:33:25Z</time>
      </trkpt>
      <trkpt lat="42.90471" lon="-0.69924">
        <ele>1281.574707</ele>
        <time>2012-03-24T07:33:37Z</time>
      </trkpt>
      <trkpt lat="42.90468" lon="-0.6993">
        <ele>1288.784668</ele>
        <time>2012-03-24T07:33:51Z</time>
      </trkpt>
      <trkpt lat="42.90467" lon="-0.69932">
        <ele>1289.265137</ele>
        <time>2012-03-24T07:33:53Z</time>
      </trkpt>
      <trkpt lat="42.90466" lon="-0.69938">
        <ele>1289.265137</ele>
        <time>2012-03-24T07:33:58Z</time>
      </trkpt>
      <trkpt lat="42.90465" lon="-0.69947">
        <ele>1288.303955</ele>
        <time>2012-03-24T07:34:07Z</time>
      </trkpt>
      <trkpt lat="42.90464" lon="-0.69951">
        <ele>1288.784668</ele>
        <time>2012-03-24T07:34:10Z</time>
      </trkpt>
      <trkpt lat="42.90463" lon="-0.69958">
        <ele>1289.74585</ele>
        <time>2012-03-24T07:34:15Z</time>
      </trkpt>
      <trkpt lat="42.90461" lon="-0.69971">
        <ele>1291.187744</ele>
        <time>2012-03-24T07:34:24Z</time>
      </trkpt>
      <trkpt lat="42.90461" lon="-0.69976">
        <ele>1292.149414</ele>
        <time>2012-03-24T07:34:28Z</time>
      </trkpt>
      <trkpt lat="42.90459" lon="-0.69979">
        <ele>1292.630127</ele>
        <time>2012-03-24T07:34:30Z</time>
      </trkpt>
      <trkpt lat="42.90458" lon="-0.69982">
        <ele>1293.591309</ele>
        <time>2012-03-24T07:34:33Z</time>
      </trkpt>
      <trkpt lat="42.90452" lon="-0.69995">
        <ele>1297.917236</ele>
        <time>2012-03-24T07:34:46Z</time>
      </trkpt>
      <trkpt lat="42.9045" lon="-0.70006">
        <ele>1303.685059</ele>
        <time>2012-03-24T07:35:01Z</time>
      </trkpt>
      <trkpt lat="42.90451" lon="-0.70008">
        <ele>1304.64624</ele>
        <time>2012-03-24T07:35:03Z</time>
      </trkpt>
      <trkpt lat="42.90451" lon="-0.70012">
        <ele>1306.088135</ele>
        <time>2012-03-24T07:35:07Z</time>
      </trkpt>
      <trkpt lat="42.90447" lon="-0.70017">
        <ele>1308.972412</ele>
        <time>2012-03-24T07:35:14Z</time>
      </trkpt>
      <trkpt lat="42.90447" lon="-0.70021">
        <ele>1310.414307</ele>
        <time>2012-03-24T07:35:18Z</time>
      </trkpt>
      <trkpt lat="42.90445" lon="-0.70039">
        <ele>1315.220947</ele>
        <time>2012-03-24T07:35:34Z</time>
      </trkpt>
      <trkpt lat="42.90444" lon="-0.7006">
        <ele>1319.066162</ele>
        <time>2012-03-24T07:35:54Z</time>
      </trkpt>
      <trkpt lat="42.90448" lon="-0.70072">
        <ele>1322.911377</ele>
        <time>2012-03-24T07:36:08Z</time>
      </trkpt>
      <trkpt lat="42.90448" lon="-0.7009">
        <ele>1329.640625</ele>
        <time>2012-03-24T07:36:27Z</time>
      </trkpt>
      <trkpt lat="42.90444" lon="-0.70109">
        <ele>1333.966553</ele>
        <time>2012-03-24T07:36:46Z</time>
      </trkpt>
      <trkpt lat="42.90444" lon="-0.7012">
        <ele>1339.253662</ele>
        <time>2012-03-24T07:37:01Z</time>
      </trkpt>
      <trkpt lat="42.90438" lon="-0.70156">
        <ele>1349.828369</ele>
        <time>2012-03-24T07:37:25Z</time>
      </trkpt>
      <trkpt lat="42.90431" lon="-0.70176">
        <ele>1354.634766</ele>
        <time>2012-03-24T07:37:41Z</time>
      </trkpt>
      <trkpt lat="42.9043" lon="-0.70186">
        <ele>1356.076904</ele>
        <time>2012-03-24T07:37:46Z</time>
      </trkpt>
      <trkpt lat="42.9043" lon="-0.70204">
        <ele>1352.712158</ele>
        <time>2012-03-24T07:38:02Z</time>
      </trkpt>
      <trkpt lat="42.90437" lon="-0.70209">
        <ele>1344.060547</ele>
        <time>2012-03-24T07:38:12Z</time>
      </trkpt>
      <trkpt lat="42.9044" lon="-0.70222">
        <ele>1341.176514</ele>
        <time>2012-03-24T07:38:25Z</time>
      </trkpt>
      <trkpt lat="42.90438" lon="-0.70227">
        <ele>1339.253662</ele>
        <time>2012-03-24T07:38:32Z</time>
      </trkpt>
      <trkpt lat="42.90437" lon="-0.70239">
        <ele>1336.369873</ele>
        <time>2012-03-24T07:38:49Z</time>
      </trkpt>
      <trkpt lat="42.90435" lon="-0.7025">
        <ele>1335.408447</ele>
        <time>2012-03-24T07:39:01Z</time>
      </trkpt>
      <trkpt lat="42.90434" lon="-0.70262">
        <ele>1334.927979</ele>
        <time>2012-03-24T07:39:13Z</time>
      </trkpt>
      <trkpt lat="42.90433" lon="-0.70274">
        <ele>1336.369873</ele>
        <time>2012-03-24T07:39:27Z</time>
      </trkpt>
      <trkpt lat="42.90434" lon="-0.7028">
        <ele>1336.850342</ele>
        <time>2012-03-24T07:39:34Z</time>
      </trkpt>
      <trkpt lat="42.90439" lon="-0.70287">
        <ele>1339.734375</ele>
        <time>2012-03-24T07:39:46Z</time>
      </trkpt>
      <trkpt lat="42.90439" lon="-0.70291">
        <ele>1340.215332</ele>
        <time>2012-03-24T07:39:53Z</time>
      </trkpt>
      <trkpt lat="42.90439" lon="-0.70304">
        <ele>1339.253662</ele>
        <time>2012-03-24T07:40:08Z</time>
      </trkpt>
      <trkpt lat="42.90437" lon="-0.70308">
        <ele>1340.215332</ele>
        <time>2012-03-24T07:40:13Z</time>
      </trkpt>
      <trkpt lat="42.90436" lon="-0.70312">
        <ele>1340.215332</ele>
        <time>2012-03-24T07:40:16Z</time>
      </trkpt>
      <trkpt lat="42.90434" lon="-0.70317">
        <ele>1340.215332</ele>
        <time>2012-03-24T07:40:19Z</time>
      </trkpt>
      <trkpt lat="42.90434" lon="-0.70322">
        <ele>1340.215332</ele>
        <time>2012-03-24T07:40:23Z</time>
      </trkpt>
      <trkpt lat="42.90433" lon="-0.70326">
        <ele>1340.215332</ele>
        <time>2012-03-24T07:40:26Z</time>
      </trkpt>
      <trkpt lat="42.90435" lon="-0.70328">
        <ele>1340.695801</ele>
        <time>2012-03-24T07:40:28Z</time>
      </trkpt>
      <trkpt lat="42.90441" lon="-0.70348">
        <ele>1344.060547</ele>
        <time>2012-03-24T07:40:45Z</time>
      </trkpt>
      <trkpt lat="42.90444" lon="-0.70356">
        <ele>1345.502441</ele>
        <time>2012-03-24T07:40:50Z</time>
      </trkpt>
      <trkpt lat="42.90445" lon="-0.7037">
        <ele>1352.712158</ele>
        <time>2012-03-24T07:41:04Z</time>
      </trkpt>
      <trkpt lat="42.90442" lon="-0.70379">
        <ele>1353.673584</ele>
        <time>2012-03-24T07:41:15Z</time>
      </trkpt>
      <trkpt lat="42.90437" lon="-0.70386">
        <ele>1354.154297</ele>
        <time>2012-03-24T07:41:27Z</time>
      </trkpt>
      <trkpt lat="42.90434" lon="-0.70392">
        <ele>1355.115479</ele>
        <time>2012-03-24T07:41:33Z</time>
      </trkpt>
      <trkpt lat="42.90434" lon="-0.70396">
        <ele>1355.596191</ele>
        <time>2012-03-24T07:41:36Z</time>
      </trkpt>
      <trkpt lat="42.90432" lon="-0.70408">
        <ele>1357.999756</ele>
        <time>2012-03-24T07:41:48Z</time>
      </trkpt>
      <trkpt lat="42.90431" lon="-0.70422">
        <ele>1358.960938</ele>
        <time>2012-03-24T07:42:01Z</time>
      </trkpt>
      <trkpt lat="42.90431" lon="-0.70428">
        <ele>1361.844971</ele>
        <time>2012-03-24T07:42:09Z</time>
      </trkpt>
      <trkpt lat="42.90433" lon="-0.7043">
        <ele>1362.325439</ele>
        <time>2012-03-24T07:42:11Z</time>
      </trkpt>
      <trkpt lat="42.90433" lon="-0.70435">
        <ele>1363.767334</ele>
        <time>2012-03-24T07:42:14Z</time>
      </trkpt>
      <trkpt lat="42.90434" lon="-0.7044">
        <ele>1364.248047</ele>
        <time>2012-03-24T07:42:17Z</time>
      </trkpt>
      <trkpt lat="42.90435" lon="-0.70447">
        <ele>1364.72876</ele>
        <time>2012-03-24T07:42:21Z</time>
      </trkpt>
      <trkpt lat="42.90434" lon="-0.70464">
        <ele>1366.651367</ele>
        <time>2012-03-24T07:42:31Z</time>
      </trkpt>
      <trkpt lat="42.90433" lon="-0.70469">
        <ele>1366.651367</ele>
        <time>2012-03-24T07:42:35Z</time>
      </trkpt>
      <trkpt lat="42.90434" lon="-0.70473">
        <ele>1366.651367</ele>
        <time>2012-03-24T07:42:37Z</time>
      </trkpt>
      <trkpt lat="42.90434" lon="-0.70483">
        <ele>1366.651367</ele>
        <time>2012-03-24T07:42:43Z</time>
      </trkpt>
      <trkpt lat="42.90436" lon="-0.70493">
        <ele>1367.13208</ele>
        <time>2012-03-24T07:42:50Z</time>
      </trkpt>
      <trkpt lat="42.90433" lon="-0.70503">
        <ele>1367.13208</ele>
        <time>2012-03-24T07:42:57Z</time>
      </trkpt>
      <trkpt lat="42.90432" lon="-0.70515">
        <ele>1367.612549</ele>
        <time>2012-03-24T07:43:05Z</time>
      </trkpt>
      <trkpt lat="42.9043" lon="-0.70526">
        <ele>1367.13208</ele>
        <time>2012-03-24T07:43:15Z</time>
      </trkpt>
      <trkpt lat="42.90429" lon="-0.70534">
        <ele>1366.651367</ele>
        <time>2012-03-24T07:43:29Z</time>
      </trkpt>
      <trkpt lat="42.90429" lon="-0.70536">
        <ele>1366.170654</ele>
        <time>2012-03-24T07:43:39Z</time>
      </trkpt>
      <trkpt lat="42.90429" lon="-0.70538">
        <ele>1366.170654</ele>
        <time>2012-03-24T07:43:41Z</time>
      </trkpt>
      <trkpt lat="42.90423" lon="-0.70556">
        <ele>1364.72876</ele>
        <time>2012-03-24T07:43:58Z</time>
      </trkpt>
      <trkpt lat="42.90422" lon="-0.7056">
        <ele>1364.72876</ele>
        <time>2012-03-24T07:44:01Z</time>
      </trkpt>
      <trkpt lat="42.9042" lon="-0.70564">
        <ele>1365.209473</ele>
        <time>2012-03-24T07:44:04Z</time>
      </trkpt>
      <trkpt lat="42.90417" lon="-0.70573">
        <ele>1365.690186</ele>
        <time>2012-03-24T07:44:10Z</time>
      </trkpt>
      <trkpt lat="42.90416" lon="-0.70585">
        <ele>1365.690186</ele>
        <time>2012-03-24T07:44:17Z</time>
      </trkpt>
      <trkpt lat="42.90415" lon="-0.70595">
        <ele>1363.767334</ele>
        <time>2012-03-24T07:44:23Z</time>
      </trkpt>
      <trkpt lat="42.90413" lon="-0.70601">
        <ele>1362.806152</ele>
        <time>2012-03-24T07:44:27Z</time>
      </trkpt>
      <trkpt lat="42.90413" lon="-0.70631">
        <ele>1361.364258</ele>
        <time>2012-03-24T07:44:44Z</time>
      </trkpt>
      <trkpt lat="42.90415" lon="-0.70643">
        <ele>1359.922119</ele>
        <time>2012-03-24T07:44:51Z</time>
      </trkpt>
      <trkpt lat="42.90418" lon="-0.70659">
        <ele>1357.999756</ele>
        <time>2012-03-24T07:45:02Z</time>
      </trkpt>
      <trkpt lat="42.90418" lon="-0.70663">
        <ele>1357.519043</ele>
        <time>2012-03-24T07:45:04Z</time>
      </trkpt>
      <trkpt lat="42.90418" lon="-0.70667">
        <ele>1357.999756</ele>
        <time>2012-03-24T07:45:07Z</time>
      </trkpt>
      <trkpt lat="42.90418" lon="-0.7067">
        <ele>1357.999756</ele>
        <time>2012-03-24T07:45:09Z</time>
      </trkpt>
      <trkpt lat="42.90419" lon="-0.7068">
        <ele>1357.03833</ele>
        <time>2012-03-24T07:45:16Z</time>
      </trkpt>
      <trkpt lat="42.9042" lon="-0.70692">
        <ele>1357.519043</ele>
        <time>2012-03-24T07:45:24Z</time>
      </trkpt>
      <trkpt lat="42.9042" lon="-0.70696">
        <ele>1357.999756</ele>
        <time>2012-03-24T07:45:26Z</time>
      </trkpt>
      <trkpt lat="42.90421" lon="-0.70701">
        <ele>1357.999756</ele>
        <time>2012-03-24T07:45:30Z</time>
      </trkpt>
      <trkpt lat="42.90421" lon="-0.70704">
        <ele>1357.999756</ele>
        <time>2012-03-24T07:45:32Z</time>
      </trkpt>
      <trkpt lat="42.90421" lon="-0.70713">
        <ele>1358.480225</ele>
        <time>2012-03-24T07:45:38Z</time>
      </trkpt>
      <trkpt lat="42.90421" lon="-0.70719">
        <ele>1357.999756</ele>
        <time>2012-03-24T07:45:42Z</time>
      </trkpt>
      <trkpt lat="42.90418" lon="-0.70728">
        <ele>1356.076904</ele>
        <time>2012-03-24T07:46:06Z</time>
      </trkpt>
      <trkpt lat="42.90415" lon="-0.70733">
        <ele>1355.115479</ele>
        <time>2012-03-24T07:46:42Z</time>
      </trkpt>
      <trkpt lat="42.90414" lon="-0.70736">
        <ele>1355.115479</ele>
        <time>2012-03-24T07:47:08Z</time>
      </trkpt>
      <trkpt lat="42.90413" lon="-0.70736">
        <ele>1355.115479</ele>
        <time>2012-03-24T07:49:58Z</time>
      </trkpt>
      <trkpt lat="42.90414" lon="-0.70736">
        <ele>1354.634766</ele>
        <time>2012-03-24T07:51:07Z</time>
      </trkpt>
      <trkpt lat="42.90414" lon="-0.70737">
        <ele>1354.634766</ele>
        <time>2012-03-24T07:51:38Z</time>
      </trkpt>
      <trkpt lat="42.90415" lon="-0.70738">
        <ele>1353.673584</ele>
        <time>2012-03-24T07:52:28Z</time>
      </trkpt>
      <trkpt lat="42.90414" lon="-0.70738">
        <ele>1353.673584</ele>
        <time>2012-03-24T07:53:03Z</time>
      </trkpt>
      <trkpt lat="42.90415" lon="-0.70737">
        <ele>1354.634766</ele>
        <time>2012-03-24T07:53:17Z</time>
      </trkpt>
      <trkpt lat="42.90415" lon="-0.70738">
        <ele>1354.634766</ele>
        <time>2012-03-24T07:53:42Z</time>
      </trkpt>
      <trkpt lat="42.90414" lon="-0.70739">
        <ele>1354.634766</ele>
        <time>2012-03-24T07:53:56Z</time>
      </trkpt>
      <trkpt lat="42.90414" lon="-0.7074">
        <ele>1354.154297</ele>
        <time>2012-03-24T07:54:22Z</time>
      </trkpt>
      <trkpt lat="42.90414" lon="-0.7074">
        <ele>1353.673584</ele>
        <time>2012-03-24T07:54:44Z</time>
      </trkpt>
      <trkpt lat="42.90414" lon="-0.7074">
        <ele>1353.192871</ele>
        <time>2012-03-24T07:55:13Z</time>
      </trkpt>
      <trkpt lat="42.90414" lon="-0.7074">
        <ele>1353.192871</ele>
        <time>2012-03-24T07:55:42Z</time>
      </trkpt>
      <trkpt lat="42.90414" lon="-0.70741">
        <ele>1353.192871</ele>
        <time>2012-03-24T07:56:22Z</time>
      </trkpt>
      <trkpt lat="42.90413" lon="-0.70741">
        <ele>1353.673584</ele>
        <time>2012-03-24T07:56:23Z</time>
      </trkpt>
      <trkpt lat="42.90407" lon="-0.70747">
        <ele>1354.154297</ele>
        <time>2012-03-24T07:56:29Z</time>
      </trkpt>
      <trkpt lat="42.90405" lon="-0.70749">
        <ele>1354.154297</ele>
        <time>2012-03-24T07:56:31Z</time>
      </trkpt>
      <trkpt lat="42.90402" lon="-0.70754">
        <ele>1354.154297</ele>
        <time>2012-03-24T07:56:35Z</time>
      </trkpt>
      <trkpt lat="42.90401" lon="-0.70758">
        <ele>1353.673584</ele>
        <time>2012-03-24T07:56:38Z</time>
      </trkpt>
      <trkpt lat="42.90398" lon="-0.70766">
        <ele>1354.154297</ele>
        <time>2012-03-24T07:56:44Z</time>
      </trkpt>
      <trkpt lat="42.90393" lon="-0.70781">
        <ele>1355.115479</ele>
        <time>2012-03-24T07:56:55Z</time>
      </trkpt>
      <trkpt lat="42.90392" lon="-0.70788">
        <ele>1355.596191</ele>
        <time>2012-03-24T07:56:59Z</time>
      </trkpt>
      <trkpt lat="42.90389" lon="-0.70798">
        <ele>1355.596191</ele>
        <time>2012-03-24T07:57:05Z</time>
      </trkpt>
      <trkpt lat="42.90386" lon="-0.70809">
        <ele>1356.076904</ele>
        <time>2012-03-24T07:57:12Z</time>
      </trkpt>
      <trkpt lat="42.90384" lon="-0.7082">
        <ele>1357.999756</ele>
        <time>2012-03-24T07:57:20Z</time>
      </trkpt>
      <trkpt lat="42.90382" lon="-0.70827">
        <ele>1358.480225</ele>
        <time>2012-03-24T07:57:33Z</time>
      </trkpt>
      <trkpt lat="42.90376" lon="-0.70847">
        <ele>1359.44165</ele>
        <time>2012-03-24T07:57:47Z</time>
      </trkpt>
      <trkpt lat="42.90374" lon="-0.70854">
        <ele>1358.960938</ele>
        <time>2012-03-24T07:57:51Z</time>
      </trkpt>
      <trkpt lat="42.9037" lon="-0.70866">
        <ele>1359.44165</ele>
        <time>2012-03-24T07:58:00Z</time>
      </trkpt>
      <trkpt lat="42.90365" lon="-0.7088">
        <ele>1357.519043</ele>
        <time>2012-03-24T07:58:08Z</time>
      </trkpt>
      <trkpt lat="42.90364" lon="-0.70885">
        <ele>1357.519043</ele>
        <time>2012-03-24T07:58:12Z</time>
      </trkpt>
      <trkpt lat="42.90362" lon="-0.70889">
        <ele>1358.960938</ele>
        <time>2012-03-24T07:58:16Z</time>
      </trkpt>
      <trkpt lat="42.90359" lon="-0.70893">
        <ele>1359.44165</ele>
        <time>2012-03-24T07:58:20Z</time>
      </trkpt>
      <trkpt lat="42.90357" lon="-0.709">
        <ele>1359.922119</ele>
        <time>2012-03-24T07:58:28Z</time>
      </trkpt>
      <trkpt lat="42.90352" lon="-0.70914">
        <ele>1360.402832</ele>
        <time>2012-03-24T07:58:37Z</time>
      </trkpt>
      <trkpt lat="42.9035" lon="-0.70918">
        <ele>1360.402832</ele>
        <time>2012-03-24T07:58:40Z</time>
      </trkpt>
      <trkpt lat="42.90345" lon="-0.70929">
        <ele>1362.325439</ele>
        <time>2012-03-24T07:58:49Z</time>
      </trkpt>
      <trkpt lat="42.90337" lon="-0.7095">
        <ele>1363.767334</ele>
        <time>2012-03-24T07:59:03Z</time>
      </trkpt>
      <trkpt lat="42.90336" lon="-0.70954">
        <ele>1363.767334</ele>
        <time>2012-03-24T07:59:05Z</time>
      </trkpt>
      <trkpt lat="42.90328" lon="-0.70974">
        <ele>1362.806152</ele>
        <time>2012-03-24T07:59:19Z</time>
      </trkpt>
      <trkpt lat="42.90325" lon="-0.7098">
        <ele>1362.806152</ele>
        <time>2012-03-24T07:59:41Z</time>
      </trkpt>
      <trkpt lat="42.90317" lon="-0.70993">
        <ele>1364.72876</ele>
        <time>2012-03-24T07:59:53Z</time>
      </trkpt>
      <trkpt lat="42.90315" lon="-0.70998">
        <ele>1365.690186</ele>
        <time>2012-03-24T07:59:57Z</time>
      </trkpt>
      <trkpt lat="42.90313" lon="-0.71003">
        <ele>1366.170654</ele>
        <time>2012-03-24T08:00:01Z</time>
      </trkpt>
      <trkpt lat="42.90307" lon="-0.71016">
        <ele>1366.651367</ele>
        <time>2012-03-24T08:00:11Z</time>
      </trkpt>
      <trkpt lat="42.90304" lon="-0.71022">
        <ele>1368.573975</ele>
        <time>2012-03-24T08:00:17Z</time>
      </trkpt>
      <trkpt lat="42.90302" lon="-0.71025">
        <ele>1369.5354</ele>
        <time>2012-03-24T08:00:21Z</time>
      </trkpt>
      <trkpt lat="42.90292" lon="-0.71036">
        <ele>1372.419434</ele>
        <time>2012-03-24T08:00:37Z</time>
      </trkpt>
      <trkpt lat="42.90287" lon="-0.71032">
        <ele>1373.861328</ele>
        <time>2012-03-24T08:00:55Z</time>
      </trkpt>
      <trkpt lat="42.90286" lon="-0.7103">
        <ele>1373.861328</ele>
        <time>2012-03-24T08:01:23Z</time>
      </trkpt>
      <trkpt lat="42.90284" lon="-0.71027">
        <ele>1374.822754</ele>
        <time>2012-03-24T08:01:41Z</time>
      </trkpt>
      <trkpt lat="42.90279" lon="-0.71015">
        <ele>1380.590576</ele>
        <time>2012-03-24T08:01:57Z</time>
      </trkpt>
      <trkpt lat="42.90278" lon="-0.7101">
        <ele>1381.071289</ele>
        <time>2012-03-24T08:02:03Z</time>
      </trkpt>
      <trkpt lat="42.90276" lon="-0.70995">
        <ele>1386.838867</ele>
        <time>2012-03-24T08:02:19Z</time>
      </trkpt>
      <trkpt lat="42.90276" lon="-0.70987">
        <ele>1390.203857</ele>
        <time>2012-03-24T08:02:28Z</time>
      </trkpt>
      <trkpt lat="42.90277" lon="-0.70973">
        <ele>1392.607178</ele>
        <time>2012-03-24T08:02:44Z</time>
      </trkpt>
      <trkpt lat="42.90276" lon="-0.70971">
        <ele>1392.126465</ele>
        <time>2012-03-24T08:02:52Z</time>
      </trkpt>
      <trkpt lat="42.90269" lon="-0.70964">
        <ele>1391.165039</ele>
        <time>2012-03-24T08:03:16Z</time>
      </trkpt>
      <trkpt lat="42.90262" lon="-0.70954">
        <ele>1392.126465</ele>
        <time>2012-03-24T08:03:31Z</time>
      </trkpt>
      <trkpt lat="42.90259" lon="-0.70952">
        <ele>1392.607178</ele>
        <time>2012-03-24T08:03:36Z</time>
      </trkpt>
      <trkpt lat="42.90251" lon="-0.70945">
        <ele>1394.049072</ele>
        <time>2012-03-24T08:03:49Z</time>
      </trkpt>
      <trkpt lat="42.90243" lon="-0.70938">
        <ele>1395.97168</ele>
        <time>2012-03-24T08:04:00Z</time>
      </trkpt>
      <trkpt lat="42.90236" lon="-0.70932">
        <ele>1400.778076</ele>
        <time>2012-03-24T08:04:14Z</time>
      </trkpt>
      <trkpt lat="42.90235" lon="-0.70932">
        <ele>1400.778076</ele>
        <time>2012-03-24T08:04:15Z</time>
      </trkpt>
      <trkpt lat="42.90224" lon="-0.70926">
        <ele>1405.584961</ele>
        <time>2012-03-24T08:04:30Z</time>
      </trkpt>
      <trkpt lat="42.90218" lon="-0.70922">
        <ele>1407.507568</ele>
        <time>2012-03-24T08:04:37Z</time>
      </trkpt>
      <trkpt lat="42.90213" lon="-0.70919">
        <ele>1407.507568</ele>
        <time>2012-03-24T08:04:43Z</time>
      </trkpt>
      <trkpt lat="42.90207" lon="-0.70915">
        <ele>1407.988281</ele>
        <time>2012-03-24T08:04:50Z</time>
      </trkpt>
      <trkpt lat="42.90197" lon="-0.70907">
        <ele>1410.391357</ele>
        <time>2012-03-24T08:05:03Z</time>
      </trkpt>
      <trkpt lat="42.9019" lon="-0.70908">
        <ele>1412.313965</ele>
        <time>2012-03-24T08:05:10Z</time>
      </trkpt>
      <trkpt lat="42.90184" lon="-0.70911">
        <ele>1413.755859</ele>
        <time>2012-03-24T08:05:20Z</time>
      </trkpt>
      <trkpt lat="42.90178" lon="-0.70913">
        <ele>1415.678711</ele>
        <time>2012-03-24T08:05:27Z</time>
      </trkpt>
      <trkpt lat="42.90172" lon="-0.70918">
        <ele>1417.601074</ele>
        <time>2012-03-24T08:05:37Z</time>
      </trkpt>
      <trkpt lat="42.90171" lon="-0.70924">
        <ele>1418.081787</ele>
        <time>2012-03-24T08:05:42Z</time>
      </trkpt>
      <trkpt lat="42.90165" lon="-0.70939">
        <ele>1419.043213</ele>
        <time>2012-03-24T08:05:55Z</time>
      </trkpt>
      <trkpt lat="42.90162" lon="-0.70942">
        <ele>1419.043213</ele>
        <time>2012-03-24T08:05:59Z</time>
      </trkpt>
      <trkpt lat="42.90155" lon="-0.70952">
        <ele>1420.485352</ele>
        <time>2012-03-24T08:06:13Z</time>
      </trkpt>
      <trkpt lat="42.90151" lon="-0.70957">
        <ele>1422.407959</ele>
        <time>2012-03-24T08:06:20Z</time>
      </trkpt>
      <trkpt lat="42.90144" lon="-0.70964">
        <ele>1424.811279</ele>
        <time>2012-03-24T08:06:32Z</time>
      </trkpt>
      <trkpt lat="42.90145" lon="-0.70976">
        <ele>1426.253174</ele>
        <time>2012-03-24T08:06:42Z</time>
      </trkpt>
      <trkpt lat="42.90143" lon="-0.70982">
        <ele>1428.175781</ele>
        <time>2012-03-24T08:06:49Z</time>
      </trkpt>
      <trkpt lat="42.90135" lon="-0.70985">
        <ele>1430.579102</ele>
        <time>2012-03-24T08:07:01Z</time>
      </trkpt>
      <trkpt lat="42.90124" lon="-0.70995">
        <ele>1432.020996</ele>
        <time>2012-03-24T08:07:15Z</time>
      </trkpt>
      <trkpt lat="42.90117" lon="-0.70999">
        <ele>1433.943604</ele>
        <time>2012-03-24T08:07:25Z</time>
      </trkpt>
      <trkpt lat="42.90108" lon="-0.71011">
        <ele>1438.269775</ele>
        <time>2012-03-24T08:07:41Z</time>
      </trkpt>
      <trkpt lat="42.90105" lon="-0.71014">
        <ele>1438.269775</ele>
        <time>2012-03-24T08:07:45Z</time>
      </trkpt>
      <trkpt lat="42.901" lon="-0.71021">
        <ele>1438.269775</ele>
        <time>2012-03-24T08:07:55Z</time>
      </trkpt>
      <trkpt lat="42.90095" lon="-0.71025">
        <ele>1438.750488</ele>
        <time>2012-03-24T08:08:01Z</time>
      </trkpt>
      <trkpt lat="42.90092" lon="-0.71031">
        <ele>1439.230957</ele>
        <time>2012-03-24T08:08:07Z</time>
      </trkpt>
      <trkpt lat="42.90089" lon="-0.71037">
        <ele>1438.750488</ele>
        <time>2012-03-24T08:08:14Z</time>
      </trkpt>
      <trkpt lat="42.90084" lon="-0.71038">
        <ele>1439.230957</ele>
        <time>2012-03-24T08:08:19Z</time>
      </trkpt>
      <trkpt lat="42.90068" lon="-0.71047">
        <ele>1443.076172</ele>
        <time>2012-03-24T08:08:36Z</time>
      </trkpt>
      <trkpt lat="42.90057" lon="-0.71054">
        <ele>1443.076172</ele>
        <time>2012-03-24T08:08:50Z</time>
      </trkpt>
      <trkpt lat="42.90054" lon="-0.71055">
        <ele>1443.076172</ele>
        <time>2012-03-24T08:08:53Z</time>
      </trkpt>
      <trkpt lat="42.9004" lon="-0.7107">
        <ele>1443.556885</ele>
        <time>2012-03-24T08:09:09Z</time>
      </trkpt>
      <trkpt lat="42.90038" lon="-0.71072">
        <ele>1444.037598</ele>
        <time>2012-03-24T08:09:13Z</time>
      </trkpt>
      <trkpt lat="42.9003" lon="-0.71081">
        <ele>1444.998779</ele>
        <time>2012-03-24T08:09:27Z</time>
      </trkpt>
      <trkpt lat="42.90027" lon="-0.71083">
        <ele>1445.479492</ele>
        <time>2012-03-24T08:09:30Z</time>
      </trkpt>
      <trkpt lat="42.90014" lon="-0.71093">
        <ele>1446.921387</ele>
        <time>2012-03-24T08:09:46Z</time>
      </trkpt>
      <trkpt lat="42.90011" lon="-0.71096">
        <ele>1446.921387</ele>
        <time>2012-03-24T08:09:50Z</time>
      </trkpt>
      <trkpt lat="42.90008" lon="-0.71099">
        <ele>1447.882812</ele>
        <time>2012-03-24T08:09:55Z</time>
      </trkpt>
      <trkpt lat="42.90003" lon="-0.71101">
        <ele>1449.324707</ele>
        <time>2012-03-24T08:10:01Z</time>
      </trkpt>
      <trkpt lat="42.89994" lon="-0.71105">
        <ele>1451.728027</ele>
        <time>2012-03-24T08:10:12Z</time>
      </trkpt>
      <trkpt lat="42.89991" lon="-0.71105">
        <ele>1453.170166</ele>
        <time>2012-03-24T08:10:17Z</time>
      </trkpt>
      <trkpt lat="42.89985" lon="-0.71108">
        <ele>1455.092773</ele>
        <time>2012-03-24T08:10:26Z</time>
      </trkpt>
      <trkpt lat="42.89975" lon="-0.71119">
        <ele>1458.457275</ele>
        <time>2012-03-24T08:10:42Z</time>
      </trkpt>
      <trkpt lat="42.89969" lon="-0.71127">
        <ele>1460.860596</ele>
        <time>2012-03-24T08:10:53Z</time>
      </trkpt>
      <trkpt lat="42.89959" lon="-0.71144">
        <ele>1464.225098</ele>
        <time>2012-03-24T08:11:10Z</time>
      </trkpt>
      <trkpt lat="42.89958" lon="-0.71148">
        <ele>1464.225098</ele>
        <time>2012-03-24T08:11:13Z</time>
      </trkpt>
      <trkpt lat="42.89947" lon="-0.71157">
        <ele>1466.147705</ele>
        <time>2012-03-24T08:11:27Z</time>
      </trkpt>
      <trkpt lat="42.89938" lon="-0.71159">
        <ele>1468.55127</ele>
        <time>2012-03-24T08:11:39Z</time>
      </trkpt>
      <trkpt lat="42.89934" lon="-0.71162">
        <ele>1469.031982</ele>
        <time>2012-03-24T08:11:44Z</time>
      </trkpt>
      <trkpt lat="42.89932" lon="-0.71173">
        <ele>1469.512695</ele>
        <time>2012-03-24T08:11:52Z</time>
      </trkpt>
      <trkpt lat="42.89924" lon="-0.71191">
        <ele>1470.95459</ele>
        <time>2012-03-24T08:12:09Z</time>
      </trkpt>
      <trkpt lat="42.89917" lon="-0.71198">
        <ele>1472.396484</ele>
        <time>2012-03-24T08:12:21Z</time>
      </trkpt>
      <trkpt lat="42.89912" lon="-0.71204">
        <ele>1473.35791</ele>
        <time>2012-03-24T08:12:31Z</time>
      </trkpt>
      <trkpt lat="42.89908" lon="-0.71207">
        <ele>1474.799805</ele>
        <time>2012-03-24T08:12:37Z</time>
      </trkpt>
      <trkpt lat="42.89902" lon="-0.71211">
        <ele>1476.241699</ele>
        <time>2012-03-24T08:12:45Z</time>
      </trkpt>
      <trkpt lat="42.89895" lon="-0.71221">
        <ele>1478.164307</ele>
        <time>2012-03-24T08:13:00Z</time>
      </trkpt>
      <trkpt lat="42.89886" lon="-0.7123">
        <ele>1482.970703</ele>
        <time>2012-03-24T08:13:15Z</time>
      </trkpt>
      <trkpt lat="42.89878" lon="-0.71238">
        <ele>1486.335693</ele>
        <time>2012-03-24T08:13:31Z</time>
      </trkpt>
      <trkpt lat="42.89875" lon="-0.71243">
        <ele>1485.85498</ele>
        <time>2012-03-24T08:13:54Z</time>
      </trkpt>
      <trkpt lat="42.89875" lon="-0.71251">
        <ele>1486.816162</ele>
        <time>2012-03-24T08:14:11Z</time>
      </trkpt>
      <trkpt lat="42.89876" lon="-0.71251">
        <ele>1487.296875</ele>
        <time>2012-03-24T08:14:12Z</time>
      </trkpt>
      <trkpt lat="42.89878" lon="-0.71252">
        <ele>1487.296875</ele>
        <time>2012-03-24T08:14:14Z</time>
      </trkpt>
      <trkpt lat="42.8988" lon="-0.71251">
        <ele>1488.258301</ele>
        <time>2012-03-24T08:14:17Z</time>
      </trkpt>
      <trkpt lat="42.89889" lon="-0.71255">
        <ele>1494.987305</ele>
        <time>2012-03-24T08:14:30Z</time>
      </trkpt>
      <trkpt lat="42.89891" lon="-0.71257">
        <ele>1496.909912</ele>
        <time>2012-03-24T08:14:36Z</time>
      </trkpt>
      <trkpt lat="42.89892" lon="-0.71266">
        <ele>1499.313232</ele>
        <time>2012-03-24T08:14:53Z</time>
      </trkpt>
      <trkpt lat="42.89892" lon="-0.7127">
        <ele>1500.755371</ele>
        <time>2012-03-24T08:15:05Z</time>
      </trkpt>
      <trkpt lat="42.89892" lon="-0.7128">
        <ele>1504.120117</ele>
        <time>2012-03-24T08:15:23Z</time>
      </trkpt>
      <trkpt lat="42.89898" lon="-0.71287">
        <ele>1506.523193</ele>
        <time>2012-03-24T08:15:39Z</time>
      </trkpt>
      <trkpt lat="42.89897" lon="-0.71294">
        <ele>1508.445801</ele>
        <time>2012-03-24T08:15:55Z</time>
      </trkpt>
      <trkpt lat="42.89895" lon="-0.71295">
        <ele>1508.445801</ele>
        <time>2012-03-24T08:15:58Z</time>
      </trkpt>
      <trkpt lat="42.89891" lon="-0.71305">
        <ele>1510.368408</ele>
        <time>2012-03-24T08:16:16Z</time>
      </trkpt>
      <trkpt lat="42.89886" lon="-0.71312">
        <ele>1510.849121</ele>
        <time>2012-03-24T08:16:32Z</time>
      </trkpt>
      <trkpt lat="42.89879" lon="-0.71321">
        <ele>1513.73291</ele>
        <time>2012-03-24T08:16:49Z</time>
      </trkpt>
      <trkpt lat="42.89872" lon="-0.71334">
        <ele>1514.213623</ele>
        <time>2012-03-24T08:17:03Z</time>
      </trkpt>
      <trkpt lat="42.89864" lon="-0.71345">
        <ele>1516.136475</ele>
        <time>2012-03-24T08:17:15Z</time>
      </trkpt>
      <trkpt lat="42.89867" lon="-0.71349">
        <ele>1517.0979</ele>
        <time>2012-03-24T08:17:21Z</time>
      </trkpt>
      <trkpt lat="42.89872" lon="-0.7135">
        <ele>1519.981689</ele>
        <time>2012-03-24T08:17:28Z</time>
      </trkpt>
      <trkpt lat="42.8988" lon="-0.71348">
        <ele>1525.268799</ele>
        <time>2012-03-24T08:17:38Z</time>
      </trkpt>
      <trkpt lat="42.8989" lon="-0.71347">
        <ele>1534.401611</ele>
        <time>2012-03-24T08:17:54Z</time>
      </trkpt>
      <trkpt lat="42.89891" lon="-0.71345">
        <ele>1535.362793</ele>
        <time>2012-03-24T08:17:56Z</time>
      </trkpt>
      <trkpt lat="42.89896" lon="-0.71339">
        <ele>1537.766113</ele>
        <time>2012-03-24T08:18:03Z</time>
      </trkpt>
      <trkpt lat="42.89901" lon="-0.71335">
        <ele>1540.169434</ele>
        <time>2012-03-24T08:18:10Z</time>
      </trkpt>
      <trkpt lat="42.89906" lon="-0.71332">
        <ele>1539.688721</ele>
        <time>2012-03-24T08:18:19Z</time>
      </trkpt>
      <trkpt lat="42.8991" lon="-0.7133">
        <ele>1534.401611</ele>
        <time>2012-03-24T08:18:35Z</time>
      </trkpt>
      <trkpt lat="42.89911" lon="-0.7133">
        <ele>1533.440186</ele>
        <time>2012-03-24T08:18:55Z</time>
      </trkpt>
      <trkpt lat="42.89911" lon="-0.7133">
        <ele>1533.920898</ele>
        <time>2012-03-24T08:19:07Z</time>
      </trkpt>
      <trkpt lat="42.89915" lon="-0.71348">
        <ele>1529.114014</ele>
        <time>2012-03-24T08:19:42Z</time>
      </trkpt>
      <trkpt lat="42.89908" lon="-0.71365">
        <ele>1529.594727</ele>
        <time>2012-03-24T08:19:59Z</time>
      </trkpt>
      <trkpt lat="42.89898" lon="-0.71383">
        <ele>1530.075439</ele>
        <time>2012-03-24T08:20:17Z</time>
      </trkpt>
      <trkpt lat="42.89897" lon="-0.71385">
        <ele>1530.075439</ele>
        <time>2012-03-24T08:20:19Z</time>
      </trkpt>
      <trkpt lat="42.89893" lon="-0.71395">
        <ele>1530.556152</ele>
        <time>2012-03-24T08:20:26Z</time>
      </trkpt>
      <trkpt lat="42.89888" lon="-0.71406">
        <ele>1531.998047</ele>
        <time>2012-03-24T08:20:35Z</time>
      </trkpt>
      <trkpt lat="42.89887" lon="-0.71409">
        <ele>1531.998047</ele>
        <time>2012-03-24T08:20:38Z</time>
      </trkpt>
      <trkpt lat="42.89885" lon="-0.71426">
        <ele>1536.804688</ele>
        <time>2012-03-24T08:20:54Z</time>
      </trkpt>
      <trkpt lat="42.8988" lon="-0.71441">
        <ele>1536.804688</ele>
        <time>2012-03-24T08:21:07Z</time>
      </trkpt>
      <trkpt lat="42.89879" lon="-0.71446">
        <ele>1536.324219</ele>
        <time>2012-03-24T08:21:12Z</time>
      </trkpt>
      <trkpt lat="42.89875" lon="-0.71453">
        <ele>1536.324219</ele>
        <time>2012-03-24T08:21:19Z</time>
      </trkpt>
      <trkpt lat="42.89875" lon="-0.71457">
        <ele>1536.324219</ele>
        <time>2012-03-24T08:21:22Z</time>
      </trkpt>
      <trkpt lat="42.89873" lon="-0.7146">
        <ele>1536.804688</ele>
        <time>2012-03-24T08:21:42Z</time>
      </trkpt>
      <trkpt lat="42.89873" lon="-0.71461">
        <ele>1536.804688</ele>
        <time>2012-03-24T08:21:45Z</time>
      </trkpt>
      <trkpt lat="42.8987" lon="-0.71471">
        <ele>1538.727539</ele>
        <time>2012-03-24T08:21:55Z</time>
      </trkpt>
      <trkpt lat="42.89869" lon="-0.71474">
        <ele>1539.688721</ele>
        <time>2012-03-24T08:21:59Z</time>
      </trkpt>
      <trkpt lat="42.89867" lon="-0.7148">
        <ele>1540.169434</ele>
        <time>2012-03-24T08:22:06Z</time>
      </trkpt>
      <trkpt lat="42.89864" lon="-0.71496">
        <ele>1541.611328</ele>
        <time>2012-03-24T08:22:21Z</time>
      </trkpt>
      <trkpt lat="42.89862" lon="-0.71501">
        <ele>1542.092041</ele>
        <time>2012-03-24T08:22:26Z</time>
      </trkpt>
      <trkpt lat="42.8986" lon="-0.71507">
        <ele>1543.533936</ele>
        <time>2012-03-24T08:22:37Z</time>
      </trkpt>
      <trkpt lat="42.89855" lon="-0.7152">
        <ele>1546.417969</ele>
        <time>2012-03-24T08:22:52Z</time>
      </trkpt>
      <trkpt lat="42.89852" lon="-0.7153">
        <ele>1547.37915</ele>
        <time>2012-03-24T08:23:06Z</time>
      </trkpt>
      <trkpt lat="42.89847" lon="-0.71548">
        <ele>1551.224609</ele>
        <time>2012-03-24T08:23:24Z</time>
      </trkpt>
      <trkpt lat="42.89843" lon="-0.71561">
        <ele>1552.185791</ele>
        <time>2012-03-24T08:23:40Z</time>
      </trkpt>
      <trkpt lat="42.89841" lon="-0.7157">
        <ele>1554.108643</ele>
        <time>2012-03-24T08:23:49Z</time>
      </trkpt>
      <trkpt lat="42.89838" lon="-0.71583">
        <ele>1556.992432</ele>
        <time>2012-03-24T08:24:04Z</time>
      </trkpt>
      <trkpt lat="42.89835" lon="-0.71595">
        <ele>1560.356934</ele>
        <time>2012-03-24T08:24:19Z</time>
      </trkpt>
      <trkpt lat="42.89832" lon="-0.71613">
        <ele>1564.202393</ele>
        <time>2012-03-24T08:24:36Z</time>
      </trkpt>
      <trkpt lat="42.89828" lon="-0.71629">
        <ele>1566.125</ele>
        <time>2012-03-24T08:24:52Z</time>
      </trkpt>
      <trkpt lat="42.89823" lon="-0.71639">
        <ele>1567.566895</ele>
        <time>2012-03-24T08:25:06Z</time>
      </trkpt>
      <trkpt lat="42.89819" lon="-0.71644">
        <ele>1566.605713</ele>
        <time>2012-03-24T08:25:22Z</time>
      </trkpt>
      <trkpt lat="42.89818" lon="-0.71645">
        <ele>1566.605713</ele>
        <time>2012-03-24T08:25:23Z</time>
      </trkpt>
      <trkpt lat="42.89814" lon="-0.71648">
        <ele>1567.566895</ele>
        <time>2012-03-24T08:25:29Z</time>
      </trkpt>
      <trkpt lat="42.89807" lon="-0.71652">
        <ele>1566.605713</ele>
        <time>2012-03-24T08:25:38Z</time>
      </trkpt>
      <trkpt lat="42.89797" lon="-0.7166">
        <ele>1569.009033</ele>
        <time>2012-03-24T08:25:54Z</time>
      </trkpt>
      <trkpt lat="42.89793" lon="-0.71661">
        <ele>1569.489746</ele>
        <time>2012-03-24T08:25:58Z</time>
      </trkpt>
      <trkpt lat="42.89788" lon="-0.71662">
        <ele>1570.450928</ele>
        <time>2012-03-24T08:26:17Z</time>
      </trkpt>
      <trkpt lat="42.89787" lon="-0.71662">
        <ele>1569.489746</ele>
        <time>2012-03-24T08:26:26Z</time>
      </trkpt>
      <trkpt lat="42.89789" lon="-0.71663">
        <ele>1569.489746</ele>
        <time>2012-03-24T08:26:32Z</time>
      </trkpt>
      <trkpt lat="42.89793" lon="-0.71668">
        <ele>1569.970215</ele>
        <time>2012-03-24T08:26:47Z</time>
      </trkpt>
      <trkpt lat="42.89793" lon="-0.7167">
        <ele>1569.489746</ele>
        <time>2012-03-24T08:27:04Z</time>
      </trkpt>
      <trkpt lat="42.89794" lon="-0.71672">
        <ele>1569.970215</ele>
        <time>2012-03-24T08:27:27Z</time>
      </trkpt>
      <trkpt lat="42.89794" lon="-0.71672">
        <ele>1569.970215</ele>
        <time>2012-03-24T08:28:04Z</time>
      </trkpt>
      <trkpt lat="42.89794" lon="-0.71673">
        <ele>1570.450928</ele>
        <time>2012-03-24T08:28:39Z</time>
      </trkpt>
      <trkpt lat="42.89796" lon="-0.71678">
        <ele>1570.450928</ele>
        <time>2012-03-24T08:28:44Z</time>
      </trkpt>
      <trkpt lat="42.89795" lon="-0.71685">
        <ele>1572.854248</ele>
        <time>2012-03-24T08:28:53Z</time>
      </trkpt>
      <trkpt lat="42.89793" lon="-0.71683">
        <ele>1573.334961</ele>
        <time>2012-03-24T08:28:55Z</time>
      </trkpt>
      <trkpt lat="42.89792" lon="-0.71678">
        <ele>1572.854248</ele>
        <time>2012-03-24T08:29:10Z</time>
      </trkpt>
      <trkpt lat="42.89792" lon="-0.7168">
        <ele>1573.334961</ele>
        <time>2012-03-24T08:29:16Z</time>
      </trkpt>
      <trkpt lat="42.89792" lon="-0.71689">
        <ele>1574.296143</ele>
        <time>2012-03-24T08:29:23Z</time>
      </trkpt>
      <trkpt lat="42.89796" lon="-0.71709">
        <ele>1574.776855</ele>
        <time>2012-03-24T08:29:36Z</time>
      </trkpt>
      <trkpt lat="42.89799" lon="-0.71725">
        <ele>1578.62207</ele>
        <time>2012-03-24T08:29:47Z</time>
      </trkpt>
      <trkpt lat="42.89801" lon="-0.71746">
        <ele>1583.428711</ele>
        <time>2012-03-24T08:30:04Z</time>
      </trkpt>
      <trkpt lat="42.898" lon="-0.71761">
        <ele>1587.273926</ele>
        <time>2012-03-24T08:30:20Z</time>
      </trkpt>
      <trkpt lat="42.89798" lon="-0.71769">
        <ele>1586.793213</ele>
        <time>2012-03-24T08:30:29Z</time>
      </trkpt>
      <trkpt lat="42.89798" lon="-0.71772">
        <ele>1586.793213</ele>
        <time>2012-03-24T08:30:47Z</time>
      </trkpt>
      <trkpt lat="42.89798" lon="-0.71774">
        <ele>1587.754639</ele>
        <time>2012-03-24T08:31:16Z</time>
      </trkpt>
      <trkpt lat="42.89798" lon="-0.71774">
        <ele>1587.754639</ele>
        <time>2012-03-24T08:32:19Z</time>
      </trkpt>
      <trkpt lat="42.89798" lon="-0.71774">
        <ele>1587.754639</ele>
        <time>2012-03-24T08:32:53Z</time>
      </trkpt>
      <trkpt lat="42.89798" lon="-0.71774">
        <ele>1587.754639</ele>
        <time>2012-03-24T08:33:36Z</time>
      </trkpt>
      <trkpt lat="42.89798" lon="-0.71774">
        <ele>1587.754639</ele>
        <time>2012-03-24T08:34:08Z</time>
      </trkpt>
      <trkpt lat="42.89798" lon="-0.71774">
        <ele>1587.754639</ele>
        <time>2012-03-24T08:34:35Z</time>
      </trkpt>
      <trkpt lat="42.89798" lon="-0.71773">
        <ele>1587.273926</ele>
        <time>2012-03-24T08:35:18Z</time>
      </trkpt>
      <trkpt lat="42.89798" lon="-0.71773">
        <ele>1586.793213</ele>
        <time>2012-03-24T08:36:10Z</time>
      </trkpt>
      <trkpt lat="42.89798" lon="-0.71773">
        <ele>1586.793213</ele>
        <time>2012-03-24T08:36:23Z</time>
      </trkpt>
      <trkpt lat="42.89797" lon="-0.71772">
        <ele>1586.793213</ele>
        <time>2012-03-24T08:36:42Z</time>
      </trkpt>
      <trkpt lat="42.89797" lon="-0.71772">
        <ele>1586.793213</ele>
        <time>2012-03-24T08:37:31Z</time>
      </trkpt>
      <trkpt lat="42.89798" lon="-0.71775">
        <ele>1587.754639</ele>
        <time>2012-03-24T08:37:46Z</time>
      </trkpt>
      <trkpt lat="42.89799" lon="-0.71782">
        <ele>1589.196533</ele>
        <time>2012-03-24T08:37:57Z</time>
      </trkpt>
      <trkpt lat="42.898" lon="-0.71786">
        <ele>1589.677246</ele>
        <time>2012-03-24T08:38:00Z</time>
      </trkpt>
      <trkpt lat="42.89799" lon="-0.71798">
        <ele>1594.003174</ele>
        <time>2012-03-24T08:38:17Z</time>
      </trkpt>
      <trkpt lat="42.89798" lon="-0.71801">
        <ele>1594.483643</ele>
        <time>2012-03-24T08:38:20Z</time>
      </trkpt>
      <trkpt lat="42.89795" lon="-0.71814">
        <ele>1595.925781</ele>
        <time>2012-03-24T08:38:37Z</time>
      </trkpt>
      <trkpt lat="42.89794" lon="-0.7182">
        <ele>1595.925781</ele>
        <time>2012-03-24T08:38:42Z</time>
      </trkpt>
      <trkpt lat="42.89792" lon="-0.7184">
        <ele>1597.848633</ele>
        <time>2012-03-24T08:38:58Z</time>
      </trkpt>
      <trkpt lat="42.89789" lon="-0.71855">
        <ele>1601.693848</ele>
        <time>2012-03-24T08:39:16Z</time>
      </trkpt>
      <trkpt lat="42.89788" lon="-0.71862">
        <ele>1601.693848</ele>
        <time>2012-03-24T08:39:22Z</time>
      </trkpt>
      <trkpt lat="42.89788" lon="-0.71869">
        <ele>1602.655029</ele>
        <time>2012-03-24T08:39:28Z</time>
      </trkpt>
      <trkpt lat="42.89786" lon="-0.71876">
        <ele>1605.05835</ele>
        <time>2012-03-24T08:39:36Z</time>
      </trkpt>
      <trkpt lat="42.89784" lon="-0.71893">
        <ele>1606.980957</ele>
        <time>2012-03-24T08:39:55Z</time>
      </trkpt>
      <trkpt lat="42.89784" lon="-0.71894">
        <ele>1606.980957</ele>
        <time>2012-03-24T08:39:56Z</time>
      </trkpt>
      <trkpt lat="42.89784" lon="-0.71897">
        <ele>1608.422852</ele>
        <time>2012-03-24T08:39:59Z</time>
      </trkpt>
      <trkpt lat="42.89785" lon="-0.71906">
        <ele>1612.268311</ele>
        <time>2012-03-24T08:40:15Z</time>
      </trkpt>
      <trkpt lat="42.89785" lon="-0.71921">
        <ele>1613.229736</ele>
        <time>2012-03-24T08:40:33Z</time>
      </trkpt>
      <trkpt lat="42.89784" lon="-0.7194">
        <ele>1617.074951</ele>
        <time>2012-03-24T08:40:52Z</time>
      </trkpt>
      <trkpt lat="42.89785" lon="-0.71952">
        <ele>1620.439453</ele>
        <time>2012-03-24T08:41:07Z</time>
      </trkpt>
      <trkpt lat="42.89785" lon="-0.71956">
        <ele>1622.362061</ele>
        <time>2012-03-24T08:41:25Z</time>
      </trkpt>
      <trkpt lat="42.89786" lon="-0.71967">
        <ele>1627.64917</ele>
        <time>2012-03-24T08:41:34Z</time>
      </trkpt>
      <trkpt lat="42.89785" lon="-0.71981">
        <ele>1629.091309</ele>
        <time>2012-03-24T08:41:51Z</time>
      </trkpt>
      <trkpt lat="42.89785" lon="-0.71989">
        <ele>1631.01416</ele>
        <time>2012-03-24T08:42:08Z</time>
      </trkpt>
      <trkpt lat="42.89786" lon="-0.71997">
        <ele>1633.897949</ele>
        <time>2012-03-24T08:42:20Z</time>
      </trkpt>
      <trkpt lat="42.89786" lon="-0.72013">
        <ele>1637.262451</ele>
        <time>2012-03-24T08:42:37Z</time>
      </trkpt>
      <trkpt lat="42.89786" lon="-0.72015">
        <ele>1637.262451</ele>
        <time>2012-03-24T08:42:40Z</time>
      </trkpt>
      <trkpt lat="42.89781" lon="-0.72034">
        <ele>1638.70459</ele>
        <time>2012-03-24T08:42:57Z</time>
      </trkpt>
      <trkpt lat="42.89781" lon="-0.72036">
        <ele>1639.185059</ele>
        <time>2012-03-24T08:42:59Z</time>
      </trkpt>
      <trkpt lat="42.8978" lon="-0.7205">
        <ele>1643.030273</ele>
        <time>2012-03-24T08:43:18Z</time>
      </trkpt>
      <trkpt lat="42.89779" lon="-0.72062">
        <ele>1647.837158</ele>
        <time>2012-03-24T08:43:35Z</time>
      </trkpt>
      <trkpt lat="42.89779" lon="-0.72063">
        <ele>1647.837158</ele>
        <time>2012-03-24T08:43:36Z</time>
      </trkpt>
      <trkpt lat="42.89775" lon="-0.7208">
        <ele>1649.279053</ele>
        <time>2012-03-24T08:43:52Z</time>
      </trkpt>
      <trkpt lat="42.89772" lon="-0.72091">
        <ele>1651.682373</ele>
        <time>2012-03-24T08:44:05Z</time>
      </trkpt>
      <trkpt lat="42.89765" lon="-0.72098">
        <ele>1653.60498</ele>
        <time>2012-03-24T08:44:23Z</time>
      </trkpt>
      <trkpt lat="42.89762" lon="-0.721">
        <ele>1654.085693</ele>
        <time>2012-03-24T08:44:29Z</time>
      </trkpt>
      <trkpt lat="42.89753" lon="-0.72112">
        <ele>1658.411377</ele>
        <time>2012-03-24T08:44:48Z</time>
      </trkpt>
      <trkpt lat="42.89748" lon="-0.72121">
        <ele>1657.930908</ele>
        <time>2012-03-24T08:44:59Z</time>
      </trkpt>
      <trkpt lat="42.89741" lon="-0.72132">
        <ele>1660.334229</ele>
        <time>2012-03-24T08:45:16Z</time>
      </trkpt>
      <trkpt lat="42.89741" lon="-0.72134">
        <ele>1660.334229</ele>
        <time>2012-03-24T08:45:19Z</time>
      </trkpt>
      <trkpt lat="42.89739" lon="-0.72138">
        <ele>1659.372803</ele>
        <time>2012-03-24T08:45:22Z</time>
      </trkpt>
      <trkpt lat="42.89736" lon="-0.72143">
        <ele>1660.334229</ele>
        <time>2012-03-24T08:45:32Z</time>
      </trkpt>
      <trkpt lat="42.89738" lon="-0.72154">
        <ele>1665.621582</ele>
        <time>2012-03-24T08:45:48Z</time>
      </trkpt>
      <trkpt lat="42.89738" lon="-0.72164">
        <ele>1668.986084</ele>
        <time>2012-03-24T08:46:05Z</time>
      </trkpt>
      <trkpt lat="42.89734" lon="-0.72176">
        <ele>1673.312012</ele>
        <time>2012-03-24T08:46:21Z</time>
      </trkpt>
      <trkpt lat="42.89734" lon="-0.72177">
        <ele>1673.79248</ele>
        <time>2012-03-24T08:46:23Z</time>
      </trkpt>
      <trkpt lat="42.89728" lon="-0.72188">
        <ele>1676.196045</ele>
        <time>2012-03-24T08:46:41Z</time>
      </trkpt>
      <trkpt lat="42.89726" lon="-0.72194">
        <ele>1678.599365</ele>
        <time>2012-03-24T08:46:57Z</time>
      </trkpt>
      <trkpt lat="42.8972" lon="-0.722">
        <ele>1681.483154</ele>
        <time>2012-03-24T08:47:18Z</time>
      </trkpt>
      <trkpt lat="42.89718" lon="-0.72204">
        <ele>1681.963867</ele>
        <time>2012-03-24T08:47:25Z</time>
      </trkpt>
      <trkpt lat="42.89713" lon="-0.72211">
        <ele>1683.886475</ele>
        <time>2012-03-24T08:47:46Z</time>
      </trkpt>
      <trkpt lat="42.89718" lon="-0.72214">
        <ele>1684.367188</ele>
        <time>2012-03-24T08:47:59Z</time>
      </trkpt>
      <trkpt lat="42.89726" lon="-0.72218">
        <ele>1687.731689</ele>
        <time>2012-03-24T08:48:18Z</time>
      </trkpt>
      <trkpt lat="42.89723" lon="-0.72224">
        <ele>1690.615479</ele>
        <time>2012-03-24T08:48:28Z</time>
      </trkpt>
      <trkpt lat="42.89712" lon="-0.72235">
        <ele>1695.903076</ele>
        <time>2012-03-24T08:48:47Z</time>
      </trkpt>
      <trkpt lat="42.89714" lon="-0.72237">
        <ele>1696.864258</ele>
        <time>2012-03-24T08:49:11Z</time>
      </trkpt>
      <trkpt lat="42.89719" lon="-0.72242">
        <ele>1701.670898</ele>
        <time>2012-03-24T08:49:22Z</time>
      </trkpt>
      <trkpt lat="42.89721" lon="-0.72244">
        <ele>1702.151367</ele>
        <time>2012-03-24T08:49:31Z</time>
      </trkpt>
      <trkpt lat="42.8971" lon="-0.7225">
        <ele>1701.670898</ele>
        <time>2012-03-24T08:49:46Z</time>
      </trkpt>
      <trkpt lat="42.89705" lon="-0.72254">
        <ele>1704.074219</ele>
        <time>2012-03-24T08:50:06Z</time>
      </trkpt>
      <trkpt lat="42.89706" lon="-0.72255">
        <ele>1704.554688</ele>
        <time>2012-03-24T08:50:11Z</time>
      </trkpt>
      <trkpt lat="42.89715" lon="-0.72265">
        <ele>1709.842041</ele>
        <time>2012-03-24T08:50:31Z</time>
      </trkpt>
      <trkpt lat="42.89715" lon="-0.72266">
        <ele>1710.322754</ele>
        <time>2012-03-24T08:50:32Z</time>
      </trkpt>
      <trkpt lat="42.89724" lon="-0.7227">
        <ele>1711.28418</ele>
        <time>2012-03-24T08:50:48Z</time>
      </trkpt>
      <trkpt lat="42.89731" lon="-0.72273">
        <ele>1715.129395</ele>
        <time>2012-03-24T08:51:04Z</time>
      </trkpt>
      <trkpt lat="42.89725" lon="-0.72278">
        <ele>1720.416504</ele>
        <time>2012-03-24T08:51:20Z</time>
      </trkpt>
      <trkpt lat="42.89717" lon="-0.72287">
        <ele>1725.703857</ele>
        <time>2012-03-24T08:51:36Z</time>
      </trkpt>
      <trkpt lat="42.89715" lon="-0.72289">
        <ele>1726.18457</ele>
        <time>2012-03-24T08:51:39Z</time>
      </trkpt>
      <trkpt lat="42.89712" lon="-0.72291">
        <ele>1727.145996</ele>
        <time>2012-03-24T08:51:53Z</time>
      </trkpt>
      <trkpt lat="42.89711" lon="-0.72291">
        <ele>1726.18457</ele>
        <time>2012-03-24T08:51:58Z</time>
      </trkpt>
      <trkpt lat="42.89717" lon="-0.72298">
        <ele>1729.549072</ele>
        <time>2012-03-24T08:52:12Z</time>
      </trkpt>
      <trkpt lat="42.89723" lon="-0.72301">
        <ele>1731.952393</ele>
        <time>2012-03-24T08:52:31Z</time>
      </trkpt>
      <trkpt lat="42.89725" lon="-0.72302">
        <ele>1732.913574</ele>
        <time>2012-03-24T08:52:35Z</time>
      </trkpt>
      <trkpt lat="42.89724" lon="-0.72303">
        <ele>1733.875</ele>
        <time>2012-03-24T08:52:40Z</time>
      </trkpt>
      <trkpt lat="42.89713" lon="-0.72309">
        <ele>1732.913574</ele>
        <time>2012-03-24T08:52:56Z</time>
      </trkpt>
      <trkpt lat="42.89712" lon="-0.7231">
        <ele>1734.355713</ele>
        <time>2012-03-24T08:53:29Z</time>
      </trkpt>
      <trkpt lat="42.89716" lon="-0.72312">
        <ele>1736.758789</ele>
        <time>2012-03-24T08:53:37Z</time>
      </trkpt>
      <trkpt lat="42.89724" lon="-0.72315">
        <ele>1739.162109</ele>
        <time>2012-03-24T08:53:53Z</time>
      </trkpt>
      <trkpt lat="42.89729" lon="-0.72317">
        <ele>1741.565674</ele>
        <time>2012-03-24T08:54:10Z</time>
      </trkpt>
      <trkpt lat="42.89734" lon="-0.72318">
        <ele>1742.5271</ele>
        <time>2012-03-24T08:54:26Z</time>
      </trkpt>
      <trkpt lat="42.89736" lon="-0.72319">
        <ele>1742.5271</ele>
        <time>2012-03-24T08:55:20Z</time>
      </trkpt>
      <trkpt lat="42.89746" lon="-0.72323">
        <ele>1746.852783</ele>
        <time>2012-03-24T08:55:32Z</time>
      </trkpt>
      <trkpt lat="42.89751" lon="-0.72324">
        <ele>1747.814209</ele>
        <time>2012-03-24T08:55:43Z</time>
      </trkpt>
      <trkpt lat="42.89745" lon="-0.72334">
        <ele>1750.697998</ele>
        <time>2012-03-24T08:56:01Z</time>
      </trkpt>
      <trkpt lat="42.89739" lon="-0.72349">
        <ele>1757.908203</ele>
        <time>2012-03-24T08:56:18Z</time>
      </trkpt>
      <trkpt lat="42.89738" lon="-0.72352">
        <ele>1760.311279</ele>
        <time>2012-03-24T08:56:25Z</time>
      </trkpt>
      <trkpt lat="42.89748" lon="-0.72358">
        <ele>1761.753418</ele>
        <time>2012-03-24T08:56:41Z</time>
      </trkpt>
      <trkpt lat="42.89755" lon="-0.72362">
        <ele>1763.675781</ele>
        <time>2012-03-24T08:56:54Z</time>
      </trkpt>
      <trkpt lat="42.89757" lon="-0.72364">
        <ele>1763.675781</ele>
        <time>2012-03-24T08:56:57Z</time>
      </trkpt>
      <trkpt lat="42.89765" lon="-0.72373">
        <ele>1766.079102</ele>
        <time>2012-03-24T08:57:13Z</time>
      </trkpt>
      <trkpt lat="42.89768" lon="-0.72376">
        <ele>1766.079102</ele>
        <time>2012-03-24T08:57:17Z</time>
      </trkpt>
      <trkpt lat="42.89774" lon="-0.72384">
        <ele>1769.924316</ele>
        <time>2012-03-24T08:57:32Z</time>
      </trkpt>
      <trkpt lat="42.89782" lon="-0.72398">
        <ele>1774.250488</ele>
        <time>2012-03-24T08:57:49Z</time>
      </trkpt>
      <trkpt lat="42.89786" lon="-0.72403">
        <ele>1776.653809</ele>
        <time>2012-03-24T08:58:03Z</time>
      </trkpt>
      <trkpt lat="42.8979" lon="-0.72413">
        <ele>1781.460205</ele>
        <time>2012-03-24T08:58:18Z</time>
      </trkpt>
      <trkpt lat="42.89797" lon="-0.72426">
        <ele>1784.824951</ele>
        <time>2012-03-24T08:58:34Z</time>
      </trkpt>
      <trkpt lat="42.89798" lon="-0.72427">
        <ele>1784.824951</ele>
        <time>2012-03-24T08:59:00Z</time>
      </trkpt>
      <trkpt lat="42.89798" lon="-0.72427">
        <ele>1785.30542</ele>
        <time>2012-03-24T08:59:48Z</time>
      </trkpt>
      <trkpt lat="42.89798" lon="-0.72428">
        <ele>1785.30542</ele>
        <time>2012-03-24T09:00:12Z</time>
      </trkpt>
      <trkpt lat="42.89804" lon="-0.72438">
        <ele>1785.786133</ele>
        <time>2012-03-24T09:00:28Z</time>
      </trkpt>
      <trkpt lat="42.8981" lon="-0.72446">
        <ele>1788.189697</ele>
        <time>2012-03-24T09:00:44Z</time>
      </trkpt>
      <trkpt lat="42.89812" lon="-0.72448">
        <ele>1788.67041</ele>
        <time>2012-03-24T09:00:48Z</time>
      </trkpt>
      <trkpt lat="42.8982" lon="-0.72459">
        <ele>1790.112305</ele>
        <time>2012-03-24T09:01:04Z</time>
      </trkpt>
      <trkpt lat="42.89824" lon="-0.72463">
        <ele>1791.554199</ele>
        <time>2012-03-24T09:01:11Z</time>
      </trkpt>
      <trkpt lat="42.8983" lon="-0.72468">
        <ele>1794.918701</ele>
        <time>2012-03-24T09:01:25Z</time>
      </trkpt>
      <trkpt lat="42.89834" lon="-0.72476">
        <ele>1795.399414</ele>
        <time>2012-03-24T09:01:42Z</time>
      </trkpt>
      <trkpt lat="42.89841" lon="-0.72485">
        <ele>1800.206055</ele>
        <time>2012-03-24T09:01:57Z</time>
      </trkpt>
      <trkpt lat="42.89844" lon="-0.7249">
        <ele>1801.167236</ele>
        <time>2012-03-24T09:02:09Z</time>
      </trkpt>
      <trkpt lat="42.8985" lon="-0.725">
        <ele>1805.973877</ele>
        <time>2012-03-24T09:02:29Z</time>
      </trkpt>
      <trkpt lat="42.89851" lon="-0.7251">
        <ele>1808.377197</ele>
        <time>2012-03-24T09:02:47Z</time>
      </trkpt>
      <trkpt lat="42.89847" lon="-0.72522">
        <ele>1810.780518</ele>
        <time>2012-03-24T09:03:04Z</time>
      </trkpt>
      <trkpt lat="42.89852" lon="-0.72532">
        <ele>1813.183838</ele>
        <time>2012-03-24T09:03:23Z</time>
      </trkpt>
      <trkpt lat="42.89862" lon="-0.72541">
        <ele>1820.874512</ele>
        <time>2012-03-24T09:03:38Z</time>
      </trkpt>
      <trkpt lat="42.89858" lon="-0.72551">
        <ele>1822.797119</ele>
        <time>2012-03-24T09:03:53Z</time>
      </trkpt>
      <trkpt lat="42.89854" lon="-0.72555">
        <ele>1823.758301</ele>
        <time>2012-03-24T09:03:58Z</time>
      </trkpt>
      <trkpt lat="42.89849" lon="-0.7256">
        <ele>1824.719727</ele>
        <time>2012-03-24T09:04:07Z</time>
      </trkpt>
      <trkpt lat="42.89844" lon="-0.72566">
        <ele>1828.564941</ele>
        <time>2012-03-24T09:04:24Z</time>
      </trkpt>
      <trkpt lat="42.89851" lon="-0.72578">
        <ele>1829.04541</ele>
        <time>2012-03-24T09:04:41Z</time>
      </trkpt>
      <trkpt lat="42.89861" lon="-0.72588">
        <ele>1831.929443</ele>
        <time>2012-03-24T09:04:59Z</time>
      </trkpt>
      <trkpt lat="42.89866" lon="-0.72593">
        <ele>1837.216797</ele>
        <time>2012-03-24T09:05:16Z</time>
      </trkpt>
      <trkpt lat="42.89875" lon="-0.726">
        <ele>1842.984619</ele>
        <time>2012-03-24T09:05:32Z</time>
      </trkpt>
      <trkpt lat="42.89876" lon="-0.726">
        <ele>1843.465332</ele>
        <time>2012-03-24T09:05:34Z</time>
      </trkpt>
      <trkpt lat="42.89883" lon="-0.72606">
        <ele>1848.752441</ele>
        <time>2012-03-24T09:05:51Z</time>
      </trkpt>
      <trkpt lat="42.89886" lon="-0.72609">
        <ele>1851.636475</ele>
        <time>2012-03-24T09:06:03Z</time>
      </trkpt>
      <trkpt lat="42.89889" lon="-0.72611">
        <ele>1852.117188</ele>
        <time>2012-03-24T09:06:06Z</time>
      </trkpt>
      <trkpt lat="42.89901" lon="-0.72614">
        <ele>1854.040039</ele>
        <time>2012-03-24T09:06:24Z</time>
      </trkpt>
      <trkpt lat="42.89912" lon="-0.7262">
        <ele>1859.327148</ele>
        <time>2012-03-24T09:06:41Z</time>
      </trkpt>
      <trkpt lat="42.89913" lon="-0.7262">
        <ele>1860.28833</ele>
        <time>2012-03-24T09:06:43Z</time>
      </trkpt>
      <trkpt lat="42.89914" lon="-0.72621">
        <ele>1861.249756</ele>
        <time>2012-03-24T09:07:04Z</time>
      </trkpt>
      <trkpt lat="42.89914" lon="-0.72621">
        <ele>1861.249756</ele>
        <time>2012-03-24T09:07:07Z</time>
      </trkpt>
      <trkpt lat="42.89912" lon="-0.72623">
        <ele>1861.249756</ele>
        <time>2012-03-24T09:07:10Z</time>
      </trkpt>
      <trkpt lat="42.8991" lon="-0.72625">
        <ele>1861.249756</ele>
        <time>2012-03-24T09:07:13Z</time>
      </trkpt>
      <trkpt lat="42.89904" lon="-0.72638">
        <ele>1862.210938</ele>
        <time>2012-03-24T09:07:28Z</time>
      </trkpt>
      <trkpt lat="42.89901" lon="-0.7264">
        <ele>1863.172363</ele>
        <time>2012-03-24T09:07:32Z</time>
      </trkpt>
      <trkpt lat="42.89899" lon="-0.7264">
        <ele>1864.614258</ele>
        <time>2012-03-24T09:07:55Z</time>
      </trkpt>
      <trkpt lat="42.89892" lon="-0.72641">
        <ele>1866.056152</ele>
        <time>2012-03-24T09:08:06Z</time>
      </trkpt>
      <trkpt lat="42.89888" lon="-0.72638">
        <ele>1867.97876</ele>
        <time>2012-03-24T09:08:20Z</time>
      </trkpt>
      <trkpt lat="42.89887" lon="-0.72652">
        <ele>1871.343506</ele>
        <time>2012-03-24T09:08:34Z</time>
      </trkpt>
      <trkpt lat="42.89886" lon="-0.72653">
        <ele>1871.343506</ele>
        <time>2012-03-24T09:08:35Z</time>
      </trkpt>
      <trkpt lat="42.89879" lon="-0.72663">
        <ele>1877.592041</ele>
        <time>2012-03-24T09:08:52Z</time>
      </trkpt>
      <trkpt lat="42.89882" lon="-0.72665">
        <ele>1878.553467</ele>
        <time>2012-03-24T09:09:01Z</time>
      </trkpt>
      <trkpt lat="42.89889" lon="-0.72666">
        <ele>1878.553467</ele>
        <time>2012-03-24T09:09:07Z</time>
      </trkpt>
      <trkpt lat="42.89895" lon="-0.72667">
        <ele>1880.476074</ele>
        <time>2012-03-24T09:09:23Z</time>
      </trkpt>
      <trkpt lat="42.89894" lon="-0.72669">
        <ele>1882.398682</ele>
        <time>2012-03-24T09:10:12Z</time>
      </trkpt>
      <trkpt lat="42.89889" lon="-0.72677">
        <ele>1884.321533</ele>
        <time>2012-03-24T09:10:26Z</time>
      </trkpt>
      <trkpt lat="42.89882" lon="-0.72686">
        <ele>1886.244141</ele>
        <time>2012-03-24T09:10:36Z</time>
      </trkpt>
      <trkpt lat="42.89873" lon="-0.72696">
        <ele>1889.12793</ele>
        <time>2012-03-24T09:10:55Z</time>
      </trkpt>
      <trkpt lat="42.89869" lon="-0.727">
        <ele>1889.608643</ele>
        <time>2012-03-24T09:11:00Z</time>
      </trkpt>
      <trkpt lat="42.8987" lon="-0.72704">
        <ele>1890.089355</ele>
        <time>2012-03-24T09:11:06Z</time>
      </trkpt>
      <trkpt lat="42.89873" lon="-0.72706">
        <ele>1890.569824</ele>
        <time>2012-03-24T09:11:09Z</time>
      </trkpt>
      <trkpt lat="42.89883" lon="-0.72713">
        <ele>1892.492676</ele>
        <time>2012-03-24T09:11:28Z</time>
      </trkpt>
      <trkpt lat="42.89884" lon="-0.72713">
        <ele>1892.973145</ele>
        <time>2012-03-24T09:11:29Z</time>
      </trkpt>
      <trkpt lat="42.89887" lon="-0.72714">
        <ele>1893.453857</ele>
        <time>2012-03-24T09:11:32Z</time>
      </trkpt>
      <trkpt lat="42.89893" lon="-0.72717">
        <ele>1895.376465</ele>
        <time>2012-03-24T09:11:38Z</time>
      </trkpt>
      <trkpt lat="42.89899" lon="-0.72717">
        <ele>1900.18335</ele>
        <time>2012-03-24T09:11:50Z</time>
      </trkpt>
      <trkpt lat="42.89896" lon="-0.7272">
        <ele>1900.18335</ele>
        <time>2012-03-24T09:11:55Z</time>
      </trkpt>
      <trkpt lat="42.89888" lon="-0.72734">
        <ele>1904.028564</ele>
        <time>2012-03-24T09:12:10Z</time>
      </trkpt>
      <trkpt lat="42.89886" lon="-0.72734">
        <ele>1906.431641</ele>
        <time>2012-03-24T09:12:25Z</time>
      </trkpt>
      <trkpt lat="42.89891" lon="-0.72737">
        <ele>1906.912354</ele>
        <time>2012-03-24T09:12:41Z</time>
      </trkpt>
      <trkpt lat="42.89903" lon="-0.72739">
        <ele>1907.873779</ele>
        <time>2012-03-24T09:13:02Z</time>
      </trkpt>
      <trkpt lat="42.89905" lon="-0.72738">
        <ele>1908.834961</ele>
        <time>2012-03-24T09:13:15Z</time>
      </trkpt>
      <trkpt lat="42.89899" lon="-0.72751">
        <ele>1915.564209</ele>
        <time>2012-03-24T09:13:31Z</time>
      </trkpt>
      <trkpt lat="42.89894" lon="-0.72759">
        <ele>1920.37085</ele>
        <time>2012-03-24T09:13:45Z</time>
      </trkpt>
      <trkpt lat="42.89891" lon="-0.72768">
        <ele>1923.254883</ele>
        <time>2012-03-24T09:13:56Z</time>
      </trkpt>
      <trkpt lat="42.89892" lon="-0.72768">
        <ele>1922.293457</ele>
        <time>2012-03-24T09:14:12Z</time>
      </trkpt>
      <trkpt lat="42.89892" lon="-0.72768">
        <ele>1922.293457</ele>
        <time>2012-03-24T09:14:42Z</time>
      </trkpt>
      <trkpt lat="42.89902" lon="-0.7277">
        <ele>1923.254883</ele>
        <time>2012-03-24T09:14:58Z</time>
      </trkpt>
      <trkpt lat="42.89907" lon="-0.7277">
        <ele>1925.657959</ele>
        <time>2012-03-24T09:15:14Z</time>
      </trkpt>
      <trkpt lat="42.89903" lon="-0.72776">
        <ele>1927.580566</ele>
        <time>2012-03-24T09:15:33Z</time>
      </trkpt>
      <trkpt lat="42.89899" lon="-0.72791">
        <ele>1935.27124</ele>
        <time>2012-03-24T09:15:51Z</time>
      </trkpt>
      <trkpt lat="42.89899" lon="-0.72799">
        <ele>1936.232666</ele>
        <time>2012-03-24T09:16:05Z</time>
      </trkpt>
      <trkpt lat="42.89902" lon="-0.728">
        <ele>1938.155273</ele>
        <time>2012-03-24T09:16:10Z</time>
      </trkpt>
      <trkpt lat="42.8991" lon="-0.728">
        <ele>1942.000488</ele>
        <time>2012-03-24T09:16:25Z</time>
      </trkpt>
      <trkpt lat="42.89916" lon="-0.72799">
        <ele>1944.403564</ele>
        <time>2012-03-24T09:16:42Z</time>
      </trkpt>
      <trkpt lat="42.89928" lon="-0.72795">
        <ele>1945.845703</ele>
        <time>2012-03-24T09:16:57Z</time>
      </trkpt>
      <trkpt lat="42.89931" lon="-0.72794">
        <ele>1945.845703</ele>
        <time>2012-03-24T09:17:16Z</time>
      </trkpt>
      <trkpt lat="42.8993" lon="-0.72794">
        <ele>1945.36499</ele>
        <time>2012-03-24T09:17:48Z</time>
      </trkpt>
      <trkpt lat="42.89931" lon="-0.72795">
        <ele>1944.884277</ele>
        <time>2012-03-24T09:18:11Z</time>
      </trkpt>
      <trkpt lat="42.8993" lon="-0.72802">
        <ele>1946.806885</ele>
        <time>2012-03-24T09:18:21Z</time>
      </trkpt>
      <trkpt lat="42.89929" lon="-0.72806">
        <ele>1947.768311</ele>
        <time>2012-03-24T09:18:24Z</time>
      </trkpt>
      <trkpt lat="42.89925" lon="-0.7282">
        <ele>1946.806885</ele>
        <time>2012-03-24T09:18:44Z</time>
      </trkpt>
      <trkpt lat="42.89923" lon="-0.72829">
        <ele>1949.691162</ele>
        <time>2012-03-24T09:19:02Z</time>
      </trkpt>
      <trkpt lat="42.8992" lon="-0.72843">
        <ele>1954.01709</ele>
        <time>2012-03-24T09:19:19Z</time>
      </trkpt>
      <trkpt lat="42.89917" lon="-0.72855">
        <ele>1953.536377</ele>
        <time>2012-03-24T09:19:42Z</time>
      </trkpt>
      <trkpt lat="42.89916" lon="-0.72864">
        <ele>1956.420166</ele>
        <time>2012-03-24T09:20:07Z</time>
      </trkpt>
      <trkpt lat="42.89918" lon="-0.72865">
        <ele>1956.900879</ele>
        <time>2012-03-24T09:20:22Z</time>
      </trkpt>
      <trkpt lat="42.89923" lon="-0.72865">
        <ele>1959.304199</ele>
        <time>2012-03-24T09:20:31Z</time>
      </trkpt>
      <trkpt lat="42.89927" lon="-0.72865">
        <ele>1961.70752</ele>
        <time>2012-03-24T09:20:46Z</time>
      </trkpt>
      <trkpt lat="42.89925" lon="-0.72871">
        <ele>1961.226807</ele>
        <time>2012-03-24T09:20:56Z</time>
      </trkpt>
      <trkpt lat="42.89923" lon="-0.72875">
        <ele>1960.746094</ele>
        <time>2012-03-24T09:20:59Z</time>
      </trkpt>
      <trkpt lat="42.8992" lon="-0.72888">
        <ele>1962.668701</ele>
        <time>2012-03-24T09:21:16Z</time>
      </trkpt>
      <trkpt lat="42.8992" lon="-0.72893">
        <ele>1963.629883</ele>
        <time>2012-03-24T09:21:20Z</time>
      </trkpt>
      <trkpt lat="42.89921" lon="-0.72903">
        <ele>1969.878662</ele>
        <time>2012-03-24T09:21:36Z</time>
      </trkpt>
      <trkpt lat="42.89922" lon="-0.72905">
        <ele>1971.320557</ele>
        <time>2012-03-24T09:21:38Z</time>
      </trkpt>
      <trkpt lat="42.89923" lon="-0.72918">
        <ele>1973.243408</ele>
        <time>2012-03-24T09:21:50Z</time>
      </trkpt>
      <trkpt lat="42.89924" lon="-0.72919">
        <ele>1973.243408</ele>
        <time>2012-03-24T09:21:52Z</time>
      </trkpt>
      <trkpt lat="42.89924" lon="-0.72922">
        <ele>1973.723877</ele>
        <time>2012-03-24T09:21:56Z</time>
      </trkpt>
      <trkpt lat="42.89926" lon="-0.72932">
        <ele>1975.646484</ele>
        <time>2012-03-24T09:22:16Z</time>
      </trkpt>
      <trkpt lat="42.89926" lon="-0.72933">
        <ele>1976.60791</ele>
        <time>2012-03-24T09:22:17Z</time>
      </trkpt>
      <trkpt lat="42.89928" lon="-0.72947">
        <ele>1978.530518</ele>
        <time>2012-03-24T09:22:35Z</time>
      </trkpt>
      <trkpt lat="42.89929" lon="-0.7295">
        <ele>1979.972412</ele>
        <time>2012-03-24T09:22:41Z</time>
      </trkpt>
      <trkpt lat="42.89932" lon="-0.72961">
        <ele>1984.298584</ele>
        <time>2012-03-24T09:22:51Z</time>
      </trkpt>
      <trkpt lat="42.89933" lon="-0.72969">
        <ele>1985.259766</ele>
        <time>2012-03-24T09:22:58Z</time>
      </trkpt>
      <trkpt lat="42.89934" lon="-0.72971">
        <ele>1985.259766</ele>
        <time>2012-03-24T09:23:00Z</time>
      </trkpt>
      <trkpt lat="42.89937" lon="-0.72982">
        <ele>1985.259766</ele>
        <time>2012-03-24T09:23:12Z</time>
      </trkpt>
      <trkpt lat="42.89937" lon="-0.72985">
        <ele>1985.259766</ele>
        <time>2012-03-24T09:23:14Z</time>
      </trkpt>
      <trkpt lat="42.89938" lon="-0.72987">
        <ele>1985.740479</ele>
        <time>2012-03-24T09:23:16Z</time>
      </trkpt>
      <trkpt lat="42.89939" lon="-0.7299">
        <ele>1985.259766</ele>
        <time>2012-03-24T09:23:19Z</time>
      </trkpt>
      <trkpt lat="42.8994" lon="-0.72994">
        <ele>1985.259766</ele>
        <time>2012-03-24T09:23:23Z</time>
      </trkpt>
      <trkpt lat="42.89941" lon="-0.72998">
        <ele>1986.221191</ele>
        <time>2012-03-24T09:23:28Z</time>
      </trkpt>
      <trkpt lat="42.8994" lon="-0.73007">
        <ele>1987.663086</ele>
        <time>2012-03-24T09:23:47Z</time>
      </trkpt>
      <trkpt lat="42.89933" lon="-0.73015">
        <ele>1993.911621</ele>
        <time>2012-03-24T09:24:03Z</time>
      </trkpt>
      <trkpt lat="42.89931" lon="-0.73018">
        <ele>1995.353516</ele>
        <time>2012-03-24T09:24:46Z</time>
      </trkpt>
      <trkpt lat="42.89924" lon="-0.73023">
        <ele>1995.834229</ele>
        <time>2012-03-24T09:24:59Z</time>
      </trkpt>
      <trkpt lat="42.89918" lon="-0.73031">
        <ele>1997.75708</ele>
        <time>2012-03-24T09:25:14Z</time>
      </trkpt>
      <trkpt lat="42.89912" lon="-0.73037">
        <ele>1998.718262</ele>
        <time>2012-03-24T09:25:28Z</time>
      </trkpt>
      <trkpt lat="42.89911" lon="-0.73037">
        <ele>1998.718262</ele>
        <time>2012-03-24T09:25:32Z</time>
      </trkpt>
      <trkpt lat="42.89905" lon="-0.73046">
        <ele>2000.640869</ele>
        <time>2012-03-24T09:25:51Z</time>
      </trkpt>
      <trkpt lat="42.89898" lon="-0.73057">
        <ele>2002.082764</ele>
        <time>2012-03-24T09:26:04Z</time>
      </trkpt>
      <trkpt lat="42.8989" lon="-0.73062">
        <ele>2000.640869</ele>
        <time>2012-03-24T09:26:24Z</time>
      </trkpt>
      <trkpt lat="42.89888" lon="-0.73065">
        <ele>2002.563477</ele>
        <time>2012-03-24T09:26:56Z</time>
      </trkpt>
      <trkpt lat="42.89878" lon="-0.73069">
        <ele>2006.889404</ele>
        <time>2012-03-24T09:27:15Z</time>
      </trkpt>
      <trkpt lat="42.89867" lon="-0.73073">
        <ele>2014.099365</ele>
        <time>2012-03-24T09:27:31Z</time>
      </trkpt>
      <trkpt lat="42.89855" lon="-0.73072">
        <ele>2017.463867</ele>
        <time>2012-03-24T09:27:46Z</time>
      </trkpt>
      <trkpt lat="42.89847" lon="-0.73069">
        <ele>2018.425293</ele>
        <time>2012-03-24T09:28:05Z</time>
      </trkpt>
      <trkpt lat="42.89847" lon="-0.73067">
        <ele>2019.386719</ele>
        <time>2012-03-24T09:28:12Z</time>
      </trkpt>
      <trkpt lat="42.89841" lon="-0.7306">
        <ele>2020.828613</ele>
        <time>2012-03-24T09:28:26Z</time>
      </trkpt>
      <trkpt lat="42.89844" lon="-0.73063">
        <ele>2021.309082</ele>
        <time>2012-03-24T09:28:55Z</time>
      </trkpt>
      <trkpt lat="42.89846" lon="-0.73071">
        <ele>2021.789795</ele>
        <time>2012-03-24T09:29:10Z</time>
      </trkpt>
      <trkpt lat="42.8985" lon="-0.73087">
        <ele>2024.673828</ele>
        <time>2012-03-24T09:29:22Z</time>
      </trkpt>
      <trkpt lat="42.89855" lon="-0.73102">
        <ele>2025.63501</ele>
        <time>2012-03-24T09:29:37Z</time>
      </trkpt>
      <trkpt lat="42.89856" lon="-0.73105">
        <ele>2025.63501</ele>
        <time>2012-03-24T09:29:43Z</time>
      </trkpt>
      <trkpt lat="42.89859" lon="-0.73106">
        <ele>2026.596436</ele>
        <time>2012-03-24T09:30:01Z</time>
      </trkpt>
      <trkpt lat="42.89858" lon="-0.73109">
        <ele>2027.557617</ele>
        <time>2012-03-24T09:30:17Z</time>
      </trkpt>
      <trkpt lat="42.89856" lon="-0.73118">
        <ele>2032.844971</ele>
        <time>2012-03-24T09:30:33Z</time>
      </trkpt>
      <trkpt lat="42.89854" lon="-0.73121">
        <ele>2032.844971</ele>
        <time>2012-03-24T09:30:36Z</time>
      </trkpt>
      <trkpt lat="42.89851" lon="-0.73132">
        <ele>2032.364502</ele>
        <time>2012-03-24T09:30:55Z</time>
      </trkpt>
      <trkpt lat="42.89853" lon="-0.73134">
        <ele>2034.287109</ele>
        <time>2012-03-24T09:31:00Z</time>
      </trkpt>
      <trkpt lat="42.89854" lon="-0.73136">
        <ele>2035.248291</ele>
        <time>2012-03-24T09:31:02Z</time>
      </trkpt>
      <trkpt lat="42.89856" lon="-0.73139">
        <ele>2036.209717</ele>
        <time>2012-03-24T09:31:06Z</time>
      </trkpt>
      <trkpt lat="42.89858" lon="-0.73149">
        <ele>2036.209717</ele>
        <time>2012-03-24T09:31:20Z</time>
      </trkpt>
      <trkpt lat="42.89856" lon="-0.73156">
        <ele>2037.651611</ele>
        <time>2012-03-24T09:31:39Z</time>
      </trkpt>
      <trkpt lat="42.89851" lon="-0.73165">
        <ele>2042.938721</ele>
        <time>2012-03-24T09:31:56Z</time>
      </trkpt>
      <trkpt lat="42.89848" lon="-0.73175">
        <ele>2046.78418</ele>
        <time>2012-03-24T09:32:05Z</time>
      </trkpt>
      <trkpt lat="42.8984" lon="-0.73183">
        <ele>2046.78418</ele>
        <time>2012-03-24T09:32:24Z</time>
      </trkpt>
      <trkpt lat="42.8984" lon="-0.73183">
        <ele>2046.78418</ele>
        <time>2012-03-24T09:32:25Z</time>
      </trkpt>
      <trkpt lat="42.89838" lon="-0.73184">
        <ele>2047.745605</ele>
        <time>2012-03-24T09:32:43Z</time>
      </trkpt>
      <trkpt lat="42.89838" lon="-0.73185">
        <ele>2048.226074</ele>
        <time>2012-03-24T09:32:46Z</time>
      </trkpt>
      <trkpt lat="42.89846" lon="-0.73194">
        <ele>2050.148926</ele>
        <time>2012-03-24T09:33:00Z</time>
      </trkpt>
      <trkpt lat="42.89852" lon="-0.73199">
        <ele>2052.552002</ele>
        <time>2012-03-24T09:33:21Z</time>
      </trkpt>
      <trkpt lat="42.89853" lon="-0.73199">
        <ele>2053.513428</ele>
        <time>2012-03-24T09:33:23Z</time>
      </trkpt>
      <trkpt lat="42.89861" lon="-0.73196">
        <ele>2055.916504</ele>
        <time>2012-03-24T09:33:37Z</time>
      </trkpt>
      <trkpt lat="42.89861" lon="-0.73196">
        <ele>2055.916504</ele>
        <time>2012-03-24T09:33:53Z</time>
      </trkpt>
      <trkpt lat="42.8986" lon="-0.73199">
        <ele>2056.397217</ele>
        <time>2012-03-24T09:33:57Z</time>
      </trkpt>
      <trkpt lat="42.89859" lon="-0.73203">
        <ele>2057.839355</ele>
        <time>2012-03-24T09:34:00Z</time>
      </trkpt>
      <trkpt lat="42.89855" lon="-0.73213">
        <ele>2059.28125</ele>
        <time>2012-03-24T09:34:18Z</time>
      </trkpt>
      <trkpt lat="42.89851" lon="-0.73215">
        <ele>2063.126709</ele>
        <time>2012-03-24T09:34:34Z</time>
      </trkpt>
      <trkpt lat="42.89852" lon="-0.73216">
        <ele>2063.126709</ele>
        <time>2012-03-24T09:34:38Z</time>
      </trkpt>
      <trkpt lat="42.89855" lon="-0.73218">
        <ele>2063.607178</ele>
        <time>2012-03-24T09:34:42Z</time>
      </trkpt>
      <trkpt lat="42.89863" lon="-0.73217">
        <ele>2066.971924</ele>
        <time>2012-03-24T09:34:56Z</time>
      </trkpt>
      <trkpt lat="42.89864" lon="-0.73217">
        <ele>2066.971924</ele>
        <time>2012-03-24T09:35:02Z</time>
      </trkpt>
      <trkpt lat="42.89865" lon="-0.73217">
        <ele>2067.933105</ele>
        <time>2012-03-24T09:35:18Z</time>
      </trkpt>
      <trkpt lat="42.89865" lon="-0.73217">
        <ele>2067.933105</ele>
        <time>2012-03-24T09:35:30Z</time>
      </trkpt>
      <trkpt lat="42.89861" lon="-0.73227">
        <ele>2070.817139</ele>
        <time>2012-03-24T09:35:48Z</time>
      </trkpt>
      <trkpt lat="42.89854" lon="-0.73235">
        <ele>2076.585205</ele>
        <time>2012-03-24T09:36:03Z</time>
      </trkpt>
      <trkpt lat="42.89854" lon="-0.73235">
        <ele>2077.065918</ele>
        <time>2012-03-24T09:36:04Z</time>
      </trkpt>
      <trkpt lat="42.8985" lon="-0.73235">
        <ele>2077.065918</ele>
        <time>2012-03-24T09:36:07Z</time>
      </trkpt>
      <trkpt lat="42.89846" lon="-0.73234">
        <ele>2077.546387</ele>
        <time>2012-03-24T09:36:23Z</time>
      </trkpt>
      <trkpt lat="42.89837" lon="-0.73253">
        <ele>2079.468994</ele>
        <time>2012-03-24T09:36:49Z</time>
      </trkpt>
      <trkpt lat="42.89837" lon="-0.73254">
        <ele>2079.468994</ele>
        <time>2012-03-24T09:36:50Z</time>
      </trkpt>
      <trkpt lat="42.89836" lon="-0.73257">
        <ele>2079.468994</ele>
        <time>2012-03-24T09:36:53Z</time>
      </trkpt>
      <trkpt lat="42.89833" lon="-0.73268">
        <ele>2084.275635</ele>
        <time>2012-03-24T09:37:10Z</time>
      </trkpt>
      <trkpt lat="42.89832" lon="-0.73283">
        <ele>2083.794922</ele>
        <time>2012-03-24T09:37:28Z</time>
      </trkpt>
      <trkpt lat="42.89834" lon="-0.73292">
        <ele>2087.159424</ele>
        <time>2012-03-24T09:37:44Z</time>
      </trkpt>
      <trkpt lat="42.89835" lon="-0.73296">
        <ele>2088.12085</ele>
        <time>2012-03-24T09:37:47Z</time>
      </trkpt>
      <trkpt lat="42.89835" lon="-0.73304">
        <ele>2088.601562</ele>
        <time>2012-03-24T09:38:02Z</time>
      </trkpt>
      <trkpt lat="42.89835" lon="-0.73304">
        <ele>2088.601562</ele>
        <time>2012-03-24T09:38:36Z</time>
      </trkpt>
      <trkpt lat="42.89836" lon="-0.73306">
        <ele>2088.601562</ele>
        <time>2012-03-24T09:38:54Z</time>
      </trkpt>
      <trkpt lat="42.89837" lon="-0.73307">
        <ele>2089.082031</ele>
        <time>2012-03-24T09:39:07Z</time>
      </trkpt>
      <trkpt lat="42.89837" lon="-0.73307">
        <ele>2089.082031</ele>
        <time>2012-03-24T09:39:49Z</time>
      </trkpt>
      <trkpt lat="42.89837" lon="-0.73307">
        <ele>2089.082031</ele>
        <time>2012-03-24T09:40:07Z</time>
      </trkpt>
      <trkpt lat="42.89837" lon="-0.73306">
        <ele>2088.12085</ele>
        <time>2012-03-24T09:40:26Z</time>
      </trkpt>
      <trkpt lat="42.89837" lon="-0.73306">
        <ele>2087.159424</ele>
        <time>2012-03-24T09:40:41Z</time>
      </trkpt>
      <trkpt lat="42.89838" lon="-0.73304">
        <ele>2086.678711</ele>
        <time>2012-03-24T09:44:54Z</time>
      </trkpt>
      <trkpt lat="42.89838" lon="-0.73304">
        <ele>2089.082031</ele>
        <time>2012-03-24T09:51:43Z</time>
      </trkpt>
      <trkpt lat="42.89838" lon="-0.73304">
        <ele>2088.601562</ele>
        <time>2012-03-24T09:52:47Z</time>
      </trkpt>
      <trkpt lat="42.89839" lon="-0.73304">
        <ele>2089.082031</ele>
        <time>2012-03-24T09:54:13Z</time>
      </trkpt>
      <trkpt lat="42.89839" lon="-0.73304">
        <ele>2089.082031</ele>
        <time>2012-03-24T09:54:42Z</time>
      </trkpt>
      <trkpt lat="42.89839" lon="-0.73304">
        <ele>2088.601562</ele>
        <time>2012-03-24T09:54:58Z</time>
      </trkpt>
      <trkpt lat="42.89836" lon="-0.73307">
        <ele>2089.082031</ele>
        <time>2012-03-24T09:55:14Z</time>
      </trkpt>
      <trkpt lat="42.89837" lon="-0.73307">
        <ele>2089.082031</ele>
        <time>2012-03-24T09:55:31Z</time>
      </trkpt>
      <trkpt lat="42.89837" lon="-0.73307">
        <ele>2088.601562</ele>
        <time>2012-03-24T09:55:55Z</time>
      </trkpt>
      <trkpt lat="42.89836" lon="-0.73306">
        <ele>2088.601562</ele>
        <time>2012-03-24T09:56:24Z</time>
      </trkpt>
      <trkpt lat="42.89839" lon="-0.73311">
        <ele>2088.601562</ele>
        <time>2012-03-24T09:56:36Z</time>
      </trkpt>
      <trkpt lat="42.8985" lon="-0.73312">
        <ele>2089.562744</ele>
        <time>2012-03-24T09:56:47Z</time>
      </trkpt>
      <trkpt lat="42.8986" lon="-0.73311">
        <ele>2091.485352</ele>
        <time>2012-03-24T09:57:03Z</time>
      </trkpt>
      <trkpt lat="42.89863" lon="-0.73311">
        <ele>2093.888916</ele>
        <time>2012-03-24T09:57:15Z</time>
      </trkpt>
      <trkpt lat="42.89868" lon="-0.73312">
        <ele>2095.811523</ele>
        <time>2012-03-24T09:57:30Z</time>
      </trkpt>
      <trkpt lat="42.89873" lon="-0.73313">
        <ele>2095.330811</ele>
        <time>2012-03-24T09:57:39Z</time>
      </trkpt>
      <trkpt lat="42.89876" lon="-0.73314">
        <ele>2095.811523</ele>
        <time>2012-03-24T09:57:42Z</time>
      </trkpt>
      <trkpt lat="42.89887" lon="-0.73314">
        <ele>2097.734131</ele>
        <time>2012-03-24T09:58:00Z</time>
      </trkpt>
      <trkpt lat="42.89896" lon="-0.73315">
        <ele>2101.098633</ele>
        <time>2012-03-24T09:58:16Z</time>
      </trkpt>
      <trkpt lat="42.89904" lon="-0.73319">
        <ele>2102.540527</ele>
        <time>2012-03-24T09:58:36Z</time>
      </trkpt>
      <trkpt lat="42.89913" lon="-0.73323">
        <ele>2105.905029</ele>
        <time>2012-03-24T09:58:51Z</time>
      </trkpt>
      <trkpt lat="42.89916" lon="-0.73319">
        <ele>2108.308594</ele>
        <time>2012-03-24T09:59:08Z</time>
      </trkpt>
      <trkpt lat="42.89916" lon="-0.73309">
        <ele>2109.27002</ele>
        <time>2012-03-24T09:59:18Z</time>
      </trkpt>
      <trkpt lat="42.89917" lon="-0.73306">
        <ele>2109.750488</ele>
        <time>2012-03-24T09:59:20Z</time>
      </trkpt>
      <trkpt lat="42.89916" lon="-0.73304">
        <ele>2110.711914</ele>
        <time>2012-03-24T09:59:22Z</time>
      </trkpt>
      <trkpt lat="42.89916" lon="-0.73302">
        <ele>2111.192627</ele>
        <time>2012-03-24T09:59:24Z</time>
      </trkpt>
      <trkpt lat="42.89919" lon="-0.73299">
        <ele>2113.115234</ele>
        <time>2012-03-24T09:59:31Z</time>
      </trkpt>
      <trkpt lat="42.8992" lon="-0.73299">
        <ele>2113.115234</ele>
        <time>2012-03-24T09:59:33Z</time>
      </trkpt>
      <trkpt lat="42.89926" lon="-0.73302">
        <ele>2118.402344</ele>
        <time>2012-03-24T09:59:47Z</time>
      </trkpt>
      <trkpt lat="42.89933" lon="-0.73307">
        <ele>2118.883057</ele>
        <time>2012-03-24T10:00:01Z</time>
      </trkpt>
      <trkpt lat="42.89937" lon="-0.73312">
        <ele>2123.208984</ele>
        <time>2012-03-24T10:00:17Z</time>
      </trkpt>
      <trkpt lat="42.89937" lon="-0.7331">
        <ele>2123.689453</ele>
        <time>2012-03-24T10:00:22Z</time>
      </trkpt>
      <trkpt lat="42.89935" lon="-0.73305">
        <ele>2125.612305</ele>
        <time>2012-03-24T10:00:39Z</time>
      </trkpt>
      <trkpt lat="42.89933" lon="-0.73297">
        <ele>2126.57373</ele>
        <time>2012-03-24T10:00:54Z</time>
      </trkpt>
      <trkpt lat="42.89935" lon="-0.73296">
        <ele>2129.45752</ele>
        <time>2012-03-24T10:01:10Z</time>
      </trkpt>
      <trkpt lat="42.89936" lon="-0.73297">
        <ele>2130.418945</ele>
        <time>2012-03-24T10:01:54Z</time>
      </trkpt>
      <trkpt lat="42.89936" lon="-0.73296">
        <ele>2130.899658</ele>
        <time>2012-03-24T10:01:58Z</time>
      </trkpt>
      <trkpt lat="42.89936" lon="-0.73291">
        <ele>2132.822021</ele>
        <time>2012-03-24T10:02:13Z</time>
      </trkpt>
      <trkpt lat="42.89936" lon="-0.73292">
        <ele>2132.341553</ele>
        <time>2012-03-24T10:02:28Z</time>
      </trkpt>
      <trkpt lat="42.89937" lon="-0.7329">
        <ele>2133.783447</ele>
        <time>2012-03-24T10:02:51Z</time>
      </trkpt>
      <trkpt lat="42.89937" lon="-0.7329">
        <ele>2134.26416</ele>
        <time>2012-03-24T10:03:12Z</time>
      </trkpt>
      <trkpt lat="42.89937" lon="-0.73291">
        <ele>2134.26416</ele>
        <time>2012-03-24T10:03:25Z</time>
      </trkpt>
      <trkpt lat="42.89939" lon="-0.73289">
        <ele>2136.186768</ele>
        <time>2012-03-24T10:03:40Z</time>
      </trkpt>
      <trkpt lat="42.89942" lon="-0.73292">
        <ele>2136.667236</ele>
        <time>2012-03-24T10:03:52Z</time>
      </trkpt>
      <trkpt lat="42.89943" lon="-0.73292">
        <ele>2137.147949</ele>
        <time>2012-03-24T10:03:54Z</time>
      </trkpt>
      <trkpt lat="42.89948" lon="-0.73298">
        <ele>2140.993408</ele>
        <time>2012-03-24T10:04:10Z</time>
      </trkpt>
      <trkpt lat="42.89948" lon="-0.73299">
        <ele>2140.993408</ele>
        <time>2012-03-24T10:04:11Z</time>
      </trkpt>
      <trkpt lat="42.89951" lon="-0.73303">
        <ele>2141.474121</ele>
        <time>2012-03-24T10:04:30Z</time>
      </trkpt>
      <trkpt lat="42.89956" lon="-0.73298">
        <ele>2142.435547</ele>
        <time>2012-03-24T10:04:53Z</time>
      </trkpt>
      <trkpt lat="42.89957" lon="-0.73296">
        <ele>2143.396729</ele>
        <time>2012-03-24T10:04:56Z</time>
      </trkpt>
      <trkpt lat="42.89956" lon="-0.73291">
        <ele>2144.35791</ele>
        <time>2012-03-24T10:05:12Z</time>
      </trkpt>
      <trkpt lat="42.89956" lon="-0.73291">
        <ele>2144.35791</ele>
        <time>2012-03-24T10:05:24Z</time>
      </trkpt>
      <trkpt lat="42.89957" lon="-0.73279">
        <ele>2145.800049</ele>
        <time>2012-03-24T10:05:41Z</time>
      </trkpt>
      <trkpt lat="42.89957" lon="-0.73277">
        <ele>2147.241943</ele>
        <time>2012-03-24T10:05:43Z</time>
      </trkpt>
      <trkpt lat="42.89961" lon="-0.73266">
        <ele>2149.164551</ele>
        <time>2012-03-24T10:05:58Z</time>
      </trkpt>
      <trkpt lat="42.89961" lon="-0.73266">
        <ele>2149.164551</ele>
        <time>2012-03-24T10:05:59Z</time>
      </trkpt>
      <trkpt lat="42.89972" lon="-0.73274">
        <ele>2150.125977</ele>
        <time>2012-03-24T10:06:17Z</time>
      </trkpt>
      <trkpt lat="42.89974" lon="-0.73275">
        <ele>2151.087158</ele>
        <time>2012-03-24T10:06:35Z</time>
      </trkpt>
      <trkpt lat="42.89975" lon="-0.73275">
        <ele>2151.567871</ele>
        <time>2012-03-24T10:07:10Z</time>
      </trkpt>
      <trkpt lat="42.89976" lon="-0.73273">
        <ele>2151.567871</ele>
        <time>2012-03-24T10:07:16Z</time>
      </trkpt>
      <trkpt lat="42.89975" lon="-0.73266">
        <ele>2151.567871</ele>
        <time>2012-03-24T10:07:22Z</time>
      </trkpt>
      <trkpt lat="42.89975" lon="-0.73258">
        <ele>2153.009766</ele>
        <time>2012-03-24T10:07:40Z</time>
      </trkpt>
      <trkpt lat="42.89974" lon="-0.73251">
        <ele>2153.490479</ele>
        <time>2012-03-24T10:07:57Z</time>
      </trkpt>
      <trkpt lat="42.89972" lon="-0.7324">
        <ele>2154.932373</ele>
        <time>2012-03-24T10:08:15Z</time>
      </trkpt>
      <trkpt lat="42.89972" lon="-0.7324">
        <ele>2154.932373</ele>
        <time>2012-03-24T10:08:17Z</time>
      </trkpt>
      <trkpt lat="42.89973" lon="-0.73231">
        <ele>2159.258545</ele>
        <time>2012-03-24T10:08:30Z</time>
      </trkpt>
      <trkpt lat="42.89978" lon="-0.73223">
        <ele>2163.10376</ele>
        <time>2012-03-24T10:08:44Z</time>
      </trkpt>
      <trkpt lat="42.89984" lon="-0.7322">
        <ele>2165.50708</ele>
        <time>2012-03-24T10:08:58Z</time>
      </trkpt>
      <trkpt lat="42.89991" lon="-0.73221">
        <ele>2168.390869</ele>
        <time>2012-03-24T10:09:11Z</time>
      </trkpt>
      <trkpt lat="42.89993" lon="-0.73224">
        <ele>2170.313477</ele>
        <time>2012-03-24T10:09:30Z</time>
      </trkpt>
      <trkpt lat="42.89996" lon="-0.73227">
        <ele>2172.236328</ele>
        <time>2012-03-24T10:09:59Z</time>
      </trkpt>
      <trkpt lat="42.89997" lon="-0.73229">
        <ele>2173.678223</ele>
        <time>2012-03-24T10:10:18Z</time>
      </trkpt>
      <trkpt lat="42.89999" lon="-0.73231">
        <ele>2173.678223</ele>
        <time>2012-03-24T10:10:36Z</time>
      </trkpt>
      <trkpt lat="42.90001" lon="-0.73236">
        <ele>2174.639648</ele>
        <time>2012-03-24T10:10:53Z</time>
      </trkpt>
      <trkpt lat="42.90001" lon="-0.7324">
        <ele>2174.158936</ele>
        <time>2012-03-24T10:11:22Z</time>
      </trkpt>
      <trkpt lat="42.90002" lon="-0.73239">
        <ele>2174.639648</ele>
        <time>2012-03-24T10:11:30Z</time>
      </trkpt>
      <trkpt lat="42.90004" lon="-0.7323">
        <ele>2175.60083</ele>
        <time>2012-03-24T10:11:46Z</time>
      </trkpt>
      <trkpt lat="42.90005" lon="-0.73228">
        <ele>2177.042969</ele>
        <time>2012-03-24T10:12:05Z</time>
      </trkpt>
      <trkpt lat="42.90007" lon="-0.73223">
        <ele>2178.965332</ele>
        <time>2012-03-24T10:12:14Z</time>
      </trkpt>
      <trkpt lat="42.90011" lon="-0.73217">
        <ele>2180.888184</ele>
        <time>2012-03-24T10:12:29Z</time>
      </trkpt>
      <trkpt lat="42.90012" lon="-0.73214">
        <ele>2182.330078</ele>
        <time>2012-03-24T10:12:32Z</time>
      </trkpt>
      <trkpt lat="42.90012" lon="-0.7321">
        <ele>2182.330078</ele>
        <time>2012-03-24T10:12:51Z</time>
      </trkpt>
      <trkpt lat="42.90012" lon="-0.7321">
        <ele>2182.330078</ele>
        <time>2012-03-24T10:13:28Z</time>
      </trkpt>
      <trkpt lat="42.90013" lon="-0.73205">
        <ele>2183.29126</ele>
        <time>2012-03-24T10:13:49Z</time>
      </trkpt>
      <trkpt lat="42.90014" lon="-0.73204">
        <ele>2183.771973</ele>
        <time>2012-03-24T10:14:08Z</time>
      </trkpt>
      <trkpt lat="42.90015" lon="-0.73196">
        <ele>2187.136475</ele>
        <time>2012-03-24T10:14:23Z</time>
      </trkpt>
      <trkpt lat="42.9002" lon="-0.73197">
        <ele>2190.501221</ele>
        <time>2012-03-24T10:14:39Z</time>
      </trkpt>
      <trkpt lat="42.90022" lon="-0.732">
        <ele>2190.981934</ele>
        <time>2012-03-24T10:14:43Z</time>
      </trkpt>
      <trkpt lat="42.90027" lon="-0.73193">
        <ele>2194.346436</ele>
        <time>2012-03-24T10:15:00Z</time>
      </trkpt>
      <trkpt lat="42.90037" lon="-0.73183">
        <ele>2197.711182</ele>
        <time>2012-03-24T10:15:16Z</time>
      </trkpt>
      <trkpt lat="42.90038" lon="-0.73184">
        <ele>2198.672363</ele>
        <time>2012-03-24T10:15:36Z</time>
      </trkpt>
      <trkpt lat="42.90037" lon="-0.73183">
        <ele>2198.672363</ele>
        <time>2012-03-24T10:16:03Z</time>
      </trkpt>
      <trkpt lat="42.90039" lon="-0.73186">
        <ele>2198.672363</ele>
        <time>2012-03-24T10:16:30Z</time>
      </trkpt>
      <trkpt lat="42.90039" lon="-0.73186">
        <ele>2198.672363</ele>
        <time>2012-03-24T10:16:32Z</time>
      </trkpt>
      <trkpt lat="42.90039" lon="-0.73191">
        <ele>2198.672363</ele>
        <time>2012-03-24T10:16:47Z</time>
      </trkpt>
      <trkpt lat="42.9004" lon="-0.73194">
        <ele>2198.672363</ele>
        <time>2012-03-24T10:16:50Z</time>
      </trkpt>
      <trkpt lat="42.90043" lon="-0.73201">
        <ele>2199.633789</ele>
        <time>2012-03-24T10:16:57Z</time>
      </trkpt>
      <trkpt lat="42.90046" lon="-0.73211">
        <ele>2203.959717</ele>
        <time>2012-03-24T10:17:12Z</time>
      </trkpt>
      <trkpt lat="42.90049" lon="-0.73214">
        <ele>2202.998291</ele>
        <time>2012-03-24T10:17:16Z</time>
      </trkpt>
      <trkpt lat="42.90052" lon="-0.7322">
        <ele>2204.921143</ele>
        <time>2012-03-24T10:17:35Z</time>
      </trkpt>
      <trkpt lat="42.90053" lon="-0.73221">
        <ele>2204.921143</ele>
        <time>2012-03-24T10:17:51Z</time>
      </trkpt>
      <trkpt lat="42.90061" lon="-0.73227">
        <ele>2205.882324</ele>
        <time>2012-03-24T10:18:08Z</time>
      </trkpt>
      <trkpt lat="42.90063" lon="-0.73228">
        <ele>2208.766357</ele>
        <time>2012-03-24T10:18:14Z</time>
      </trkpt>
      <trkpt lat="42.90072" lon="-0.73232">
        <ele>2211.650391</ele>
        <time>2012-03-24T10:18:31Z</time>
      </trkpt>
      <trkpt lat="42.9008" lon="-0.73237">
        <ele>2214.53418</ele>
        <time>2012-03-24T10:18:51Z</time>
      </trkpt>
      <trkpt lat="42.90092" lon="-0.73246">
        <ele>2215.495605</ele>
        <time>2012-03-24T10:19:08Z</time>
      </trkpt>
      <trkpt lat="42.90103" lon="-0.73254">
        <ele>2217.898682</ele>
        <time>2012-03-24T10:19:33Z</time>
      </trkpt>
      <trkpt lat="42.90104" lon="-0.73255">
        <ele>2217.898682</ele>
        <time>2012-03-24T10:19:35Z</time>
      </trkpt>
      <trkpt lat="42.90109" lon="-0.73258">
        <ele>2219.821289</ele>
        <time>2012-03-24T10:19:42Z</time>
      </trkpt>
      <trkpt lat="42.90116" lon="-0.73264">
        <ele>2223.666748</ele>
        <time>2012-03-24T10:19:57Z</time>
      </trkpt>
      <trkpt lat="42.90119" lon="-0.7327">
        <ele>2229.43457</ele>
        <time>2012-03-24T10:20:11Z</time>
      </trkpt>
      <trkpt lat="42.90128" lon="-0.73278">
        <ele>2232.318604</ele>
        <time>2012-03-24T10:20:26Z</time>
      </trkpt>
      <trkpt lat="42.90132" lon="-0.73281">
        <ele>2231.357178</ele>
        <time>2012-03-24T10:20:46Z</time>
      </trkpt>
      <trkpt lat="42.90138" lon="-0.73286">
        <ele>2236.644531</ele>
        <time>2012-03-24T10:21:03Z</time>
      </trkpt>
      <trkpt lat="42.90144" lon="-0.73291">
        <ele>2240.970459</ele>
        <time>2012-03-24T10:21:20Z</time>
      </trkpt>
      <trkpt lat="42.90146" lon="-0.73287">
        <ele>2244.334961</ele>
        <time>2012-03-24T10:21:39Z</time>
      </trkpt>
      <trkpt lat="42.90146" lon="-0.73273">
        <ele>2246.257812</ele>
        <time>2012-03-24T10:21:56Z</time>
      </trkpt>
      <trkpt lat="42.90145" lon="-0.73266">
        <ele>2248.660889</ele>
        <time>2012-03-24T10:22:22Z</time>
      </trkpt>
      <trkpt lat="42.90145" lon="-0.73266">
        <ele>2248.660889</ele>
        <time>2012-03-24T10:23:20Z</time>
      </trkpt>
      <trkpt lat="42.90145" lon="-0.73248">
        <ele>2251.064209</ele>
        <time>2012-03-24T10:23:36Z</time>
      </trkpt>
      <trkpt lat="42.9015" lon="-0.73251">
        <ele>2252.025635</ele>
        <time>2012-03-24T10:23:55Z</time>
      </trkpt>
      <trkpt lat="42.90156" lon="-0.73257">
        <ele>2256.832275</ele>
        <time>2012-03-24T10:24:24Z</time>
      </trkpt>
      <trkpt lat="42.90157" lon="-0.73255">
        <ele>2258.27417</ele>
        <time>2012-03-24T10:24:42Z</time>
      </trkpt>
      <trkpt lat="42.90157" lon="-0.73241">
        <ele>2261.638916</ele>
        <time>2012-03-24T10:24:57Z</time>
      </trkpt>
      <trkpt lat="42.90157" lon="-0.73235">
        <ele>2264.041992</ele>
        <time>2012-03-24T10:25:11Z</time>
      </trkpt>
      <trkpt lat="42.90158" lon="-0.73229">
        <ele>2264.522705</ele>
        <time>2012-03-24T10:25:33Z</time>
      </trkpt>
      <trkpt lat="42.90164" lon="-0.73232">
        <ele>2264.041992</ele>
        <time>2012-03-24T10:25:52Z</time>
      </trkpt>
      <trkpt lat="42.90166" lon="-0.73234">
        <ele>2267.406494</ele>
        <time>2012-03-24T10:26:00Z</time>
      </trkpt>
      <trkpt lat="42.90176" lon="-0.73247">
        <ele>2267.887207</ele>
        <time>2012-03-24T10:26:21Z</time>
      </trkpt>
      <trkpt lat="42.90177" lon="-0.73248">
        <ele>2269.32959</ele>
        <time>2012-03-24T10:26:33Z</time>
      </trkpt>
      <trkpt lat="42.90179" lon="-0.73238">
        <ele>2271.732666</ele>
        <time>2012-03-24T10:26:49Z</time>
      </trkpt>
      <trkpt lat="42.9018" lon="-0.73228">
        <ele>2277.500488</ele>
        <time>2012-03-24T10:27:09Z</time>
      </trkpt>
      <trkpt lat="42.9018" lon="-0.73227">
        <ele>2277.500488</ele>
        <time>2012-03-24T10:27:17Z</time>
      </trkpt>
      <trkpt lat="42.90181" lon="-0.73227">
        <ele>2279.423096</ele>
        <time>2012-03-24T10:27:25Z</time>
      </trkpt>
      <trkpt lat="42.90188" lon="-0.73236">
        <ele>2281.826416</ele>
        <time>2012-03-24T10:27:43Z</time>
      </trkpt>
      <trkpt lat="42.90193" lon="-0.73245">
        <ele>2286.633057</ele>
        <time>2012-03-24T10:28:04Z</time>
      </trkpt>
      <trkpt lat="42.902" lon="-0.73255">
        <ele>2288.555908</ele>
        <time>2012-03-24T10:28:20Z</time>
      </trkpt>
      <trkpt lat="42.902" lon="-0.73254">
        <ele>2288.555908</ele>
        <time>2012-03-24T10:28:36Z</time>
      </trkpt>
      <trkpt lat="42.902" lon="-0.73248">
        <ele>2289.997803</ele>
        <time>2012-03-24T10:29:11Z</time>
      </trkpt>
      <trkpt lat="42.902" lon="-0.73246">
        <ele>2290.478271</ele>
        <time>2012-03-24T10:29:41Z</time>
      </trkpt>
      <trkpt lat="42.90201" lon="-0.73233">
        <ele>2292.401123</ele>
        <time>2012-03-24T10:29:58Z</time>
      </trkpt>
      <trkpt lat="42.90204" lon="-0.73219">
        <ele>2294.804199</ele>
        <time>2012-03-24T10:30:14Z</time>
      </trkpt>
      <trkpt lat="42.90206" lon="-0.73223">
        <ele>2296.246338</ele>
        <time>2012-03-24T10:30:35Z</time>
      </trkpt>
      <trkpt lat="42.90208" lon="-0.73225">
        <ele>2297.688232</ele>
        <time>2012-03-24T10:30:41Z</time>
      </trkpt>
      <trkpt lat="42.90215" lon="-0.73236">
        <ele>2301.052979</ele>
        <time>2012-03-24T10:30:58Z</time>
      </trkpt>
      <trkpt lat="42.9022" lon="-0.73249">
        <ele>2304.898193</ele>
        <time>2012-03-24T10:31:17Z</time>
      </trkpt>
      <trkpt lat="42.90225" lon="-0.73261">
        <ele>2308.262695</ele>
        <time>2012-03-24T10:31:36Z</time>
      </trkpt>
      <trkpt lat="42.90231" lon="-0.7327">
        <ele>2312.10791</ele>
        <time>2012-03-24T10:31:52Z</time>
      </trkpt>
      <trkpt lat="42.90235" lon="-0.73276">
        <ele>2314.51123</ele>
        <time>2012-03-24T10:32:13Z</time>
      </trkpt>
      <trkpt lat="42.90236" lon="-0.73278">
        <ele>2315.472656</ele>
        <time>2012-03-24T10:32:57Z</time>
      </trkpt>
      <trkpt lat="42.90237" lon="-0.73277">
        <ele>2315.953125</ele>
        <time>2012-03-24T10:33:20Z</time>
      </trkpt>
      <trkpt lat="42.90237" lon="-0.73273">
        <ele>2317.395264</ele>
        <time>2012-03-24T10:33:38Z</time>
      </trkpt>
      <trkpt lat="42.90237" lon="-0.73262">
        <ele>2318.837402</ele>
        <time>2012-03-24T10:33:55Z</time>
      </trkpt>
      <trkpt lat="42.9024" lon="-0.73268">
        <ele>2320.279297</ele>
        <time>2012-03-24T10:34:15Z</time>
      </trkpt>
      <trkpt lat="42.90244" lon="-0.73276">
        <ele>2323.643799</ele>
        <time>2012-03-24T10:34:31Z</time>
      </trkpt>
      <trkpt lat="42.90252" lon="-0.73288">
        <ele>2327.489014</ele>
        <time>2012-03-24T10:34:54Z</time>
      </trkpt>
      <trkpt lat="42.90253" lon="-0.73291">
        <ele>2328.450439</ele>
        <time>2012-03-24T10:35:28Z</time>
      </trkpt>
      <trkpt lat="42.90258" lon="-0.733">
        <ele>2329.411621</ele>
        <time>2012-03-24T10:35:51Z</time>
      </trkpt>
      <trkpt lat="42.9026" lon="-0.73304">
        <ele>2329.411621</ele>
        <time>2012-03-24T10:36:03Z</time>
      </trkpt>
      <trkpt lat="42.90265" lon="-0.73308">
        <ele>2329.411621</ele>
        <time>2012-03-24T10:36:22Z</time>
      </trkpt>
      <trkpt lat="42.90271" lon="-0.73315">
        <ele>2329.411621</ele>
        <time>2012-03-24T10:36:36Z</time>
      </trkpt>
      <trkpt lat="42.90274" lon="-0.7332">
        <ele>2330.373047</ele>
        <time>2012-03-24T10:37:09Z</time>
      </trkpt>
      <trkpt lat="42.90278" lon="-0.73324">
        <ele>2330.85376</ele>
        <time>2012-03-24T10:37:25Z</time>
      </trkpt>
      <trkpt lat="42.90281" lon="-0.73329">
        <ele>2333.25708</ele>
        <time>2012-03-24T10:37:42Z</time>
      </trkpt>
      <trkpt lat="42.90281" lon="-0.73329">
        <ele>2333.25708</ele>
        <time>2012-03-24T10:38:13Z</time>
      </trkpt>
      <trkpt lat="42.9028" lon="-0.73325">
        <ele>2334.218506</ele>
        <time>2012-03-24T10:38:40Z</time>
      </trkpt>
      <trkpt lat="42.90277" lon="-0.73309">
        <ele>2335.179688</ele>
        <time>2012-03-24T10:38:59Z</time>
      </trkpt>
      <trkpt lat="42.90276" lon="-0.73304">
        <ele>2336.621582</ele>
        <time>2012-03-24T10:39:08Z</time>
      </trkpt>
      <trkpt lat="42.90271" lon="-0.73286">
        <ele>2337.102295</ele>
        <time>2012-03-24T10:39:26Z</time>
      </trkpt>
      <trkpt lat="42.90271" lon="-0.73274">
        <ele>2339.024902</ele>
        <time>2012-03-24T10:39:39Z</time>
      </trkpt>
      <trkpt lat="42.9027" lon="-0.7327">
        <ele>2340.466797</ele>
        <time>2012-03-24T10:39:56Z</time>
      </trkpt>
      <trkpt lat="42.90272" lon="-0.73272">
        <ele>2342.389648</ele>
        <time>2012-03-24T10:40:19Z</time>
      </trkpt>
      <trkpt lat="42.9028" lon="-0.73284">
        <ele>2343.35083</ele>
        <time>2012-03-24T10:40:36Z</time>
      </trkpt>
      <trkpt lat="42.90284" lon="-0.73292">
        <ele>2342.870117</ele>
        <time>2012-03-24T10:40:44Z</time>
      </trkpt>
      <trkpt lat="42.90287" lon="-0.73296">
        <ele>2342.870117</ele>
        <time>2012-03-24T10:40:49Z</time>
      </trkpt>
      <trkpt lat="42.9029" lon="-0.73302">
        <ele>2343.35083</ele>
        <time>2012-03-24T10:40:55Z</time>
      </trkpt>
      <trkpt lat="42.90295" lon="-0.73312">
        <ele>2348.157471</ele>
        <time>2012-03-24T10:41:12Z</time>
      </trkpt>
      <trkpt lat="42.90297" lon="-0.73314">
        <ele>2348.157471</ele>
        <time>2012-03-24T10:41:15Z</time>
      </trkpt>
      <trkpt lat="42.90304" lon="-0.73319">
        <ele>2350.560791</ele>
        <time>2012-03-24T10:41:32Z</time>
      </trkpt>
      <trkpt lat="42.90304" lon="-0.73316">
        <ele>2351.522217</ele>
        <time>2012-03-24T10:41:35Z</time>
      </trkpt>
      <trkpt lat="42.90303" lon="-0.73309">
        <ele>2352.002686</ele>
        <time>2012-03-24T10:41:49Z</time>
      </trkpt>
      <trkpt lat="42.90303" lon="-0.73308">
        <ele>2352.483398</ele>
        <time>2012-03-24T10:42:11Z</time>
      </trkpt>
      <trkpt lat="42.90303" lon="-0.73309">
        <ele>2352.964111</ele>
        <time>2012-03-24T10:42:33Z</time>
      </trkpt>
      <trkpt lat="42.90303" lon="-0.7331">
        <ele>2352.964111</ele>
        <time>2012-03-24T10:42:58Z</time>
      </trkpt>
      <trkpt lat="42.90303" lon="-0.7331">
        <ele>2352.964111</ele>
        <time>2012-03-24T10:43:59Z</time>
      </trkpt>
      <trkpt lat="42.90303" lon="-0.7331">
        <ele>2353.444824</ele>
        <time>2012-03-24T10:44:17Z</time>
      </trkpt>
      <trkpt lat="42.90303" lon="-0.7331">
        <ele>2353.444824</ele>
        <time>2012-03-24T10:45:00Z</time>
      </trkpt>
      <trkpt lat="42.90304" lon="-0.73309">
        <ele>2353.444824</ele>
        <time>2012-03-24T10:47:46Z</time>
      </trkpt>
      <trkpt lat="42.90303" lon="-0.73307">
        <ele>2354.886719</ele>
        <time>2012-03-24T10:48:27Z</time>
      </trkpt>
      <trkpt lat="42.90302" lon="-0.73301">
        <ele>2355.8479</ele>
        <time>2012-03-24T10:48:32Z</time>
      </trkpt>
      <trkpt lat="42.903" lon="-0.73288">
        <ele>2357.290039</ele>
        <time>2012-03-24T10:48:52Z</time>
      </trkpt>
      <trkpt lat="42.903" lon="-0.73281">
        <ele>2358.731934</ele>
        <time>2012-03-24T10:49:00Z</time>
      </trkpt>
      <trkpt lat="42.90297" lon="-0.73272">
        <ele>2361.135254</ele>
        <time>2012-03-24T10:49:15Z</time>
      </trkpt>
      <trkpt lat="42.90296" lon="-0.73268">
        <ele>2361.615967</ele>
        <time>2012-03-24T10:49:27Z</time>
      </trkpt>
      <trkpt lat="42.90297" lon="-0.73262">
        <ele>2362.096436</ele>
        <time>2012-03-24T10:49:44Z</time>
      </trkpt>
      <trkpt lat="42.90298" lon="-0.73261">
        <ele>2362.096436</ele>
        <time>2012-03-24T10:50:09Z</time>
      </trkpt>
      <trkpt lat="42.90298" lon="-0.73261">
        <ele>2362.577148</ele>
        <time>2012-03-24T10:50:38Z</time>
      </trkpt>
      <trkpt lat="42.90298" lon="-0.73261">
        <ele>2362.577148</ele>
        <time>2012-03-24T10:51:13Z</time>
      </trkpt>
      <trkpt lat="42.90298" lon="-0.73261">
        <ele>2361.615967</ele>
        <time>2012-03-24T10:53:22Z</time>
      </trkpt>
      <trkpt lat="42.90297" lon="-0.7326">
        <ele>2361.135254</ele>
        <time>2012-03-24T10:59:34Z</time>
      </trkpt>
      <trkpt lat="42.90297" lon="-0.7326">
        <ele>2360.654541</ele>
        <time>2012-03-24T11:01:14Z</time>
      </trkpt>
      <trkpt lat="42.90295" lon="-0.7326">
        <ele>2359.693115</ele>
        <time>2012-03-24T11:01:35Z</time>
      </trkpt>
      <trkpt lat="42.90295" lon="-0.73261">
        <ele>2359.693115</ele>
        <time>2012-03-24T11:02:33Z</time>
      </trkpt>
      <trkpt lat="42.90295" lon="-0.73261">
        <ele>2359.212646</ele>
        <time>2012-03-24T11:03:06Z</time>
      </trkpt>
      <trkpt lat="42.90295" lon="-0.73262">
        <ele>2359.212646</ele>
        <time>2012-03-24T11:03:36Z</time>
      </trkpt>
      <trkpt lat="42.90295" lon="-0.73262">
        <ele>2359.212646</ele>
        <time>2012-03-24T11:04:05Z</time>
      </trkpt>
      <trkpt lat="42.90298" lon="-0.73263">
        <ele>2362.577148</ele>
        <time>2012-03-24T11:25:25Z</time>
      </trkpt>
      <trkpt lat="42.90298" lon="-0.73263">
        <ele>2363.057861</ele>
        <time>2012-03-24T11:25:56Z</time>
      </trkpt>
      <trkpt lat="42.90298" lon="-0.73263">
        <ele>2363.057861</ele>
        <time>2012-03-24T11:26:35Z</time>
      </trkpt>
      <trkpt lat="42.90297" lon="-0.73264">
        <ele>2363.53833</ele>
        <time>2012-03-24T11:27:05Z</time>
      </trkpt>
      <trkpt lat="42.90298" lon="-0.73264">
        <ele>2363.53833</ele>
        <time>2012-03-24T11:28:09Z</time>
      </trkpt>
      <trkpt lat="42.90297" lon="-0.73265">
        <ele>2364.019287</ele>
        <time>2012-03-24T11:29:11Z</time>
      </trkpt>
      <trkpt lat="42.90298" lon="-0.73265">
        <ele>2364.019287</ele>
        <time>2012-03-24T11:29:24Z</time>
      </trkpt>
      <trkpt lat="42.90298" lon="-0.73265">
        <ele>2364.5</ele>
        <time>2012-03-24T11:30:02Z</time>
      </trkpt>
      <trkpt lat="42.90299" lon="-0.73264">
        <ele>2364.5</ele>
        <time>2012-03-24T11:30:16Z</time>
      </trkpt>
      <trkpt lat="42.90298" lon="-0.73265">
        <ele>2364.980713</ele>
        <time>2012-03-24T11:30:41Z</time>
      </trkpt>
      <trkpt lat="42.90298" lon="-0.73264">
        <ele>2364.980713</ele>
        <time>2012-03-24T11:31:01Z</time>
      </trkpt>
      <trkpt lat="42.90298" lon="-0.73264">
        <ele>2364.5</ele>
        <time>2012-03-24T11:31:25Z</time>
      </trkpt>
      <trkpt lat="42.90298" lon="-0.73264">
        <ele>2364.980713</ele>
        <time>2012-03-24T11:31:45Z</time>
      </trkpt>
      <trkpt lat="42.90299" lon="-0.73267">
        <ele>2365.461426</ele>
        <time>2012-03-24T11:32:07Z</time>
      </trkpt>
      <trkpt lat="42.90299" lon="-0.73277">
        <ele>2362.096436</ele>
        <time>2012-03-24T11:32:22Z</time>
      </trkpt>
      <trkpt lat="42.903" lon="-0.73285">
        <ele>2362.096436</ele>
        <time>2012-03-24T11:32:32Z</time>
      </trkpt>
      <trkpt lat="42.90301" lon="-0.73298">
        <ele>2358.731934</ele>
        <time>2012-03-24T11:32:47Z</time>
      </trkpt>
      <trkpt lat="42.90302" lon="-0.73304">
        <ele>2357.770752</ele>
        <time>2012-03-24T11:32:52Z</time>
      </trkpt>
      <trkpt lat="42.90304" lon="-0.73312">
        <ele>2357.770752</ele>
        <time>2012-03-24T11:33:08Z</time>
      </trkpt>
      <trkpt lat="42.90304" lon="-0.73313">
        <ele>2357.290039</ele>
        <time>2012-03-24T11:33:27Z</time>
      </trkpt>
      <trkpt lat="42.90304" lon="-0.73313">
        <ele>2357.770752</ele>
        <time>2012-03-24T11:33:49Z</time>
      </trkpt>
      <trkpt lat="42.90304" lon="-0.73312">
        <ele>2357.770752</ele>
        <time>2012-03-24T11:34:14Z</time>
      </trkpt>
      <trkpt lat="42.90304" lon="-0.73312">
        <ele>2357.770752</ele>
        <time>2012-03-24T11:34:35Z</time>
      </trkpt>
      <trkpt lat="42.90299" lon="-0.73316">
        <ele>2355.367432</ele>
        <time>2012-03-24T11:34:50Z</time>
      </trkpt>
      <trkpt lat="42.90288" lon="-0.73305">
        <ele>2351.041504</ele>
        <time>2012-03-24T11:35:12Z</time>
      </trkpt>
      <trkpt lat="42.90284" lon="-0.73303">
        <ele>2350.560791</ele>
        <time>2012-03-24T11:35:21Z</time>
      </trkpt>
      <trkpt lat="42.90281" lon="-0.73315">
        <ele>2342.870117</ele>
        <time>2012-03-24T11:35:33Z</time>
      </trkpt>
      <trkpt lat="42.90278" lon="-0.73333">
        <ele>2336.141113</ele>
        <time>2012-03-24T11:35:53Z</time>
      </trkpt>
      <trkpt lat="42.90275" lon="-0.73338">
        <ele>2331.814941</ele>
        <time>2012-03-24T11:35:59Z</time>
      </trkpt>
      <trkpt lat="42.90267" lon="-0.73336">
        <ele>2326.527832</ele>
        <time>2012-03-24T11:36:06Z</time>
      </trkpt>
      <trkpt lat="42.90257" lon="-0.73336">
        <ele>2319.798584</ele>
        <time>2012-03-24T11:36:17Z</time>
      </trkpt>
      <trkpt lat="42.90249" lon="-0.73325">
        <ele>2317.395264</ele>
        <time>2012-03-24T11:36:24Z</time>
      </trkpt>
      <trkpt lat="42.90247" lon="-0.73323">
        <ele>2316.914795</ele>
        <time>2012-03-24T11:36:26Z</time>
      </trkpt>
      <trkpt lat="42.90243" lon="-0.73326">
        <ele>2312.10791</ele>
        <time>2012-03-24T11:36:36Z</time>
      </trkpt>
      <trkpt lat="42.90242" lon="-0.73326">
        <ele>2312.10791</ele>
        <time>2012-03-24T11:36:37Z</time>
      </trkpt>
      <trkpt lat="42.90233" lon="-0.73316">
        <ele>2307.782227</ele>
        <time>2012-03-24T11:36:44Z</time>
      </trkpt>
      <trkpt lat="42.90221" lon="-0.73283">
        <ele>2305.859375</ele>
        <time>2012-03-24T11:37:03Z</time>
      </trkpt>
      <trkpt lat="42.90211" lon="-0.73254">
        <ele>2301.533691</ele>
        <time>2012-03-24T11:37:17Z</time>
      </trkpt>
      <trkpt lat="42.90207" lon="-0.73241">
        <ele>2299.130127</ele>
        <time>2012-03-24T11:37:21Z</time>
      </trkpt>
      <trkpt lat="42.90198" lon="-0.73243">
        <ele>2290.478271</ele>
        <time>2012-03-24T11:37:30Z</time>
      </trkpt>
      <trkpt lat="42.90197" lon="-0.73241">
        <ele>2289.997803</ele>
        <time>2012-03-24T11:37:32Z</time>
      </trkpt>
      <trkpt lat="42.90189" lon="-0.73244">
        <ele>2283.268311</ele>
        <time>2012-03-24T11:37:43Z</time>
      </trkpt>
      <trkpt lat="42.90188" lon="-0.73242">
        <ele>2282.787598</ele>
        <time>2012-03-24T11:38:13Z</time>
      </trkpt>
      <trkpt lat="42.90186" lon="-0.7324">
        <ele>2281.826416</ele>
        <time>2012-03-24T11:38:14Z</time>
      </trkpt>
      <trkpt lat="42.90178" lon="-0.73241">
        <ele>2276.539307</ele>
        <time>2012-03-24T11:38:19Z</time>
      </trkpt>
      <trkpt lat="42.90174" lon="-0.73233">
        <ele>2275.097168</ele>
        <time>2012-03-24T11:38:22Z</time>
      </trkpt>
      <trkpt lat="42.90158" lon="-0.73237">
        <ele>2267.406494</ele>
        <time>2012-03-24T11:38:31Z</time>
      </trkpt>
      <trkpt lat="42.90155" lon="-0.73238">
        <ele>2265.9646</ele>
        <time>2012-03-24T11:38:32Z</time>
      </trkpt>
      <trkpt lat="42.90133" lon="-0.73242">
        <ele>2254.428955</ele>
        <time>2012-03-24T11:38:41Z</time>
      </trkpt>
      <trkpt lat="42.9012" lon="-0.73251">
        <ele>2246.738281</ele>
        <time>2012-03-24T11:38:46Z</time>
      </trkpt>
      <trkpt lat="42.90112" lon="-0.73255">
        <ele>2238.567383</ele>
        <time>2012-03-24T11:38:58Z</time>
      </trkpt>
      <trkpt lat="42.90111" lon="-0.73254">
        <ele>2238.08667</ele>
        <time>2012-03-24T11:39:00Z</time>
      </trkpt>
      <trkpt lat="42.90101" lon="-0.73247">
        <ele>2231.837891</ele>
        <time>2012-03-24T11:39:05Z</time>
      </trkpt>
      <trkpt lat="42.90078" lon="-0.73236">
        <ele>2221.744141</ele>
        <time>2012-03-24T11:39:13Z</time>
      </trkpt>
      <trkpt lat="42.9006" lon="-0.73239">
        <ele>2212.611572</ele>
        <time>2012-03-24T11:39:19Z</time>
      </trkpt>
      <trkpt lat="42.90053" lon="-0.73229">
        <ele>2209.727539</ele>
        <time>2012-03-24T11:39:27Z</time>
      </trkpt>
      <trkpt lat="42.90053" lon="-0.73228">
        <ele>2209.727539</ele>
        <time>2012-03-24T11:39:48Z</time>
      </trkpt>
      <trkpt lat="42.90041" lon="-0.73202">
        <ele>2203.959717</ele>
        <time>2012-03-24T11:39:56Z</time>
      </trkpt>
      <trkpt lat="42.90039" lon="-0.73184">
        <ele>2199.633789</ele>
        <time>2012-03-24T11:40:14Z</time>
      </trkpt>
      <trkpt lat="42.90039" lon="-0.73184">
        <ele>2199.633789</ele>
        <time>2012-03-24T11:40:27Z</time>
      </trkpt>
      <trkpt lat="42.90032" lon="-0.73181">
        <ele>2197.711182</ele>
        <time>2012-03-24T11:40:34Z</time>
      </trkpt>
      <trkpt lat="42.90017" lon="-0.73193">
        <ele>2190.501221</ele>
        <time>2012-03-24T11:40:43Z</time>
      </trkpt>
      <trkpt lat="42.90009" lon="-0.73207">
        <ele>2183.771973</ele>
        <time>2012-03-24T11:40:49Z</time>
      </trkpt>
      <trkpt lat="42.90003" lon="-0.73237">
        <ele>2175.60083</ele>
        <time>2012-03-24T11:41:00Z</time>
      </trkpt>
      <trkpt lat="42.89999" lon="-0.73236">
        <ele>2173.197754</ele>
        <time>2012-03-24T11:41:07Z</time>
      </trkpt>
      <trkpt lat="42.89989" lon="-0.73216">
        <ele>2168.871582</ele>
        <time>2012-03-24T11:41:20Z</time>
      </trkpt>
      <trkpt lat="42.89983" lon="-0.73231">
        <ele>2163.10376</ele>
        <time>2012-03-24T11:41:26Z</time>
      </trkpt>
      <trkpt lat="42.89981" lon="-0.73255">
        <ele>2157.81665</ele>
        <time>2012-03-24T11:41:34Z</time>
      </trkpt>
      <trkpt lat="42.89964" lon="-0.73268">
        <ele>2148.203125</ele>
        <time>2012-03-24T11:41:43Z</time>
      </trkpt>
      <trkpt lat="42.89959" lon="-0.73272">
        <ele>2143.396729</ele>
        <time>2012-03-24T11:41:52Z</time>
      </trkpt>
      <trkpt lat="42.89958" lon="-0.73271">
        <ele>2143.396729</ele>
        <time>2012-03-24T11:41:54Z</time>
      </trkpt>
      <trkpt lat="42.89959" lon="-0.73292">
        <ele>2140.993408</ele>
        <time>2012-03-24T11:42:02Z</time>
      </trkpt>
      <trkpt lat="42.89951" lon="-0.73298">
        <ele>2136.667236</ele>
        <time>2012-03-24T11:42:10Z</time>
      </trkpt>
      <trkpt lat="42.89944" lon="-0.733">
        <ele>2128.976807</ele>
        <time>2012-03-24T11:42:24Z</time>
      </trkpt>
      <trkpt lat="42.89943" lon="-0.733">
        <ele>2128.015625</ele>
        <time>2012-03-24T11:42:26Z</time>
      </trkpt>
      <trkpt lat="42.89939" lon="-0.73311">
        <ele>2122.728271</ele>
        <time>2012-03-24T11:42:34Z</time>
      </trkpt>
      <trkpt lat="42.89928" lon="-0.7331">
        <ele>2116.479736</ele>
        <time>2012-03-24T11:42:43Z</time>
      </trkpt>
      <trkpt lat="42.89928" lon="-0.73312">
        <ele>2116.479736</ele>
        <time>2012-03-24T11:42:56Z</time>
      </trkpt>
      <trkpt lat="42.89918" lon="-0.73315">
        <ele>2112.634521</ele>
        <time>2012-03-24T11:43:03Z</time>
      </trkpt>
      <trkpt lat="42.8989" lon="-0.73306">
        <ele>2105.424561</ele>
        <time>2012-03-24T11:43:11Z</time>
      </trkpt>
      <trkpt lat="42.89855" lon="-0.73318">
        <ele>2095.330811</ele>
        <time>2012-03-24T11:43:18Z</time>
      </trkpt>
      <trkpt lat="42.89827" lon="-0.73321">
        <ele>2089.562744</ele>
        <time>2012-03-24T11:43:24Z</time>
      </trkpt>
      <trkpt lat="42.89805" lon="-0.73311">
        <ele>2085.236816</ele>
        <time>2012-03-24T11:43:35Z</time>
      </trkpt>
      <trkpt lat="42.89805" lon="-0.7331">
        <ele>2085.236816</ele>
        <time>2012-03-24T11:43:57Z</time>
      </trkpt>
      <trkpt lat="42.89805" lon="-0.7331">
        <ele>2084.756348</ele>
        <time>2012-03-24T11:44:29Z</time>
      </trkpt>
      <trkpt lat="42.89805" lon="-0.7331">
        <ele>2084.756348</ele>
        <time>2012-03-24T11:44:51Z</time>
      </trkpt>
      <trkpt lat="42.89805" lon="-0.7331">
        <ele>2084.756348</ele>
        <time>2012-03-24T11:45:13Z</time>
      </trkpt>
      <trkpt lat="42.89805" lon="-0.73309">
        <ele>2084.275635</ele>
        <time>2012-03-24T11:45:35Z</time>
      </trkpt>
      <trkpt lat="42.89805" lon="-0.73312">
        <ele>2083.794922</ele>
        <time>2012-03-24T11:45:59Z</time>
      </trkpt>
      <trkpt lat="42.89805" lon="-0.73313">
        <ele>2083.314209</ele>
        <time>2012-03-24T11:46:20Z</time>
      </trkpt>
      <trkpt lat="42.89804" lon="-0.73313">
        <ele>2084.756348</ele>
        <time>2012-03-24T11:46:34Z</time>
      </trkpt>
      <trkpt lat="42.89803" lon="-0.73314">
        <ele>2084.756348</ele>
        <time>2012-03-24T11:46:38Z</time>
      </trkpt>
      <trkpt lat="42.89802" lon="-0.73316">
        <ele>2085.236816</ele>
        <time>2012-03-24T11:46:52Z</time>
      </trkpt>
      <trkpt lat="42.89802" lon="-0.73316">
        <ele>2085.717529</ele>
        <time>2012-03-24T11:47:56Z</time>
      </trkpt>
      <trkpt lat="42.89802" lon="-0.73315">
        <ele>2085.236816</ele>
        <time>2012-03-24T11:50:51Z</time>
      </trkpt>
      <trkpt lat="42.89803" lon="-0.73316">
        <ele>2085.717529</ele>
        <time>2012-03-24T11:51:23Z</time>
      </trkpt>
      <trkpt lat="42.89802" lon="-0.73316">
        <ele>2085.236816</ele>
        <time>2012-03-24T11:51:45Z</time>
      </trkpt>
      <trkpt lat="42.89802" lon="-0.73316">
        <ele>2084.275635</ele>
        <time>2012-03-24T11:52:10Z</time>
      </trkpt>
      <trkpt lat="42.89802" lon="-0.73316">
        <ele>2084.756348</ele>
        <time>2012-03-24T11:52:45Z</time>
      </trkpt>
      <trkpt lat="42.89802" lon="-0.73315">
        <ele>2086.198242</ele>
        <time>2012-03-24T11:52:58Z</time>
      </trkpt>
      <trkpt lat="42.89802" lon="-0.73314">
        <ele>2085.717529</ele>
        <time>2012-03-24T11:53:20Z</time>
      </trkpt>
      <trkpt lat="42.89803" lon="-0.73311">
        <ele>2084.275635</ele>
        <time>2012-03-24T11:53:37Z</time>
      </trkpt>
      <trkpt lat="42.89803" lon="-0.73312">
        <ele>2083.794922</ele>
        <time>2012-03-24T11:54:05Z</time>
      </trkpt>
      <trkpt lat="42.89802" lon="-0.73312">
        <ele>2083.794922</ele>
        <time>2012-03-24T11:54:38Z</time>
      </trkpt>
      <trkpt lat="42.89797" lon="-0.73312">
        <ele>2084.275635</ele>
        <time>2012-03-24T11:54:50Z</time>
      </trkpt>
      <trkpt lat="42.89791" lon="-0.73313">
        <ele>2084.756348</ele>
        <time>2012-03-24T11:54:54Z</time>
      </trkpt>
      <trkpt lat="42.89778" lon="-0.73326">
        <ele>2085.717529</ele>
        <time>2012-03-24T11:55:06Z</time>
      </trkpt>
      <trkpt lat="42.89774" lon="-0.73328">
        <ele>2086.678711</ele>
        <time>2012-03-24T11:55:11Z</time>
      </trkpt>
      <trkpt lat="42.89771" lon="-0.73329">
        <ele>2088.601562</ele>
        <time>2012-03-24T11:55:22Z</time>
      </trkpt>
      <trkpt lat="42.89769" lon="-0.7333">
        <ele>2088.601562</ele>
        <time>2012-03-24T11:55:24Z</time>
      </trkpt>
      <trkpt lat="42.89768" lon="-0.73331">
        <ele>2089.562744</ele>
        <time>2012-03-24T11:55:26Z</time>
      </trkpt>
      <trkpt lat="42.89766" lon="-0.73331">
        <ele>2090.043457</ele>
        <time>2012-03-24T11:55:28Z</time>
      </trkpt>
      <trkpt lat="42.89762" lon="-0.73335">
        <ele>2091.966064</ele>
        <time>2012-03-24T11:55:34Z</time>
      </trkpt>
      <trkpt lat="42.89758" lon="-0.73342">
        <ele>2091.966064</ele>
        <time>2012-03-24T11:55:42Z</time>
      </trkpt>
      <trkpt lat="42.89756" lon="-0.73344">
        <ele>2090.043457</ele>
        <time>2012-03-24T11:55:45Z</time>
      </trkpt>
      <trkpt lat="42.89753" lon="-0.73347">
        <ele>2089.082031</ele>
        <time>2012-03-24T11:55:49Z</time>
      </trkpt>
      <trkpt lat="42.8975" lon="-0.73353">
        <ele>2089.082031</ele>
        <time>2012-03-24T11:55:55Z</time>
      </trkpt>
      <trkpt lat="42.89747" lon="-0.73357">
        <ele>2091.966064</ele>
        <time>2012-03-24T11:56:01Z</time>
      </trkpt>
      <trkpt lat="42.89746" lon="-0.73359">
        <ele>2093.888916</ele>
        <time>2012-03-24T11:56:04Z</time>
      </trkpt>
      <trkpt lat="42.89741" lon="-0.73365">
        <ele>2099.656738</ele>
        <time>2012-03-24T11:56:11Z</time>
      </trkpt>
      <trkpt lat="42.89739" lon="-0.73367">
        <ele>2100.61792</ele>
        <time>2012-03-24T11:56:15Z</time>
      </trkpt>
      <trkpt lat="42.8973" lon="-0.73377">
        <ele>2106.385742</ele>
        <time>2012-03-24T11:56:30Z</time>
      </trkpt>
      <trkpt lat="42.89726" lon="-0.73384">
        <ele>2108.789307</ele>
        <time>2012-03-24T11:56:40Z</time>
      </trkpt>
      <trkpt lat="42.89721" lon="-0.73391">
        <ele>2111.192627</ele>
        <time>2012-03-24T11:56:50Z</time>
      </trkpt>
      <trkpt lat="42.89715" lon="-0.73401">
        <ele>2111.67334</ele>
        <time>2012-03-24T11:57:02Z</time>
      </trkpt>
      <trkpt lat="42.89711" lon="-0.73407">
        <ele>2115.518555</ele>
        <time>2012-03-24T11:57:12Z</time>
      </trkpt>
      <trkpt lat="42.89705" lon="-0.73415">
        <ele>2119.36377</ele>
        <time>2012-03-24T11:57:25Z</time>
      </trkpt>
      <trkpt lat="42.89701" lon="-0.73418">
        <ele>2119.36377</ele>
        <time>2012-03-24T11:57:32Z</time>
      </trkpt>
      <trkpt lat="42.8969" lon="-0.73428">
        <ele>2123.208984</ele>
        <time>2012-03-24T11:57:50Z</time>
      </trkpt>
      <trkpt lat="42.89687" lon="-0.73431">
        <ele>2123.208984</ele>
        <time>2012-03-24T11:57:55Z</time>
      </trkpt>
      <trkpt lat="42.89684" lon="-0.73436">
        <ele>2126.093018</ele>
        <time>2012-03-24T11:58:00Z</time>
      </trkpt>
      <trkpt lat="42.8968" lon="-0.73438">
        <ele>2128.496338</ele>
        <time>2012-03-24T11:58:05Z</time>
      </trkpt>
      <trkpt lat="42.89678" lon="-0.7344">
        <ele>2128.976807</ele>
        <time>2012-03-24T11:58:07Z</time>
      </trkpt>
      <trkpt lat="42.89669" lon="-0.73447">
        <ele>2130.418945</ele>
        <time>2012-03-24T11:58:17Z</time>
      </trkpt>
      <trkpt lat="42.89666" lon="-0.73448">
        <ele>2130.899658</ele>
        <time>2012-03-24T11:58:20Z</time>
      </trkpt>
      <trkpt lat="42.89654" lon="-0.73451">
        <ele>2134.26416</ele>
        <time>2012-03-24T11:58:36Z</time>
      </trkpt>
      <trkpt lat="42.89642" lon="-0.73455">
        <ele>2134.744873</ele>
        <time>2012-03-24T11:58:51Z</time>
      </trkpt>
      <trkpt lat="42.89641" lon="-0.73455">
        <ele>2134.26416</ele>
        <time>2012-03-24T11:59:00Z</time>
      </trkpt>
      <trkpt lat="42.89641" lon="-0.73451">
        <ele>2134.26416</ele>
        <time>2012-03-24T11:59:19Z</time>
      </trkpt>
      <trkpt lat="42.89641" lon="-0.73449">
        <ele>2134.744873</ele>
        <time>2012-03-24T11:59:20Z</time>
      </trkpt>
      <trkpt lat="42.89641" lon="-0.73433">
        <ele>2136.186768</ele>
        <time>2012-03-24T11:59:34Z</time>
      </trkpt>
      <trkpt lat="42.8964" lon="-0.73426">
        <ele>2138.590088</ele>
        <time>2012-03-24T11:59:43Z</time>
      </trkpt>
      <trkpt lat="42.8964" lon="-0.73421">
        <ele>2140.032227</ele>
        <time>2012-03-24T12:00:00Z</time>
      </trkpt>
      <trkpt lat="42.8964" lon="-0.73422">
        <ele>2140.032227</ele>
        <time>2012-03-24T12:00:11Z</time>
      </trkpt>
      <trkpt lat="42.89632" lon="-0.73434">
        <ele>2141.954834</ele>
        <time>2012-03-24T12:00:26Z</time>
      </trkpt>
      <trkpt lat="42.89626" lon="-0.73443">
        <ele>2147.241943</ele>
        <time>2012-03-24T12:00:41Z</time>
      </trkpt>
      <trkpt lat="42.89618" lon="-0.73443">
        <ele>2149.164551</ele>
        <time>2012-03-24T12:00:50Z</time>
      </trkpt>
      <trkpt lat="42.89613" lon="-0.73445">
        <ele>2151.087158</ele>
        <time>2012-03-24T12:00:59Z</time>
      </trkpt>
      <trkpt lat="42.89611" lon="-0.73446">
        <ele>2151.567871</ele>
        <time>2012-03-24T12:01:02Z</time>
      </trkpt>
      <trkpt lat="42.89608" lon="-0.73447">
        <ele>2153.009766</ele>
        <time>2012-03-24T12:01:13Z</time>
      </trkpt>
      <trkpt lat="42.89611" lon="-0.73432">
        <ele>2157.81665</ele>
        <time>2012-03-24T12:01:30Z</time>
      </trkpt>
      <trkpt lat="42.89612" lon="-0.73426">
        <ele>2159.739014</ele>
        <time>2012-03-24T12:01:44Z</time>
      </trkpt>
      <trkpt lat="42.89602" lon="-0.73429">
        <ele>2162.142334</ele>
        <time>2012-03-24T12:02:00Z</time>
      </trkpt>
      <trkpt lat="42.89591" lon="-0.73432">
        <ele>2164.545654</ele>
        <time>2012-03-24T12:02:15Z</time>
      </trkpt>
      <trkpt lat="42.8958" lon="-0.73433">
        <ele>2166.948975</ele>
        <time>2012-03-24T12:02:31Z</time>
      </trkpt>
      <trkpt lat="42.89567" lon="-0.73437">
        <ele>2169.352295</ele>
        <time>2012-03-24T12:02:45Z</time>
      </trkpt>
      <trkpt lat="42.89554" lon="-0.73442">
        <ele>2170.313477</ele>
        <time>2012-03-24T12:03:01Z</time>
      </trkpt>
      <trkpt lat="42.89544" lon="-0.73451">
        <ele>2172.236328</ele>
        <time>2012-03-24T12:03:15Z</time>
      </trkpt>
      <trkpt lat="42.89542" lon="-0.73452">
        <ele>2172.236328</ele>
        <time>2012-03-24T12:03:18Z</time>
      </trkpt>
      <trkpt lat="42.89536" lon="-0.73455">
        <ele>2170.794189</ele>
        <time>2012-03-24T12:03:36Z</time>
      </trkpt>
      <trkpt lat="42.89536" lon="-0.73454">
        <ele>2170.313477</ele>
        <time>2012-03-24T12:03:52Z</time>
      </trkpt>
      <trkpt lat="42.89529" lon="-0.73458">
        <ele>2172.236328</ele>
        <time>2012-03-24T12:04:13Z</time>
      </trkpt>
      <trkpt lat="42.89527" lon="-0.73458">
        <ele>2172.717041</ele>
        <time>2012-03-24T12:04:15Z</time>
      </trkpt>
      <trkpt lat="42.89526" lon="-0.73456">
        <ele>2173.678223</ele>
        <time>2012-03-24T12:04:34Z</time>
      </trkpt>
      <trkpt lat="42.89526" lon="-0.73456">
        <ele>2173.678223</ele>
        <time>2012-03-24T12:04:37Z</time>
      </trkpt>
      <trkpt lat="42.89523" lon="-0.73457">
        <ele>2174.158936</ele>
        <time>2012-03-24T12:04:40Z</time>
      </trkpt>
      <trkpt lat="42.89518" lon="-0.7346">
        <ele>2176.081543</ele>
        <time>2012-03-24T12:05:01Z</time>
      </trkpt>
      <trkpt lat="42.89516" lon="-0.73462">
        <ele>2177.042969</ele>
        <time>2012-03-24T12:05:11Z</time>
      </trkpt>
      <trkpt lat="42.89513" lon="-0.73475">
        <ele>2180.888184</ele>
        <time>2012-03-24T12:05:26Z</time>
      </trkpt>
      <trkpt lat="42.8951" lon="-0.73479">
        <ele>2181.849365</ele>
        <time>2012-03-24T12:05:32Z</time>
      </trkpt>
      <trkpt lat="42.89503" lon="-0.73485">
        <ele>2184.252686</ele>
        <time>2012-03-24T12:05:43Z</time>
      </trkpt>
      <trkpt lat="42.89498" lon="-0.73489">
        <ele>2185.69458</ele>
        <time>2012-03-24T12:05:50Z</time>
      </trkpt>
      <trkpt lat="42.89495" lon="-0.73491">
        <ele>2186.655762</ele>
        <time>2012-03-24T12:05:56Z</time>
      </trkpt>
      <trkpt lat="42.89483" lon="-0.73499">
        <ele>2190.020752</ele>
        <time>2012-03-24T12:06:13Z</time>
      </trkpt>
      <trkpt lat="42.89472" lon="-0.73507">
        <ele>2192.904541</ele>
        <time>2012-03-24T12:06:30Z</time>
      </trkpt>
      <trkpt lat="42.89467" lon="-0.73512">
        <ele>2195.788574</ele>
        <time>2012-03-24T12:06:46Z</time>
      </trkpt>
      <trkpt lat="42.89465" lon="-0.73516">
        <ele>2197.711182</ele>
        <time>2012-03-24T12:07:05Z</time>
      </trkpt>
      <trkpt lat="42.89468" lon="-0.73524">
        <ele>2198.19165</ele>
        <time>2012-03-24T12:07:21Z</time>
      </trkpt>
      <trkpt lat="42.89471" lon="-0.73531">
        <ele>2199.633789</ele>
        <time>2012-03-24T12:07:30Z</time>
      </trkpt>
      <trkpt lat="42.89472" lon="-0.7354">
        <ele>2201.556396</ele>
        <time>2012-03-24T12:07:38Z</time>
      </trkpt>
      <trkpt lat="42.89468" lon="-0.73559">
        <ele>2204.44043</ele>
        <time>2012-03-24T12:07:54Z</time>
      </trkpt>
      <trkpt lat="42.89465" lon="-0.73568">
        <ele>2205.882324</ele>
        <time>2012-03-24T12:08:02Z</time>
      </trkpt>
      <trkpt lat="42.89458" lon="-0.73581">
        <ele>2206.84375</ele>
        <time>2012-03-24T12:08:15Z</time>
      </trkpt>
      <trkpt lat="42.89437" lon="-0.73601">
        <ele>2204.921143</ele>
        <time>2012-03-24T12:08:32Z</time>
      </trkpt>
      <trkpt lat="42.8943" lon="-0.73611">
        <ele>2203.959717</ele>
        <time>2012-03-24T12:08:38Z</time>
      </trkpt>
      <trkpt lat="42.89411" lon="-0.73614">
        <ele>2202.517578</ele>
        <time>2012-03-24T12:08:52Z</time>
      </trkpt>
      <trkpt lat="42.89406" lon="-0.73616">
        <ele>2202.517578</ele>
        <time>2012-03-24T12:08:58Z</time>
      </trkpt>
      <trkpt lat="42.89403" lon="-0.73617">
        <ele>2202.998291</ele>
        <time>2012-03-24T12:09:02Z</time>
      </trkpt>
      <trkpt lat="42.89395" lon="-0.73621">
        <ele>2205.882324</ele>
        <time>2012-03-24T12:09:17Z</time>
      </trkpt>
      <trkpt lat="42.89387" lon="-0.73626">
        <ele>2207.324463</ele>
        <time>2012-03-24T12:09:27Z</time>
      </trkpt>
      <trkpt lat="42.89373" lon="-0.73629">
        <ele>2209.727539</ele>
        <time>2012-03-24T12:09:42Z</time>
      </trkpt>
      <trkpt lat="42.89358" lon="-0.73637">
        <ele>2212.130859</ele>
        <time>2012-03-24T12:09:58Z</time>
      </trkpt>
      <trkpt lat="42.89355" lon="-0.73637">
        <ele>2212.130859</ele>
        <time>2012-03-24T12:10:00Z</time>
      </trkpt>
      <trkpt lat="42.89351" lon="-0.73637">
        <ele>2212.611572</ele>
        <time>2012-03-24T12:10:21Z</time>
      </trkpt>
      <trkpt lat="42.89351" lon="-0.73636">
        <ele>2212.611572</ele>
        <time>2012-03-24T12:11:02Z</time>
      </trkpt>
      <trkpt lat="42.89346" lon="-0.73639">
        <ele>2213.572754</ele>
        <time>2012-03-24T12:11:20Z</time>
      </trkpt>
      <trkpt lat="42.89336" lon="-0.7366">
        <ele>2216.9375</ele>
        <time>2012-03-24T12:11:36Z</time>
      </trkpt>
      <trkpt lat="42.89333" lon="-0.73673">
        <ele>2218.860107</ele>
        <time>2012-03-24T12:11:44Z</time>
      </trkpt>
      <trkpt lat="42.89331" lon="-0.73693">
        <ele>2222.705566</ele>
        <time>2012-03-24T12:11:58Z</time>
      </trkpt>
      <trkpt lat="42.89331" lon="-0.73694">
        <ele>2222.705566</ele>
        <time>2012-03-24T12:11:59Z</time>
      </trkpt>
      <trkpt lat="42.8933" lon="-0.73697">
        <ele>2223.186279</ele>
        <time>2012-03-24T12:12:01Z</time>
      </trkpt>
      <trkpt lat="42.89328" lon="-0.73716">
        <ele>2225.589355</ele>
        <time>2012-03-24T12:12:16Z</time>
      </trkpt>
      <trkpt lat="42.89326" lon="-0.73727">
        <ele>2226.550781</ele>
        <time>2012-03-24T12:12:25Z</time>
      </trkpt>
      <trkpt lat="42.89324" lon="-0.73733">
        <ele>2227.992676</ele>
        <time>2012-03-24T12:12:31Z</time>
      </trkpt>
      <trkpt lat="42.8932" lon="-0.73749">
        <ele>2228.473389</ele>
        <time>2012-03-24T12:12:48Z</time>
      </trkpt>
      <trkpt lat="42.89318" lon="-0.7376">
        <ele>2230.395996</ele>
        <time>2012-03-24T12:13:05Z</time>
      </trkpt>
      <trkpt lat="42.89313" lon="-0.73772">
        <ele>2231.837891</ele>
        <time>2012-03-24T12:13:16Z</time>
      </trkpt>
      <trkpt lat="42.8931" lon="-0.73777">
        <ele>2231.837891</ele>
        <time>2012-03-24T12:13:21Z</time>
      </trkpt>
      <trkpt lat="42.89306" lon="-0.73785">
        <ele>2236.164062</ele>
        <time>2012-03-24T12:13:37Z</time>
      </trkpt>
      <trkpt lat="42.89298" lon="-0.73802">
        <ele>2238.567383</ele>
        <time>2012-03-24T12:13:57Z</time>
      </trkpt>
      <trkpt lat="42.89287" lon="-0.73817">
        <ele>2241.931885</ele>
        <time>2012-03-24T12:14:16Z</time>
      </trkpt>
      <trkpt lat="42.89283" lon="-0.73824">
        <ele>2240.489746</ele>
        <time>2012-03-24T12:14:41Z</time>
      </trkpt>
      <trkpt lat="42.89283" lon="-0.73825">
        <ele>2240.970459</ele>
        <time>2012-03-24T12:15:10Z</time>
      </trkpt>
      <trkpt lat="42.89283" lon="-0.73824">
        <ele>2240.970459</ele>
        <time>2012-03-24T12:15:47Z</time>
      </trkpt>
      <trkpt lat="42.89283" lon="-0.73823">
        <ele>2241.451172</ele>
        <time>2012-03-24T12:16:12Z</time>
      </trkpt>
      <trkpt lat="42.89283" lon="-0.73823">
        <ele>2241.931885</ele>
        <time>2012-03-24T12:17:03Z</time>
      </trkpt>
      <trkpt lat="42.8928" lon="-0.73833">
        <ele>2243.854492</ele>
        <time>2012-03-24T12:17:17Z</time>
      </trkpt>
      <trkpt lat="42.89277" lon="-0.73838">
        <ele>2244.815674</ele>
        <time>2012-03-24T12:17:34Z</time>
      </trkpt>
      <trkpt lat="42.89277" lon="-0.73838">
        <ele>2245.296387</ele>
        <time>2012-03-24T12:18:18Z</time>
      </trkpt>
      <trkpt lat="42.89272" lon="-0.73848">
        <ele>2248.180176</ele>
        <time>2012-03-24T12:18:33Z</time>
      </trkpt>
      <trkpt lat="42.89272" lon="-0.73843">
        <ele>2249.622314</ele>
        <time>2012-03-24T12:18:52Z</time>
      </trkpt>
      <trkpt lat="42.89272" lon="-0.7384">
        <ele>2250.103027</ele>
        <time>2012-03-24T12:19:07Z</time>
      </trkpt>
      <trkpt lat="42.89272" lon="-0.73839">
        <ele>2250.103027</ele>
        <time>2012-03-24T12:19:26Z</time>
      </trkpt>
      <trkpt lat="42.89271" lon="-0.73838">
        <ele>2250.103027</ele>
        <time>2012-03-24T12:19:41Z</time>
      </trkpt>
      <trkpt lat="42.89271" lon="-0.73838">
        <ele>2250.103027</ele>
        <time>2012-03-24T12:20:19Z</time>
      </trkpt>
      <trkpt lat="42.89273" lon="-0.7384">
        <ele>2251.064209</ele>
        <time>2012-03-24T12:24:39Z</time>
      </trkpt>
      <trkpt lat="42.89273" lon="-0.7384">
        <ele>2251.064209</ele>
        <time>2012-03-24T12:25:34Z</time>
      </trkpt>
      <trkpt lat="42.89274" lon="-0.73841">
        <ele>2251.544922</ele>
        <time>2012-03-24T12:27:02Z</time>
      </trkpt>
      <trkpt lat="42.89274" lon="-0.73839">
        <ele>2251.064209</ele>
        <time>2012-03-24T12:27:35Z</time>
      </trkpt>
      <trkpt lat="42.89274" lon="-0.73838">
        <ele>2250.583496</ele>
        <time>2012-03-24T12:28:10Z</time>
      </trkpt>
      <trkpt lat="42.89274" lon="-0.73838">
        <ele>2249.622314</ele>
        <time>2012-03-24T12:28:58Z</time>
      </trkpt>
      <trkpt lat="42.89274" lon="-0.73837">
        <ele>2247.699707</ele>
        <time>2012-03-24T12:29:41Z</time>
      </trkpt>
      <trkpt lat="42.89276" lon="-0.73838">
        <ele>2247.218994</ele>
        <time>2012-03-24T12:30:16Z</time>
      </trkpt>
      <trkpt lat="42.89279" lon="-0.73838">
        <ele>2245.7771</ele>
        <time>2012-03-24T12:30:22Z</time>
      </trkpt>
      <trkpt lat="42.89285" lon="-0.73844">
        <ele>2243.373779</ele>
        <time>2012-03-24T12:30:31Z</time>
      </trkpt>
      <trkpt lat="42.89289" lon="-0.73848">
        <ele>2239.047852</ele>
        <time>2012-03-24T12:30:45Z</time>
      </trkpt>
      <trkpt lat="42.89297" lon="-0.73841">
        <ele>2233.760498</ele>
        <time>2012-03-24T12:31:01Z</time>
      </trkpt>
      <trkpt lat="42.89316" lon="-0.73817">
        <ele>2229.43457</ele>
        <time>2012-03-24T12:31:17Z</time>
      </trkpt>
      <trkpt lat="42.89344" lon="-0.73778">
        <ele>2218.860107</ele>
        <time>2012-03-24T12:31:34Z</time>
      </trkpt>
      <trkpt lat="42.89346" lon="-0.73773">
        <ele>2217.417969</ele>
        <time>2012-03-24T12:31:36Z</time>
      </trkpt>
      <trkpt lat="42.89355" lon="-0.73756">
        <ele>2213.572754</ele>
        <time>2012-03-24T12:31:44Z</time>
      </trkpt>
      <trkpt lat="42.89402" lon="-0.73715">
        <ele>2203.479004</ele>
        <time>2012-03-24T12:31:54Z</time>
      </trkpt>
      <trkpt lat="42.89405" lon="-0.73704">
        <ele>2203.959717</ele>
        <time>2012-03-24T12:31:59Z</time>
      </trkpt>
      <trkpt lat="42.89406" lon="-0.73696">
        <ele>2203.959717</ele>
        <time>2012-03-24T12:32:01Z</time>
      </trkpt>
      <trkpt lat="42.89413" lon="-0.73674">
        <ele>2203.479004</ele>
        <time>2012-03-24T12:32:12Z</time>
      </trkpt>
      <trkpt lat="42.89403" lon="-0.7363">
        <ele>2202.998291</ele>
        <time>2012-03-24T12:32:26Z</time>
      </trkpt>
      <trkpt lat="42.89404" lon="-0.73625">
        <ele>2202.998291</ele>
        <time>2012-03-24T12:32:31Z</time>
      </trkpt>
      <trkpt lat="42.89409" lon="-0.7361">
        <ele>2202.517578</ele>
        <time>2012-03-24T12:32:43Z</time>
      </trkpt>
      <trkpt lat="42.89411" lon="-0.73606">
        <ele>2202.998291</ele>
        <time>2012-03-24T12:32:47Z</time>
      </trkpt>
      <trkpt lat="42.89412" lon="-0.73604">
        <ele>2202.998291</ele>
        <time>2012-03-24T12:32:49Z</time>
      </trkpt>
      <trkpt lat="42.89413" lon="-0.73597">
        <ele>2203.959717</ele>
        <time>2012-03-24T12:32:57Z</time>
      </trkpt>
      <trkpt lat="42.89416" lon="-0.73592">
        <ele>2205.401855</ele>
        <time>2012-03-24T12:33:07Z</time>
      </trkpt>
      <trkpt lat="42.89417" lon="-0.7359">
        <ele>2205.882324</ele>
        <time>2012-03-24T12:33:11Z</time>
      </trkpt>
      <trkpt lat="42.89423" lon="-0.73585">
        <ele>2206.363037</ele>
        <time>2012-03-24T12:33:20Z</time>
      </trkpt>
      <trkpt lat="42.89424" lon="-0.73578">
        <ele>2206.363037</ele>
        <time>2012-03-24T12:33:32Z</time>
      </trkpt>
      <trkpt lat="42.89425" lon="-0.73576">
        <ele>2206.84375</ele>
        <time>2012-03-24T12:33:34Z</time>
      </trkpt>
      <trkpt lat="42.89434" lon="-0.73573">
        <ele>2207.805176</ele>
        <time>2012-03-24T12:33:46Z</time>
      </trkpt>
      <trkpt lat="42.89438" lon="-0.73573">
        <ele>2208.285645</ele>
        <time>2012-03-24T12:33:52Z</time>
      </trkpt>
      <trkpt lat="42.89442" lon="-0.73569">
        <ele>2209.24707</ele>
        <time>2012-03-24T12:34:04Z</time>
      </trkpt>
      <trkpt lat="42.89445" lon="-0.73565">
        <ele>2210.208252</ele>
        <time>2012-03-24T12:34:14Z</time>
      </trkpt>
      <trkpt lat="42.89448" lon="-0.73563">
        <ele>2210.208252</ele>
        <time>2012-03-24T12:34:30Z</time>
      </trkpt>
      <trkpt lat="42.89449" lon="-0.73561">
        <ele>2210.688965</ele>
        <time>2012-03-24T12:34:47Z</time>
      </trkpt>
      <trkpt lat="42.89453" lon="-0.73549">
        <ele>2209.727539</ele>
        <time>2012-03-24T12:34:52Z</time>
      </trkpt>
      <trkpt lat="42.89473" lon="-0.73513">
        <ele>2202.036865</ele>
        <time>2012-03-24T12:35:00Z</time>
      </trkpt>
      <trkpt lat="42.89497" lon="-0.73483">
        <ele>2191.943359</ele>
        <time>2012-03-24T12:35:07Z</time>
      </trkpt>
      <trkpt lat="42.8952" lon="-0.7347">
        <ele>2185.69458</ele>
        <time>2012-03-24T12:35:12Z</time>
      </trkpt>
      <trkpt lat="42.89538" lon="-0.73451">
        <ele>2180.407471</ele>
        <time>2012-03-24T12:35:21Z</time>
      </trkpt>
      <trkpt lat="42.89554" lon="-0.73445">
        <ele>2177.523438</ele>
        <time>2012-03-24T12:35:29Z</time>
      </trkpt>
      <trkpt lat="42.89585" lon="-0.73425">
        <ele>2172.236328</ele>
        <time>2012-03-24T12:35:36Z</time>
      </trkpt>
      <trkpt lat="42.89593" lon="-0.73423">
        <ele>2170.794189</ele>
        <time>2012-03-24T12:35:38Z</time>
      </trkpt>
      <trkpt lat="42.89618" lon="-0.73417">
        <ele>2162.623047</ele>
        <time>2012-03-24T12:35:49Z</time>
      </trkpt>
      <trkpt lat="42.89624" lon="-0.73415">
        <ele>2161.661865</ele>
        <time>2012-03-24T12:35:53Z</time>
      </trkpt>
      <trkpt lat="42.89643" lon="-0.7341">
        <ele>2152.529053</ele>
        <time>2012-03-24T12:36:02Z</time>
      </trkpt>
      <trkpt lat="42.89665" lon="-0.73378">
        <ele>2146.76123</ele>
        <time>2012-03-24T12:36:12Z</time>
      </trkpt>
      <trkpt lat="42.89687" lon="-0.73376">
        <ele>2137.628662</ele>
        <time>2012-03-24T12:36:19Z</time>
      </trkpt>
      <trkpt lat="42.89701" lon="-0.73379">
        <ele>2130.899658</ele>
        <time>2012-03-24T12:36:23Z</time>
      </trkpt>
      <trkpt lat="42.89731" lon="-0.73357">
        <ele>2119.36377</ele>
        <time>2012-03-24T12:36:31Z</time>
      </trkpt>
      <trkpt lat="42.89755" lon="-0.73337">
        <ele>2109.750488</ele>
        <time>2012-03-24T12:36:37Z</time>
      </trkpt>
      <trkpt lat="42.89779" lon="-0.73316">
        <ele>2100.137451</ele>
        <time>2012-03-24T12:36:43Z</time>
      </trkpt>
      <trkpt lat="42.89792" lon="-0.733">
        <ele>2096.772705</ele>
        <time>2012-03-24T12:36:46Z</time>
      </trkpt>
      <trkpt lat="42.89825" lon="-0.73286">
        <ele>2090.523926</ele>
        <time>2012-03-24T12:36:57Z</time>
      </trkpt>
      <trkpt lat="42.89833" lon="-0.73271">
        <ele>2088.601562</ele>
        <time>2012-03-24T12:37:09Z</time>
      </trkpt>
      <trkpt lat="42.89833" lon="-0.7327">
        <ele>2088.601562</ele>
        <time>2012-03-24T12:37:37Z</time>
      </trkpt>
      <trkpt lat="42.89834" lon="-0.73269">
        <ele>2088.601562</ele>
        <time>2012-03-24T12:37:59Z</time>
      </trkpt>
      <trkpt lat="42.89837" lon="-0.73258">
        <ele>2086.678711</ele>
        <time>2012-03-24T12:38:03Z</time>
      </trkpt>
      <trkpt lat="42.89835" lon="-0.7322">
        <ele>2075.142822</ele>
        <time>2012-03-24T12:38:11Z</time>
      </trkpt>
      <trkpt lat="42.89834" lon="-0.73216">
        <ele>2073.220459</ele>
        <time>2012-03-24T12:38:12Z</time>
      </trkpt>
      <trkpt lat="42.89828" lon="-0.73211">
        <ele>2069.375244</ele>
        <time>2012-03-24T12:38:16Z</time>
      </trkpt>
      <trkpt lat="42.89814" lon="-0.73189">
        <ele>2065.049316</ele>
        <time>2012-03-24T12:38:22Z</time>
      </trkpt>
      <trkpt lat="42.8982" lon="-0.7318">
        <ele>2060.723389</ele>
        <time>2012-03-24T12:38:25Z</time>
      </trkpt>
      <trkpt lat="42.89841" lon="-0.73147">
        <ele>2043.900146</ele>
        <time>2012-03-24T12:38:33Z</time>
      </trkpt>
      <trkpt lat="42.89852" lon="-0.73143">
        <ele>2038.613037</ele>
        <time>2012-03-24T12:38:37Z</time>
      </trkpt>
      <trkpt lat="42.89858" lon="-0.73132">
        <ele>2037.651611</ele>
        <time>2012-03-24T12:38:48Z</time>
      </trkpt>
      <trkpt lat="42.89853" lon="-0.73124">
        <ele>2035.729004</ele>
        <time>2012-03-24T12:38:54Z</time>
      </trkpt>
      <trkpt lat="42.89848" lon="-0.73121">
        <ele>2034.767822</ele>
        <time>2012-03-24T12:39:12Z</time>
      </trkpt>
      <trkpt lat="42.89852" lon="-0.73117">
        <ele>2033.325684</ele>
        <time>2012-03-24T12:39:27Z</time>
      </trkpt>
      <trkpt lat="42.89853" lon="-0.73115">
        <ele>2032.844971</ele>
        <time>2012-03-24T12:39:51Z</time>
      </trkpt>
      <trkpt lat="42.89855" lon="-0.73112">
        <ele>2031.403076</ele>
        <time>2012-03-24T12:40:05Z</time>
      </trkpt>
      <trkpt lat="42.89859" lon="-0.73101">
        <ele>2028.519287</ele>
        <time>2012-03-24T12:40:14Z</time>
      </trkpt>
      <trkpt lat="42.89854" lon="-0.73064">
        <ele>2018.425293</ele>
        <time>2012-03-24T12:40:25Z</time>
      </trkpt>
      <trkpt lat="42.89862" lon="-0.73049">
        <ele>2008.812012</ele>
        <time>2012-03-24T12:40:32Z</time>
      </trkpt>
      <trkpt lat="42.89853" lon="-0.73015">
        <ele>1999.679688</ele>
        <time>2012-03-24T12:40:41Z</time>
      </trkpt>
      <trkpt lat="42.89861" lon="-0.73003">
        <ele>1991.508301</ele>
        <time>2012-03-24T12:40:46Z</time>
      </trkpt>
      <trkpt lat="42.89859" lon="-0.72989">
        <ele>1987.663086</ele>
        <time>2012-03-24T12:40:49Z</time>
      </trkpt>
      <trkpt lat="42.89873" lon="-0.72975">
        <ele>1977.569092</ele>
        <time>2012-03-24T12:40:56Z</time>
      </trkpt>
      <trkpt lat="42.89872" lon="-0.72969">
        <ele>1976.127197</ele>
        <time>2012-03-24T12:40:57Z</time>
      </trkpt>
      <trkpt lat="42.89866" lon="-0.72953">
        <ele>1972.762695</ele>
        <time>2012-03-24T12:41:01Z</time>
      </trkpt>
      <trkpt lat="42.89868" lon="-0.7293">
        <ele>1964.591553</ele>
        <time>2012-03-24T12:41:07Z</time>
      </trkpt>
      <trkpt lat="42.8985" lon="-0.72883">
        <ele>1955.458984</ele>
        <time>2012-03-24T12:41:19Z</time>
      </trkpt>
      <trkpt lat="42.8985" lon="-0.72883">
        <ele>1955.458984</ele>
        <time>2012-03-24T12:41:26Z</time>
      </trkpt>
      <trkpt lat="42.8985" lon="-0.72877">
        <ele>1954.978271</ele>
        <time>2012-03-24T12:41:30Z</time>
      </trkpt>
      <trkpt lat="42.89849" lon="-0.7286">
        <ele>1950.652344</ele>
        <time>2012-03-24T12:41:35Z</time>
      </trkpt>
      <trkpt lat="42.89858" lon="-0.7284">
        <ele>1941.039062</ele>
        <time>2012-03-24T12:41:43Z</time>
      </trkpt>
      <trkpt lat="42.89861" lon="-0.72818">
        <ele>1931.906494</ele>
        <time>2012-03-24T12:41:50Z</time>
      </trkpt>
      <trkpt lat="42.89868" lon="-0.72798">
        <ele>1923.735352</ele>
        <time>2012-03-24T12:41:56Z</time>
      </trkpt>
      <trkpt lat="42.89838" lon="-0.7274">
        <ele>1912.680176</ele>
        <time>2012-03-24T12:42:11Z</time>
      </trkpt>
      <trkpt lat="42.89839" lon="-0.72741">
        <ele>1912.199463</ele>
        <time>2012-03-24T12:42:40Z</time>
      </trkpt>
      <trkpt lat="42.89845" lon="-0.72724">
        <ele>1904.989746</ele>
        <time>2012-03-24T12:42:49Z</time>
      </trkpt>
      <trkpt lat="42.89853" lon="-0.72708">
        <ele>1893.93457</ele>
        <time>2012-03-24T12:42:58Z</time>
      </trkpt>
      <trkpt lat="42.89874" lon="-0.72695">
        <ele>1889.12793</ele>
        <time>2012-03-24T12:43:03Z</time>
      </trkpt>
      <trkpt lat="42.899" lon="-0.72661">
        <ele>1881.437256</ele>
        <time>2012-03-24T12:43:14Z</time>
      </trkpt>
      <trkpt lat="42.8991" lon="-0.72649">
        <ele>1877.592041</ele>
        <time>2012-03-24T12:43:20Z</time>
      </trkpt>
      <trkpt lat="42.8991" lon="-0.72621">
        <ele>1867.97876</ele>
        <time>2012-03-24T12:43:28Z</time>
      </trkpt>
      <trkpt lat="42.89903" lon="-0.72587">
        <ele>1851.636475</ele>
        <time>2012-03-24T12:43:37Z</time>
      </trkpt>
      <trkpt lat="42.89903" lon="-0.7258">
        <ele>1849.713867</ele>
        <time>2012-03-24T12:43:38Z</time>
      </trkpt>
      <trkpt lat="42.89898" lon="-0.72534">
        <ele>1840.581299</ele>
        <time>2012-03-24T12:43:45Z</time>
      </trkpt>
      <trkpt lat="42.89885" lon="-0.72512">
        <ele>1830.968262</ele>
        <time>2012-03-24T12:43:53Z</time>
      </trkpt>
      <trkpt lat="42.89883" lon="-0.72494">
        <ele>1828.564941</ele>
        <time>2012-03-24T12:43:57Z</time>
      </trkpt>
      <trkpt lat="42.89873" lon="-0.72479">
        <ele>1819.912842</ele>
        <time>2012-03-24T12:44:03Z</time>
      </trkpt>
      <trkpt lat="42.89872" lon="-0.72482">
        <ele>1817.990234</ele>
        <time>2012-03-24T12:44:08Z</time>
      </trkpt>
      <trkpt lat="42.89858" lon="-0.72469">
        <ele>1809.819092</ele>
        <time>2012-03-24T12:44:16Z</time>
      </trkpt>
      <trkpt lat="42.89859" lon="-0.72465">
        <ele>1808.85791</ele>
        <time>2012-03-24T12:44:17Z</time>
      </trkpt>
      <trkpt lat="42.8986" lon="-0.72459">
        <ele>1805.973877</ele>
        <time>2012-03-24T12:44:35Z</time>
      </trkpt>
      <trkpt lat="42.8986" lon="-0.72459">
        <ele>1805.973877</ele>
        <time>2012-03-24T12:45:04Z</time>
      </trkpt>
      <trkpt lat="42.89862" lon="-0.72454">
        <ele>1805.973877</ele>
        <time>2012-03-24T12:45:59Z</time>
      </trkpt>
      <trkpt lat="42.89857" lon="-0.72449">
        <ele>1802.128418</ele>
        <time>2012-03-24T12:46:03Z</time>
      </trkpt>
      <trkpt lat="42.8987" lon="-0.72422">
        <ele>1793.95752</ele>
        <time>2012-03-24T12:46:13Z</time>
      </trkpt>
      <trkpt lat="42.89871" lon="-0.72422">
        <ele>1793.95752</ele>
        <time>2012-03-24T12:46:26Z</time>
      </trkpt>
      <trkpt lat="42.89867" lon="-0.7242">
        <ele>1792.034912</ele>
        <time>2012-03-24T12:46:29Z</time>
      </trkpt>
      <trkpt lat="42.89857" lon="-0.72397">
        <ele>1781.940918</ele>
        <time>2012-03-24T12:46:38Z</time>
      </trkpt>
      <trkpt lat="42.89851" lon="-0.72394">
        <ele>1778.576416</ele>
        <time>2012-03-24T12:46:47Z</time>
      </trkpt>
      <trkpt lat="42.89846" lon="-0.72392">
        <ele>1776.653809</ele>
        <time>2012-03-24T12:47:06Z</time>
      </trkpt>
      <trkpt lat="42.89843" lon="-0.72388">
        <ele>1774.731201</ele>
        <time>2012-03-24T12:47:12Z</time>
      </trkpt>
      <trkpt lat="42.89838" lon="-0.72389">
        <ele>1773.769775</ele>
        <time>2012-03-24T12:47:21Z</time>
      </trkpt>
      <trkpt lat="42.89835" lon="-0.72391">
        <ele>1773.769775</ele>
        <time>2012-03-24T12:47:25Z</time>
      </trkpt>
      <trkpt lat="42.89824" lon="-0.72382">
        <ele>1771.846924</ele>
        <time>2012-03-24T12:47:30Z</time>
      </trkpt>
      <trkpt lat="42.89798" lon="-0.72336">
        <ele>1761.753418</ele>
        <time>2012-03-24T12:47:44Z</time>
      </trkpt>
      <trkpt lat="42.89798" lon="-0.72334">
        <ele>1761.272705</ele>
        <time>2012-03-24T12:47:45Z</time>
      </trkpt>
      <trkpt lat="42.89799" lon="-0.72316">
        <ele>1754.543213</ele>
        <time>2012-03-24T12:47:51Z</time>
      </trkpt>
      <trkpt lat="42.8979" lon="-0.72291">
        <ele>1743.007568</ele>
        <time>2012-03-24T12:48:00Z</time>
      </trkpt>
      <trkpt lat="42.89785" lon="-0.72287">
        <ele>1739.162109</ele>
        <time>2012-03-24T12:48:11Z</time>
      </trkpt>
      <trkpt lat="42.89782" lon="-0.72286">
        <ele>1737.720215</ele>
        <time>2012-03-24T12:48:26Z</time>
      </trkpt>
      <trkpt lat="42.89782" lon="-0.72286">
        <ele>1737.720215</ele>
        <time>2012-03-24T12:48:49Z</time>
      </trkpt>
      <trkpt lat="42.89781" lon="-0.72286">
        <ele>1737.239502</ele>
        <time>2012-03-24T12:49:18Z</time>
      </trkpt>
      <trkpt lat="42.89777" lon="-0.72286">
        <ele>1736.27832</ele>
        <time>2012-03-24T12:49:39Z</time>
      </trkpt>
      <trkpt lat="42.89774" lon="-0.72287">
        <ele>1736.27832</ele>
        <time>2012-03-24T12:49:56Z</time>
      </trkpt>
      <trkpt lat="42.89773" lon="-0.72288">
        <ele>1736.758789</ele>
        <time>2012-03-24T12:50:01Z</time>
      </trkpt>
      <trkpt lat="42.8977" lon="-0.72289">
        <ele>1736.27832</ele>
        <time>2012-03-24T12:50:08Z</time>
      </trkpt>
      <trkpt lat="42.89764" lon="-0.72292">
        <ele>1736.27832</ele>
        <time>2012-03-24T12:50:23Z</time>
      </trkpt>
      <trkpt lat="42.89754" lon="-0.72292">
        <ele>1734.355713</ele>
        <time>2012-03-24T12:50:39Z</time>
      </trkpt>
      <trkpt lat="42.89751" lon="-0.72293">
        <ele>1734.355713</ele>
        <time>2012-03-24T12:50:43Z</time>
      </trkpt>
      <trkpt lat="42.8975" lon="-0.72294">
        <ele>1733.875</ele>
        <time>2012-03-24T12:50:47Z</time>
      </trkpt>
      <trkpt lat="42.89749" lon="-0.72294">
        <ele>1734.355713</ele>
        <time>2012-03-24T12:50:56Z</time>
      </trkpt>
      <trkpt lat="42.89741" lon="-0.72294">
        <ele>1733.875</ele>
        <time>2012-03-24T12:51:13Z</time>
      </trkpt>
      <trkpt lat="42.8974" lon="-0.72295">
        <ele>1733.394287</ele>
        <time>2012-03-24T12:51:36Z</time>
      </trkpt>
      <trkpt lat="42.8974" lon="-0.72295">
        <ele>1733.875</ele>
        <time>2012-03-24T12:52:04Z</time>
      </trkpt>
      <trkpt lat="42.8974" lon="-0.72295">
        <ele>1734.355713</ele>
        <time>2012-03-24T12:52:35Z</time>
      </trkpt>
      <trkpt lat="42.8974" lon="-0.72295">
        <ele>1734.836426</ele>
        <time>2012-03-24T12:53:05Z</time>
      </trkpt>
      <trkpt lat="42.8974" lon="-0.72294">
        <ele>1734.836426</ele>
        <time>2012-03-24T12:54:35Z</time>
      </trkpt>
      <trkpt lat="42.89741" lon="-0.72293">
        <ele>1734.355713</ele>
        <time>2012-03-24T12:56:16Z</time>
      </trkpt>
      <trkpt lat="42.89741" lon="-0.72293">
        <ele>1734.355713</ele>
        <time>2012-03-24T12:57:02Z</time>
      </trkpt>
      <trkpt lat="42.89741" lon="-0.72293">
        <ele>1734.836426</ele>
        <time>2012-03-24T12:57:49Z</time>
      </trkpt>
      <trkpt lat="42.89741" lon="-0.72294">
        <ele>1734.836426</ele>
        <time>2012-03-24T12:58:26Z</time>
      </trkpt>
      <trkpt lat="42.89741" lon="-0.72293">
        <ele>1734.836426</ele>
        <time>2012-03-24T12:58:50Z</time>
      </trkpt>
      <trkpt lat="42.89742" lon="-0.72293">
        <ele>1734.836426</ele>
        <time>2012-03-24T12:59:23Z</time>
      </trkpt>
      <trkpt lat="42.89742" lon="-0.72293">
        <ele>1734.836426</ele>
        <time>2012-03-24T12:59:57Z</time>
      </trkpt>
      <trkpt lat="42.8974" lon="-0.72293">
        <ele>1735.316895</ele>
        <time>2012-03-24T13:00:22Z</time>
      </trkpt>
      <trkpt lat="42.89741" lon="-0.72294">
        <ele>1735.316895</ele>
        <time>2012-03-24T13:01:00Z</time>
      </trkpt>
      <trkpt lat="42.89741" lon="-0.72294">
        <ele>1735.316895</ele>
        <time>2012-03-24T13:01:38Z</time>
      </trkpt>
      <trkpt lat="42.89741" lon="-0.72294">
        <ele>1735.316895</ele>
        <time>2012-03-24T13:02:15Z</time>
      </trkpt>
      <trkpt lat="42.89741" lon="-0.72294">
        <ele>1735.316895</ele>
        <time>2012-03-24T13:02:41Z</time>
      </trkpt>
      <trkpt lat="42.89742" lon="-0.72294">
        <ele>1736.27832</ele>
        <time>2012-03-24T13:03:14Z</time>
      </trkpt>
      <trkpt lat="42.89741" lon="-0.72293">
        <ele>1736.27832</ele>
        <time>2012-03-24T13:03:36Z</time>
      </trkpt>
      <trkpt lat="42.8973" lon="-0.7229">
        <ele>1731.47168</ele>
        <time>2012-03-24T13:03:54Z</time>
      </trkpt>
      <trkpt lat="42.89729" lon="-0.72291">
        <ele>1730.991211</ele>
        <time>2012-03-24T13:03:55Z</time>
      </trkpt>
      <trkpt lat="42.8972" lon="-0.72292">
        <ele>1730.029785</ele>
        <time>2012-03-24T13:04:06Z</time>
      </trkpt>
      <trkpt lat="42.89712" lon="-0.72294">
        <ele>1730.029785</ele>
        <time>2012-03-24T13:04:16Z</time>
      </trkpt>
      <trkpt lat="42.89709" lon="-0.72293">
        <ele>1729.549072</ele>
        <time>2012-03-24T13:04:24Z</time>
      </trkpt>
      <trkpt lat="42.89704" lon="-0.72271">
        <ele>1721.858398</ele>
        <time>2012-03-24T13:04:32Z</time>
      </trkpt>
      <trkpt lat="42.89698" lon="-0.7227">
        <ele>1717.052002</ele>
        <time>2012-03-24T13:04:46Z</time>
      </trkpt>
      <trkpt lat="42.89693" lon="-0.72266">
        <ele>1715.129395</ele>
        <time>2012-03-24T13:04:57Z</time>
      </trkpt>
      <trkpt lat="42.89696" lon="-0.72259">
        <ele>1713.687256</ele>
        <time>2012-03-24T13:05:01Z</time>
      </trkpt>
      <trkpt lat="42.89697" lon="-0.72236">
        <ele>1703.112793</ele>
        <time>2012-03-24T13:05:11Z</time>
      </trkpt>
      <trkpt lat="42.89701" lon="-0.72224">
        <ele>1693.499756</ele>
        <time>2012-03-24T13:05:19Z</time>
      </trkpt>
      <trkpt lat="42.89702" lon="-0.72223">
        <ele>1691.576904</ele>
        <time>2012-03-24T13:05:28Z</time>
      </trkpt>
      <trkpt lat="42.89702" lon="-0.72208">
        <ele>1682.925049</ele>
        <time>2012-03-24T13:05:36Z</time>
      </trkpt>
      <trkpt lat="42.897" lon="-0.72209">
        <ele>1682.44458</ele>
        <time>2012-03-24T13:05:38Z</time>
      </trkpt>
      <trkpt lat="42.89687" lon="-0.72203">
        <ele>1679.560547</ele>
        <time>2012-03-24T13:05:50Z</time>
      </trkpt>
      <trkpt lat="42.89687" lon="-0.72203">
        <ele>1680.04126</ele>
        <time>2012-03-24T13:06:19Z</time>
      </trkpt>
      <trkpt lat="42.89687" lon="-0.72203">
        <ele>1681.002686</ele>
        <time>2012-03-24T13:06:58Z</time>
      </trkpt>
      <trkpt lat="42.89687" lon="-0.72203">
        <ele>1681.002686</ele>
        <time>2012-03-24T13:07:49Z</time>
      </trkpt>
      <trkpt lat="42.89687" lon="-0.72203">
        <ele>1680.521973</ele>
        <time>2012-03-24T13:08:07Z</time>
      </trkpt>
      <trkpt lat="42.89686" lon="-0.72203">
        <ele>1681.002686</ele>
        <time>2012-03-24T13:08:11Z</time>
      </trkpt>
      <trkpt lat="42.89693" lon="-0.72174">
        <ele>1672.831299</ele>
        <time>2012-03-24T13:08:19Z</time>
      </trkpt>
      <trkpt lat="42.89704" lon="-0.72154">
        <ele>1665.140869</ele>
        <time>2012-03-24T13:08:23Z</time>
      </trkpt>
      <trkpt lat="42.89734" lon="-0.72112">
        <ele>1656.48877</ele>
        <time>2012-03-24T13:08:37Z</time>
      </trkpt>
      <trkpt lat="42.89738" lon="-0.72107">
        <ele>1656.48877</ele>
        <time>2012-03-24T13:08:52Z</time>
      </trkpt>
      <trkpt lat="42.89739" lon="-0.72106">
        <ele>1656.48877</ele>
        <time>2012-03-24T13:09:06Z</time>
      </trkpt>
      <trkpt lat="42.8974" lon="-0.72106">
        <ele>1657.450195</ele>
        <time>2012-03-24T13:09:14Z</time>
      </trkpt>
      <trkpt lat="42.89758" lon="-0.72096">
        <ele>1657.450195</ele>
        <time>2012-03-24T13:09:29Z</time>
      </trkpt>
      <trkpt lat="42.8976" lon="-0.72095">
        <ele>1656.969482</ele>
        <time>2012-03-24T13:09:30Z</time>
      </trkpt>
      <trkpt lat="42.89755" lon="-0.7206">
        <ele>1649.759766</ele>
        <time>2012-03-24T13:09:39Z</time>
      </trkpt>
      <trkpt lat="42.89759" lon="-0.72053">
        <ele>1647.837158</ele>
        <time>2012-03-24T13:09:42Z</time>
      </trkpt>
      <trkpt lat="42.89763" lon="-0.72052">
        <ele>1647.837158</ele>
        <time>2012-03-24T13:10:07Z</time>
      </trkpt>
      <trkpt lat="42.89763" lon="-0.72052">
        <ele>1647.356445</ele>
        <time>2012-03-24T13:10:31Z</time>
      </trkpt>
      <trkpt lat="42.89763" lon="-0.72052">
        <ele>1647.837158</ele>
        <time>2012-03-24T13:10:32Z</time>
      </trkpt>
      <trkpt lat="42.8976" lon="-0.72015">
        <ele>1641.588379</ele>
        <time>2012-03-24T13:10:41Z</time>
      </trkpt>
      <trkpt lat="42.8976" lon="-0.72">
        <ele>1639.185059</ele>
        <time>2012-03-24T13:10:44Z</time>
      </trkpt>
      <trkpt lat="42.89769" lon="-0.71984">
        <ele>1636.30127</ele>
        <time>2012-03-24T13:10:56Z</time>
      </trkpt>
      <trkpt lat="42.8977" lon="-0.7198">
        <ele>1635.820557</ele>
        <time>2012-03-24T13:11:00Z</time>
      </trkpt>
      <trkpt lat="42.89776" lon="-0.7196">
        <ele>1630.533447</ele>
        <time>2012-03-24T13:11:05Z</time>
      </trkpt>
      <trkpt lat="42.89778" lon="-0.71924">
        <ele>1619.95874</ele>
        <time>2012-03-24T13:11:13Z</time>
      </trkpt>
      <trkpt lat="42.89778" lon="-0.71892">
        <ele>1610.345459</ele>
        <time>2012-03-24T13:11:19Z</time>
      </trkpt>
      <trkpt lat="42.89773" lon="-0.71855">
        <ele>1603.616455</ele>
        <time>2012-03-24T13:11:27Z</time>
      </trkpt>
      <trkpt lat="42.89773" lon="-0.71849">
        <ele>1602.655029</ele>
        <time>2012-03-24T13:11:28Z</time>
      </trkpt>
      <trkpt lat="42.8977" lon="-0.71825">
        <ele>1599.77124</ele>
        <time>2012-03-24T13:11:32Z</time>
      </trkpt>
      <trkpt lat="42.89782" lon="-0.71802">
        <ele>1595.925781</ele>
        <time>2012-03-24T13:11:39Z</time>
      </trkpt>
      <trkpt lat="42.89785" lon="-0.71798">
        <ele>1595.445068</ele>
        <time>2012-03-24T13:11:41Z</time>
      </trkpt>
      <trkpt lat="42.89789" lon="-0.71787">
        <ele>1590.638428</ele>
        <time>2012-03-24T13:11:53Z</time>
      </trkpt>
      <trkpt lat="42.89789" lon="-0.71787">
        <ele>1591.119141</ele>
        <time>2012-03-24T13:12:12Z</time>
      </trkpt>
      <trkpt lat="42.89791" lon="-0.71779">
        <ele>1590.157959</ele>
        <time>2012-03-24T13:12:24Z</time>
      </trkpt>
      <trkpt lat="42.89789" lon="-0.71748">
        <ele>1587.273926</ele>
        <time>2012-03-24T13:12:29Z</time>
      </trkpt>
      <trkpt lat="42.89797" lon="-0.717">
        <ele>1580.064209</ele>
        <time>2012-03-24T13:12:37Z</time>
      </trkpt>
      <trkpt lat="42.89798" lon="-0.71687">
        <ele>1578.141357</ele>
        <time>2012-03-24T13:12:39Z</time>
      </trkpt>
      <trkpt lat="42.89794" lon="-0.71662">
        <ele>1574.776855</ele>
        <time>2012-03-24T13:12:48Z</time>
      </trkpt>
      <trkpt lat="42.89792" lon="-0.71662">
        <ele>1573.81543</ele>
        <time>2012-03-24T13:13:05Z</time>
      </trkpt>
      <trkpt lat="42.89792" lon="-0.71662">
        <ele>1573.81543</ele>
        <time>2012-03-24T13:13:21Z</time>
      </trkpt>
      <trkpt lat="42.8979" lon="-0.71661">
        <ele>1573.334961</ele>
        <time>2012-03-24T13:13:34Z</time>
      </trkpt>
      <trkpt lat="42.89789" lon="-0.71661">
        <ele>1573.81543</ele>
        <time>2012-03-24T13:14:02Z</time>
      </trkpt>
      <trkpt lat="42.89789" lon="-0.71662">
        <ele>1574.296143</ele>
        <time>2012-03-24T13:14:26Z</time>
      </trkpt>
      <trkpt lat="42.89789" lon="-0.71662">
        <ele>1574.776855</ele>
        <time>2012-03-24T13:15:28Z</time>
      </trkpt>
      <trkpt lat="42.8979" lon="-0.71662">
        <ele>1574.776855</ele>
        <time>2012-03-24T13:16:02Z</time>
      </trkpt>
      <trkpt lat="42.89789" lon="-0.71662">
        <ele>1575.738037</ele>
        <time>2012-03-24T13:17:49Z</time>
      </trkpt>
      <trkpt lat="42.89789" lon="-0.71662">
        <ele>1575.738037</ele>
        <time>2012-03-24T13:18:35Z</time>
      </trkpt>
      <trkpt lat="42.89789" lon="-0.71662">
        <ele>1575.738037</ele>
        <time>2012-03-24T13:20:03Z</time>
      </trkpt>
      <trkpt lat="42.89789" lon="-0.71662">
        <ele>1577.660645</ele>
        <time>2012-03-24T13:20:15Z</time>
      </trkpt>
      <trkpt lat="42.89789" lon="-0.71661">
        <ele>1577.660645</ele>
        <time>2012-03-24T13:20:36Z</time>
      </trkpt>
      <trkpt lat="42.89791" lon="-0.71662">
        <ele>1577.180176</ele>
        <time>2012-03-24T13:21:04Z</time>
      </trkpt>
      <trkpt lat="42.89791" lon="-0.71662">
        <ele>1576.21875</ele>
        <time>2012-03-24T13:21:32Z</time>
      </trkpt>
      <trkpt lat="42.89791" lon="-0.71662">
        <ele>1574.776855</ele>
        <time>2012-03-24T13:21:58Z</time>
      </trkpt>
      <trkpt lat="42.89791" lon="-0.71662">
        <ele>1575.257324</ele>
        <time>2012-03-24T13:22:17Z</time>
      </trkpt>
      <trkpt lat="42.89791" lon="-0.71662">
        <ele>1575.738037</ele>
        <time>2012-03-24T13:22:39Z</time>
      </trkpt>
      <trkpt lat="42.89791" lon="-0.71662">
        <ele>1575.738037</ele>
        <time>2012-03-24T13:23:02Z</time>
      </trkpt>
      <trkpt lat="42.89791" lon="-0.71661">
        <ele>1575.738037</ele>
        <time>2012-03-24T13:23:21Z</time>
      </trkpt>
      <trkpt lat="42.89791" lon="-0.7166">
        <ele>1576.21875</ele>
        <time>2012-03-24T13:23:28Z</time>
      </trkpt>
      <trkpt lat="42.8981" lon="-0.71646">
        <ele>1573.81543</ele>
        <time>2012-03-24T13:23:36Z</time>
      </trkpt>
      <trkpt lat="42.89816" lon="-0.71643">
        <ele>1573.334961</ele>
        <time>2012-03-24T13:23:38Z</time>
      </trkpt>
      <trkpt lat="42.89823" lon="-0.71635">
        <ele>1575.257324</ele>
        <time>2012-03-24T13:23:47Z</time>
      </trkpt>
      <trkpt lat="42.89825" lon="-0.71632">
        <ele>1576.699463</ele>
        <time>2012-03-24T13:23:53Z</time>
      </trkpt>
      <trkpt lat="42.89832" lon="-0.71616">
        <ele>1575.738037</ele>
        <time>2012-03-24T13:23:59Z</time>
      </trkpt>
      <trkpt lat="42.89836" lon="-0.71595">
        <ele>1571.412109</ele>
        <time>2012-03-24T13:24:04Z</time>
      </trkpt>
      <trkpt lat="42.89844" lon="-0.71572">
        <ele>1566.605713</ele>
        <time>2012-03-24T13:24:09Z</time>
      </trkpt>
      <trkpt lat="42.8986" lon="-0.7152">
        <ele>1557.953857</ele>
        <time>2012-03-24T13:24:18Z</time>
      </trkpt>
      <trkpt lat="42.89861" lon="-0.71516">
        <ele>1557.473145</ele>
        <time>2012-03-24T13:24:19Z</time>
      </trkpt>
      <trkpt lat="42.89867" lon="-0.71497">
        <ele>1555.069824</ele>
        <time>2012-03-24T13:24:24Z</time>
      </trkpt>
      <trkpt lat="42.89871" lon="-0.71483">
        <ele>1553.147217</ele>
        <time>2012-03-24T13:24:28Z</time>
      </trkpt>
      <trkpt lat="42.89872" lon="-0.71478">
        <ele>1552.666504</ele>
        <time>2012-03-24T13:24:30Z</time>
      </trkpt>
      <trkpt lat="42.89872" lon="-0.71464">
        <ele>1550.743896</ele>
        <time>2012-03-24T13:24:34Z</time>
      </trkpt>
      <trkpt lat="42.89877" lon="-0.71454">
        <ele>1547.37915</ele>
        <time>2012-03-24T13:24:48Z</time>
      </trkpt>
      <trkpt lat="42.89876" lon="-0.71452">
        <ele>1547.37915</ele>
        <time>2012-03-24T13:25:01Z</time>
      </trkpt>
      <trkpt lat="42.89877" lon="-0.71448">
        <ele>1546.417969</ele>
        <time>2012-03-24T13:25:11Z</time>
      </trkpt>
      <trkpt lat="42.89885" lon="-0.7142">
        <ele>1545.456543</ele>
        <time>2012-03-24T13:25:22Z</time>
      </trkpt>
      <trkpt lat="42.89893" lon="-0.71407">
        <ele>1544.014648</ele>
        <time>2012-03-24T13:25:30Z</time>
      </trkpt>
      <trkpt lat="42.89897" lon="-0.71403">
        <ele>1543.533936</ele>
        <time>2012-03-24T13:25:39Z</time>
      </trkpt>
      <trkpt lat="42.89908" lon="-0.71385">
        <ele>1541.611328</ele>
        <time>2012-03-24T13:25:46Z</time>
      </trkpt>
      <trkpt lat="42.89903" lon="-0.71363">
        <ele>1536.804688</ele>
        <time>2012-03-24T13:25:51Z</time>
      </trkpt>
      <trkpt lat="42.89906" lon="-0.71355">
        <ele>1534.882324</ele>
        <time>2012-03-24T13:25:53Z</time>
      </trkpt>
      <trkpt lat="42.89903" lon="-0.71342">
        <ele>1530.075439</ele>
        <time>2012-03-24T13:26:02Z</time>
      </trkpt>
      <trkpt lat="42.89903" lon="-0.71342">
        <ele>1530.556152</ele>
        <time>2012-03-24T13:26:25Z</time>
      </trkpt>
      <trkpt lat="42.89903" lon="-0.71342">
        <ele>1531.036865</ele>
        <time>2012-03-24T13:26:55Z</time>
      </trkpt>
      <trkpt lat="42.89906" lon="-0.7134">
        <ele>1530.075439</ele>
        <time>2012-03-24T13:27:16Z</time>
      </trkpt>
      <trkpt lat="42.89906" lon="-0.71341">
        <ele>1530.556152</ele>
        <time>2012-03-24T13:27:46Z</time>
      </trkpt>
      <trkpt lat="42.89908" lon="-0.71335">
        <ele>1531.036865</ele>
        <time>2012-03-24T13:28:09Z</time>
      </trkpt>
      <trkpt lat="42.89909" lon="-0.71335">
        <ele>1530.556152</ele>
        <time>2012-03-24T13:28:10Z</time>
      </trkpt>
      <trkpt lat="42.89906" lon="-0.7133">
        <ele>1529.594727</ele>
        <time>2012-03-24T13:28:15Z</time>
      </trkpt>
      <trkpt lat="42.89902" lon="-0.71333">
        <ele>1529.114014</ele>
        <time>2012-03-24T13:28:19Z</time>
      </trkpt>
      <trkpt lat="42.89883" lon="-0.71345">
        <ele>1526.710938</ele>
        <time>2012-03-24T13:28:37Z</time>
      </trkpt>
      <trkpt lat="42.89878" lon="-0.71347">
        <ele>1524.78833</ele>
        <time>2012-03-24T13:28:43Z</time>
      </trkpt>
      <trkpt lat="42.89871" lon="-0.71349">
        <ele>1522.38501</ele>
        <time>2012-03-24T13:28:50Z</time>
      </trkpt>
      <trkpt lat="42.89867" lon="-0.71349">
        <ele>1519.981689</ele>
        <time>2012-03-24T13:28:56Z</time>
      </trkpt>
      <trkpt lat="42.89866" lon="-0.71346">
        <ele>1519.020508</ele>
        <time>2012-03-24T13:28:59Z</time>
      </trkpt>
      <trkpt lat="42.89873" lon="-0.7134">
        <ele>1516.136475</ele>
        <time>2012-03-24T13:29:07Z</time>
      </trkpt>
      <trkpt lat="42.89874" lon="-0.71338">
        <ele>1515.655762</ele>
        <time>2012-03-24T13:29:09Z</time>
      </trkpt>
      <trkpt lat="42.89878" lon="-0.71333">
        <ele>1514.213623</ele>
        <time>2012-03-24T13:29:14Z</time>
      </trkpt>
      <trkpt lat="42.89886" lon="-0.71324">
        <ele>1510.368408</ele>
        <time>2012-03-24T13:29:23Z</time>
      </trkpt>
      <trkpt lat="42.89889" lon="-0.71317">
        <ele>1509.407227</ele>
        <time>2012-03-24T13:29:28Z</time>
      </trkpt>
      <trkpt lat="42.89896" lon="-0.7131">
        <ele>1508.445801</ele>
        <time>2012-03-24T13:29:38Z</time>
      </trkpt>
      <trkpt lat="42.89898" lon="-0.713">
        <ele>1505.562012</ele>
        <time>2012-03-24T13:29:53Z</time>
      </trkpt>
      <trkpt lat="42.89898" lon="-0.713">
        <ele>1505.562012</ele>
        <time>2012-03-24T13:30:29Z</time>
      </trkpt>
      <trkpt lat="42.89895" lon="-0.71256">
        <ele>1494.987305</ele>
        <time>2012-03-24T13:32:35Z</time>
      </trkpt>
      <trkpt lat="42.89892" lon="-0.71253">
        <ele>1494.026123</ele>
        <time>2012-03-24T13:32:39Z</time>
      </trkpt>
      <trkpt lat="42.89887" lon="-0.71249">
        <ele>1494.026123</ele>
        <time>2012-03-24T13:32:44Z</time>
      </trkpt>
      <trkpt lat="42.89879" lon="-0.71248">
        <ele>1493.54541</ele>
        <time>2012-03-24T13:32:51Z</time>
      </trkpt>
      <trkpt lat="42.89873" lon="-0.71251">
        <ele>1493.54541</ele>
        <time>2012-03-24T13:32:58Z</time>
      </trkpt>
      <trkpt lat="42.89871" lon="-0.71247">
        <ele>1493.064697</ele>
        <time>2012-03-24T13:33:01Z</time>
      </trkpt>
      <trkpt lat="42.89878" lon="-0.71242">
        <ele>1490.661377</ele>
        <time>2012-03-24T13:33:10Z</time>
      </trkpt>
      <trkpt lat="42.89888" lon="-0.71233">
        <ele>1487.296875</ele>
        <time>2012-03-24T13:33:27Z</time>
      </trkpt>
      <trkpt lat="42.89888" lon="-0.71234">
        <ele>1487.777588</ele>
        <time>2012-03-24T13:34:17Z</time>
      </trkpt>
      <trkpt lat="42.89888" lon="-0.71233">
        <ele>1487.777588</ele>
        <time>2012-03-24T13:34:51Z</time>
      </trkpt>
      <trkpt lat="42.89889" lon="-0.71233">
        <ele>1489.219482</ele>
        <time>2012-03-24T13:35:41Z</time>
      </trkpt>
      <trkpt lat="42.89891" lon="-0.71232">
        <ele>1488.739014</ele>
        <time>2012-03-24T13:36:43Z</time>
      </trkpt>
      <trkpt lat="42.89892" lon="-0.71231">
        <ele>1488.258301</ele>
        <time>2012-03-24T13:37:32Z</time>
      </trkpt>
      <trkpt lat="42.89919" lon="-0.71194">
        <ele>1479.125488</ele>
        <time>2012-03-24T13:37:47Z</time>
      </trkpt>
      <trkpt lat="42.89925" lon="-0.71187">
        <ele>1477.203125</ele>
        <time>2012-03-24T13:37:49Z</time>
      </trkpt>
      <trkpt lat="42.89931" lon="-0.71173">
        <ele>1474.319092</ele>
        <time>2012-03-24T13:37:52Z</time>
      </trkpt>
      <trkpt lat="42.89954" lon="-0.71156">
        <ele>1465.667236</ele>
        <time>2012-03-24T13:38:03Z</time>
      </trkpt>
      <trkpt lat="42.89962" lon="-0.71146">
        <ele>1460.860596</ele>
        <time>2012-03-24T13:38:12Z</time>
      </trkpt>
      <trkpt lat="42.89967" lon="-0.71138">
        <ele>1460.379883</ele>
        <time>2012-03-24T13:38:17Z</time>
      </trkpt>
      <trkpt lat="42.8997" lon="-0.71131">
        <ele>1461.341309</ele>
        <time>2012-03-24T13:38:32Z</time>
      </trkpt>
      <trkpt lat="42.89973" lon="-0.71127">
        <ele>1460.860596</ele>
        <time>2012-03-24T13:38:39Z</time>
      </trkpt>
      <trkpt lat="42.90004" lon="-0.71106">
        <ele>1455.573486</ele>
        <time>2012-03-24T13:38:49Z</time>
      </trkpt>
      <trkpt lat="42.90016" lon="-0.711">
        <ele>1453.170166</ele>
        <time>2012-03-24T13:38:52Z</time>
      </trkpt>
      <trkpt lat="42.90033" lon="-0.71085">
        <ele>1447.4021</ele>
        <time>2012-03-24T13:39:03Z</time>
      </trkpt>
      <trkpt lat="42.90035" lon="-0.71082">
        <ele>1446.921387</ele>
        <time>2012-03-24T13:39:19Z</time>
      </trkpt>
      <trkpt lat="42.90037" lon="-0.71081">
        <ele>1447.4021</ele>
        <time>2012-03-24T13:39:58Z</time>
      </trkpt>
      <trkpt lat="42.9004" lon="-0.71079">
        <ele>1447.882812</ele>
        <time>2012-03-24T13:40:02Z</time>
      </trkpt>
      <trkpt lat="42.90045" lon="-0.7107">
        <ele>1446.921387</ele>
        <time>2012-03-24T13:40:14Z</time>
      </trkpt>
      <trkpt lat="42.90051" lon="-0.71066">
        <ele>1448.843994</ele>
        <time>2012-03-24T13:40:29Z</time>
      </trkpt>
      <trkpt lat="42.90054" lon="-0.71061">
        <ele>1449.324707</ele>
        <time>2012-03-24T13:40:46Z</time>
      </trkpt>
      <trkpt lat="42.90063" lon="-0.71054">
        <ele>1447.882812</ele>
        <time>2012-03-24T13:40:53Z</time>
      </trkpt>
      <trkpt lat="42.90068" lon="-0.71048">
        <ele>1446.440918</ele>
        <time>2012-03-24T13:40:57Z</time>
      </trkpt>
      <trkpt lat="42.90087" lon="-0.71039">
        <ele>1444.518066</ele>
        <time>2012-03-24T13:41:06Z</time>
      </trkpt>
      <trkpt lat="42.90111" lon="-0.7101">
        <ele>1441.153564</ele>
        <time>2012-03-24T13:41:15Z</time>
      </trkpt>
      <trkpt lat="42.90122" lon="-0.71007">
        <ele>1439.71167</ele>
        <time>2012-03-24T13:41:18Z</time>
      </trkpt>
      <trkpt lat="42.90136" lon="-0.71006">
        <ele>1438.269775</ele>
        <time>2012-03-24T13:41:22Z</time>
      </trkpt>
      <trkpt lat="42.90146" lon="-0.70998">
        <ele>1435.385498</ele>
        <time>2012-03-24T13:41:26Z</time>
      </trkpt>
      <trkpt lat="42.90155" lon="-0.70995">
        <ele>1433.943604</ele>
        <time>2012-03-24T13:41:28Z</time>
      </trkpt>
      <trkpt lat="42.90173" lon="-0.70987">
        <ele>1430.579102</ele>
        <time>2012-03-24T13:41:33Z</time>
      </trkpt>
      <trkpt lat="42.90181" lon="-0.70983">
        <ele>1429.617676</ele>
        <time>2012-03-24T13:41:36Z</time>
      </trkpt>
      <trkpt lat="42.90186" lon="-0.70983">
        <ele>1430.098389</ele>
        <time>2012-03-24T13:41:58Z</time>
      </trkpt>
      <trkpt lat="42.90194" lon="-0.70986">
        <ele>1431.059814</ele>
        <time>2012-03-24T13:42:18Z</time>
      </trkpt>
      <trkpt lat="42.90208" lon="-0.70973">
        <ele>1428.656494</ele>
        <time>2012-03-24T13:42:26Z</time>
      </trkpt>
      <trkpt lat="42.90215" lon="-0.70978">
        <ele>1427.2146</ele>
        <time>2012-03-24T13:42:30Z</time>
      </trkpt>
      <trkpt lat="42.90233" lon="-0.70986">
        <ele>1420.004639</ele>
        <time>2012-03-24T13:42:41Z</time>
      </trkpt>
      <trkpt lat="42.90233" lon="-0.70987">
        <ele>1420.004639</ele>
        <time>2012-03-24T13:42:45Z</time>
      </trkpt>
      <trkpt lat="42.90237" lon="-0.70993">
        <ele>1418.081787</ele>
        <time>2012-03-24T13:42:51Z</time>
      </trkpt>
      <trkpt lat="42.90244" lon="-0.70987">
        <ele>1415.197998</ele>
        <time>2012-03-24T13:43:03Z</time>
      </trkpt>
      <trkpt lat="42.90245" lon="-0.7098">
        <ele>1413.755859</ele>
        <time>2012-03-24T13:43:17Z</time>
      </trkpt>
      <trkpt lat="42.90245" lon="-0.70974">
        <ele>1413.275391</ele>
        <time>2012-03-24T13:43:32Z</time>
      </trkpt>
      <trkpt lat="42.90247" lon="-0.70971">
        <ele>1409.910645</ele>
        <time>2012-03-24T13:43:45Z</time>
      </trkpt>
      <trkpt lat="42.90247" lon="-0.70971">
        <ele>1409.910645</ele>
        <time>2012-03-24T13:43:47Z</time>
      </trkpt>
      <trkpt lat="42.90248" lon="-0.70973">
        <ele>1407.026855</ele>
        <time>2012-03-24T13:44:17Z</time>
      </trkpt>
      <trkpt lat="42.90248" lon="-0.70974">
        <ele>1407.026855</ele>
        <time>2012-03-24T13:44:40Z</time>
      </trkpt>
      <trkpt lat="42.90255" lon="-0.70967">
        <ele>1405.104248</ele>
        <time>2012-03-24T13:44:45Z</time>
      </trkpt>
      <trkpt lat="42.90263" lon="-0.70962">
        <ele>1403.662109</ele>
        <time>2012-03-24T13:44:49Z</time>
      </trkpt>
      <trkpt lat="42.90273" lon="-0.70966">
        <ele>1398.374756</ele>
        <time>2012-03-24T13:45:02Z</time>
      </trkpt>
      <trkpt lat="42.90274" lon="-0.70966">
        <ele>1397.894287</ele>
        <time>2012-03-24T13:45:04Z</time>
      </trkpt>
      <trkpt lat="42.90281" lon="-0.70988">
        <ele>1391.645752</ele>
        <time>2012-03-24T13:45:14Z</time>
      </trkpt>
      <trkpt lat="42.90285" lon="-0.70982">
        <ele>1391.645752</ele>
        <time>2012-03-24T13:45:18Z</time>
      </trkpt>
      <trkpt lat="42.90302" lon="-0.70981">
        <ele>1387.31958</ele>
        <time>2012-03-24T13:45:28Z</time>
      </trkpt>
      <trkpt lat="42.90322" lon="-0.70959">
        <ele>1379.148438</ele>
        <time>2012-03-24T13:45:33Z</time>
      </trkpt>
      <trkpt lat="42.9033" lon="-0.70943">
        <ele>1377.226074</ele>
        <time>2012-03-24T13:45:36Z</time>
      </trkpt>
      <trkpt lat="42.90351" lon="-0.70879">
        <ele>1370.496582</ele>
        <time>2012-03-24T13:45:51Z</time>
      </trkpt>
      <trkpt lat="42.90368" lon="-0.70839">
        <ele>1367.612549</ele>
        <time>2012-03-24T13:46:03Z</time>
      </trkpt>
      <trkpt lat="42.9037" lon="-0.70838">
        <ele>1367.612549</ele>
        <time>2012-03-24T13:46:04Z</time>
      </trkpt>
      <trkpt lat="42.90379" lon="-0.70821">
        <ele>1366.651367</ele>
        <time>2012-03-24T13:46:12Z</time>
      </trkpt>
      <trkpt lat="42.90386" lon="-0.70805">
        <ele>1365.690186</ele>
        <time>2012-03-24T13:46:20Z</time>
      </trkpt>
      <trkpt lat="42.9039" lon="-0.70781">
        <ele>1364.72876</ele>
        <time>2012-03-24T13:46:28Z</time>
      </trkpt>
      <trkpt lat="42.904" lon="-0.7076">
        <ele>1365.690186</ele>
        <time>2012-03-24T13:46:42Z</time>
      </trkpt>
      <trkpt lat="42.9041" lon="-0.70747">
        <ele>1368.093262</ele>
        <time>2012-03-24T13:46:59Z</time>
      </trkpt>
      <trkpt lat="42.90411" lon="-0.70746">
        <ele>1368.093262</ele>
        <time>2012-03-24T13:47:02Z</time>
      </trkpt>
      <trkpt lat="42.90413" lon="-0.70738">
        <ele>1367.612549</ele>
        <time>2012-03-24T13:47:08Z</time>
      </trkpt>
      <trkpt lat="42.90414" lon="-0.70731">
        <ele>1367.612549</ele>
        <time>2012-03-24T13:47:15Z</time>
      </trkpt>
      <trkpt lat="42.90416" lon="-0.70729">
        <ele>1367.13208</ele>
        <time>2012-03-24T13:47:27Z</time>
      </trkpt>
      <trkpt lat="42.90416" lon="-0.70729">
        <ele>1367.13208</ele>
        <time>2012-03-24T13:47:50Z</time>
      </trkpt>
      <trkpt lat="42.90417" lon="-0.70729">
        <ele>1366.651367</ele>
        <time>2012-03-24T13:48:10Z</time>
      </trkpt>
      <trkpt lat="42.90422" lon="-0.70724">
        <ele>1367.13208</ele>
        <time>2012-03-24T13:48:26Z</time>
      </trkpt>
      <trkpt lat="42.90422" lon="-0.70724">
        <ele>1367.13208</ele>
        <time>2012-03-24T13:48:35Z</time>
      </trkpt>
      <trkpt lat="42.90422" lon="-0.70721">
        <ele>1363.767334</ele>
        <time>2012-03-24T13:48:48Z</time>
      </trkpt>
      <trkpt lat="42.90423" lon="-0.70721">
        <ele>1363.286865</ele>
        <time>2012-03-24T13:50:13Z</time>
      </trkpt>
      <trkpt lat="42.90421" lon="-0.70723">
        <ele>1360.883545</ele>
        <time>2012-03-24T13:51:38Z</time>
      </trkpt>
      <trkpt lat="42.90422" lon="-0.70724">
        <ele>1360.883545</ele>
        <time>2012-03-24T13:52:30Z</time>
      </trkpt>
      <trkpt lat="42.90423" lon="-0.70726">
        <ele>1360.883545</ele>
        <time>2012-03-24T13:53:00Z</time>
      </trkpt>
      <trkpt lat="42.90423" lon="-0.70723">
        <ele>1361.364258</ele>
        <time>2012-03-24T13:53:22Z</time>
      </trkpt>
      <trkpt lat="42.90421" lon="-0.70703">
        <ele>1363.286865</ele>
        <time>2012-03-24T13:53:38Z</time>
      </trkpt>
      <trkpt lat="42.90423" lon="-0.7068">
        <ele>1363.767334</ele>
        <time>2012-03-24T13:53:56Z</time>
      </trkpt>
      <trkpt lat="42.90423" lon="-0.70679">
        <ele>1363.767334</ele>
        <time>2012-03-24T13:53:57Z</time>
      </trkpt>
      <trkpt lat="42.90421" lon="-0.70672">
        <ele>1364.248047</ele>
        <time>2012-03-24T13:54:02Z</time>
      </trkpt>
      <trkpt lat="42.90421" lon="-0.70662">
        <ele>1365.690186</ele>
        <time>2012-03-24T13:54:09Z</time>
      </trkpt>
      <trkpt lat="42.90419" lon="-0.70645">
        <ele>1365.209473</ele>
        <time>2012-03-24T13:54:24Z</time>
      </trkpt>
      <trkpt lat="42.90417" lon="-0.70624">
        <ele>1367.13208</ele>
        <time>2012-03-24T13:54:38Z</time>
      </trkpt>
      <trkpt lat="42.90416" lon="-0.70594">
        <ele>1368.573975</ele>
        <time>2012-03-24T13:54:56Z</time>
      </trkpt>
      <trkpt lat="42.90421" lon="-0.70563">
        <ele>1370.496582</ele>
        <time>2012-03-24T13:55:14Z</time>
      </trkpt>
      <trkpt lat="42.90424" lon="-0.70552">
        <ele>1370.496582</ele>
        <time>2012-03-24T13:55:20Z</time>
      </trkpt>
      <trkpt lat="42.90433" lon="-0.70515">
        <ele>1370.015869</ele>
        <time>2012-03-24T13:55:41Z</time>
      </trkpt>
      <trkpt lat="42.90437" lon="-0.70502">
        <ele>1369.5354</ele>
        <time>2012-03-24T13:55:49Z</time>
      </trkpt>
      <trkpt lat="42.90436" lon="-0.70488">
        <ele>1369.5354</ele>
        <time>2012-03-24T13:55:57Z</time>
      </trkpt>
      <trkpt lat="42.90436" lon="-0.70475">
        <ele>1368.093262</ele>
        <time>2012-03-24T13:56:04Z</time>
      </trkpt>
      <trkpt lat="42.90435" lon="-0.70468">
        <ele>1367.13208</ele>
        <time>2012-03-24T13:56:08Z</time>
      </trkpt>
      <trkpt lat="42.90435" lon="-0.70453">
        <ele>1364.248047</ele>
        <time>2012-03-24T13:56:16Z</time>
      </trkpt>
      <trkpt lat="42.90433" lon="-0.70446">
        <ele>1362.325439</ele>
        <time>2012-03-24T13:56:20Z</time>
      </trkpt>
      <trkpt lat="42.90432" lon="-0.70431">
        <ele>1359.922119</ele>
        <time>2012-03-24T13:56:28Z</time>
      </trkpt>
      <trkpt lat="42.90432" lon="-0.70424">
        <ele>1358.480225</ele>
        <time>2012-03-24T13:56:32Z</time>
      </trkpt>
      <trkpt lat="42.90439" lon="-0.70397">
        <ele>1354.154297</ele>
        <time>2012-03-24T13:56:49Z</time>
      </trkpt>
      <trkpt lat="42.9044" lon="-0.70394">
        <ele>1353.673584</ele>
        <time>2012-03-24T13:56:51Z</time>
      </trkpt>
      <trkpt lat="42.90443" lon="-0.70388">
        <ele>1353.673584</ele>
        <time>2012-03-24T13:56:56Z</time>
      </trkpt>
      <trkpt lat="42.90449" lon="-0.70382">
        <ele>1352.712158</ele>
        <time>2012-03-24T13:57:02Z</time>
      </trkpt>
      <trkpt lat="42.9045" lon="-0.70379">
        <ele>1352.231445</ele>
        <time>2012-03-24T13:57:04Z</time>
      </trkpt>
      <trkpt lat="42.90452" lon="-0.70376">
        <ele>1351.750977</ele>
        <time>2012-03-24T13:57:06Z</time>
      </trkpt>
      <trkpt lat="42.90454" lon="-0.70369">
        <ele>1351.270264</ele>
        <time>2012-03-24T13:57:10Z</time>
      </trkpt>
      <trkpt lat="42.90453" lon="-0.70356">
        <ele>1349.828369</ele>
        <time>2012-03-24T13:57:18Z</time>
      </trkpt>
      <trkpt lat="42.90451" lon="-0.70349">
        <ele>1347.905762</ele>
        <time>2012-03-24T13:57:23Z</time>
      </trkpt>
      <trkpt lat="42.90449" lon="-0.70345">
        <ele>1347.425049</ele>
        <time>2012-03-24T13:57:26Z</time>
      </trkpt>
      <trkpt lat="42.90448" lon="-0.70341">
        <ele>1346.944336</ele>
        <time>2012-03-24T13:57:29Z</time>
      </trkpt>
      <trkpt lat="42.90445" lon="-0.7033">
        <ele>1345.021729</ele>
        <time>2012-03-24T13:57:36Z</time>
      </trkpt>
      <trkpt lat="42.90443" lon="-0.70318">
        <ele>1345.983154</ele>
        <time>2012-03-24T13:57:43Z</time>
      </trkpt>
      <trkpt lat="42.90445" lon="-0.70315">
        <ele>1345.983154</ele>
        <time>2012-03-24T13:57:45Z</time>
      </trkpt>
      <trkpt lat="42.90442" lon="-0.70292">
        <ele>1342.618652</ele>
        <time>2012-03-24T13:58:00Z</time>
      </trkpt>
      <trkpt lat="42.90434" lon="-0.70271">
        <ele>1333.966553</ele>
        <time>2012-03-24T13:58:14Z</time>
      </trkpt>
      <trkpt lat="42.90433" lon="-0.70269">
        <ele>1333.48584</ele>
        <time>2012-03-24T13:58:15Z</time>
      </trkpt>
      <trkpt lat="42.90431" lon="-0.70261">
        <ele>1331.563232</ele>
        <time>2012-03-24T13:58:21Z</time>
      </trkpt>
      <trkpt lat="42.90436" lon="-0.70246">
        <ele>1331.082764</ele>
        <time>2012-03-24T13:58:29Z</time>
      </trkpt>
      <trkpt lat="42.90439" lon="-0.70231">
        <ele>1326.756836</ele>
        <time>2012-03-24T13:58:40Z</time>
      </trkpt>
      <trkpt lat="42.90442" lon="-0.70221">
        <ele>1323.39209</ele>
        <time>2012-03-24T13:58:46Z</time>
      </trkpt>
      <trkpt lat="42.90441" lon="-0.70216">
        <ele>1322.430664</ele>
        <time>2012-03-24T13:58:49Z</time>
      </trkpt>
      <trkpt lat="42.90443" lon="-0.70208">
        <ele>1321.469238</ele>
        <time>2012-03-24T13:58:54Z</time>
      </trkpt>
      <trkpt lat="42.90443" lon="-0.70203">
        <ele>1320.027344</ele>
        <time>2012-03-24T13:58:58Z</time>
      </trkpt>
      <trkpt lat="42.90444" lon="-0.70194">
        <ele>1319.066162</ele>
        <time>2012-03-24T13:59:05Z</time>
      </trkpt>
      <trkpt lat="42.90444" lon="-0.70183">
        <ele>1315.220947</ele>
        <time>2012-03-24T13:59:12Z</time>
      </trkpt>
      <trkpt lat="42.9044" lon="-0.70172">
        <ele>1311.375732</ele>
        <time>2012-03-24T13:59:20Z</time>
      </trkpt>
      <trkpt lat="42.90439" lon="-0.70156">
        <ele>1307.530273</ele>
        <time>2012-03-24T13:59:32Z</time>
      </trkpt>
      <trkpt lat="42.90444" lon="-0.70146">
        <ele>1303.685059</ele>
        <time>2012-03-24T13:59:42Z</time>
      </trkpt>
      <trkpt lat="42.90446" lon="-0.70135">
        <ele>1297.917236</ele>
        <time>2012-03-24T13:59:55Z</time>
      </trkpt>
      <trkpt lat="42.90447" lon="-0.70132">
        <ele>1297.436523</ele>
        <time>2012-03-24T14:00:00Z</time>
      </trkpt>
      <trkpt lat="42.90447" lon="-0.7013">
        <ele>1296.475342</ele>
        <time>2012-03-24T14:00:02Z</time>
      </trkpt>
      <trkpt lat="42.90448" lon="-0.70124">
        <ele>1294.55249</ele>
        <time>2012-03-24T14:00:07Z</time>
      </trkpt>
      <trkpt lat="42.90447" lon="-0.70114">
        <ele>1290.707031</ele>
        <time>2012-03-24T14:00:16Z</time>
      </trkpt>
      <trkpt lat="42.90447" lon="-0.70099">
        <ele>1285.900635</ele>
        <time>2012-03-24T14:00:30Z</time>
      </trkpt>
      <trkpt lat="42.90446" lon="-0.70096">
        <ele>1285.419922</ele>
        <time>2012-03-24T14:00:32Z</time>
      </trkpt>
      <trkpt lat="42.90445" lon="-0.70094">
        <ele>1284.45874</ele>
        <time>2012-03-24T14:00:35Z</time>
      </trkpt>
      <trkpt lat="42.90444" lon="-0.70089">
        <ele>1283.016602</ele>
        <time>2012-03-24T14:00:38Z</time>
      </trkpt>
      <trkpt lat="42.90445" lon="-0.70078">
        <ele>1283.978027</ele>
        <time>2012-03-24T14:00:44Z</time>
      </trkpt>
      <trkpt lat="42.90446" lon="-0.70075">
        <ele>1284.45874</ele>
        <time>2012-03-24T14:00:46Z</time>
      </trkpt>
      <trkpt lat="42.9045" lon="-0.70053">
        <ele>1282.536133</ele>
        <time>2012-03-24T14:01:02Z</time>
      </trkpt>
      <trkpt lat="42.90451" lon="-0.70049">
        <ele>1283.978027</ele>
        <time>2012-03-24T14:01:05Z</time>
      </trkpt>
      <trkpt lat="42.90452" lon="-0.70043">
        <ele>1285.900635</ele>
        <time>2012-03-24T14:01:09Z</time>
      </trkpt>
      <trkpt lat="42.90452" lon="-0.70038">
        <ele>1285.900635</ele>
        <time>2012-03-24T14:01:12Z</time>
      </trkpt>
      <trkpt lat="42.90453" lon="-0.70033">
        <ele>1286.381348</ele>
        <time>2012-03-24T14:01:16Z</time>
      </trkpt>
      <trkpt lat="42.90456" lon="-0.70019">
        <ele>1288.303955</ele>
        <time>2012-03-24T14:01:24Z</time>
      </trkpt>
      <trkpt lat="42.90458" lon="-0.7001">
        <ele>1288.784668</ele>
        <time>2012-03-24T14:01:31Z</time>
      </trkpt>
      <trkpt lat="42.90458" lon="-0.70006">
        <ele>1289.265137</ele>
        <time>2012-03-24T14:01:33Z</time>
      </trkpt>
      <trkpt lat="42.90459" lon="-0.7">
        <ele>1290.226562</ele>
        <time>2012-03-24T14:01:36Z</time>
      </trkpt>
      <trkpt lat="42.90461" lon="-0.69991">
        <ele>1292.149414</ele>
        <time>2012-03-24T14:01:43Z</time>
      </trkpt>
      <trkpt lat="42.90461" lon="-0.69986">
        <ele>1292.630127</ele>
        <time>2012-03-24T14:01:47Z</time>
      </trkpt>
      <trkpt lat="42.90462" lon="-0.69982">
        <ele>1293.110596</ele>
        <time>2012-03-24T14:01:50Z</time>
      </trkpt>
      <trkpt lat="42.90463" lon="-0.69971">
        <ele>1293.591309</ele>
        <time>2012-03-24T14:01:56Z</time>
      </trkpt>
      <trkpt lat="42.90465" lon="-0.69946">
        <ele>1294.072021</ele>
        <time>2012-03-24T14:02:12Z</time>
      </trkpt>
      <trkpt lat="42.90466" lon="-0.69939">
        <ele>1293.591309</ele>
        <time>2012-03-24T14:02:17Z</time>
      </trkpt>
      <trkpt lat="42.90468" lon="-0.69936">
        <ele>1292.630127</ele>
        <time>2012-03-24T14:02:20Z</time>
      </trkpt>
      <trkpt lat="42.90469" lon="-0.6993">
        <ele>1292.149414</ele>
        <time>2012-03-24T14:02:24Z</time>
      </trkpt>
      <trkpt lat="42.90471" lon="-0.69925">
        <ele>1291.187744</ele>
        <time>2012-03-24T14:02:28Z</time>
      </trkpt>
      <trkpt lat="42.90472" lon="-0.69922">
        <ele>1290.226562</ele>
        <time>2012-03-24T14:02:31Z</time>
      </trkpt>
      <trkpt lat="42.90469" lon="-0.69902">
        <ele>1286.381348</ele>
        <time>2012-03-24T14:02:48Z</time>
      </trkpt>
      <trkpt lat="42.90466" lon="-0.69898">
        <ele>1285.900635</ele>
        <time>2012-03-24T14:02:52Z</time>
      </trkpt>
      <trkpt lat="42.90465" lon="-0.69896">
        <ele>1285.419922</ele>
        <time>2012-03-24T14:02:54Z</time>
      </trkpt>
      <trkpt lat="42.90462" lon="-0.69889">
        <ele>1284.45874</ele>
        <time>2012-03-24T14:03:00Z</time>
      </trkpt>
      <trkpt lat="42.90461" lon="-0.69871">
        <ele>1276.768311</ele>
        <time>2012-03-24T14:03:15Z</time>
      </trkpt>
      <trkpt lat="42.90461" lon="-0.69869">
        <ele>1276.287598</ele>
        <time>2012-03-24T14:03:17Z</time>
      </trkpt>
      <trkpt lat="42.90459" lon="-0.69867">
        <ele>1275.806641</ele>
        <time>2012-03-24T14:03:19Z</time>
      </trkpt>
      <trkpt lat="42.90457" lon="-0.69857">
        <ele>1273.884033</ele>
        <time>2012-03-24T14:03:27Z</time>
      </trkpt>
      <trkpt lat="42.90456" lon="-0.69854">
        <ele>1272.442139</ele>
        <time>2012-03-24T14:03:30Z</time>
      </trkpt>
      <trkpt lat="42.90456" lon="-0.69847">
        <ele>1271.000244</ele>
        <time>2012-03-24T14:03:36Z</time>
      </trkpt>
      <trkpt lat="42.90456" lon="-0.69844">
        <ele>1271.000244</ele>
        <time>2012-03-24T14:03:38Z</time>
      </trkpt>
      <trkpt lat="42.90452" lon="-0.69833">
        <ele>1267.635498</ele>
        <time>2012-03-24T14:03:51Z</time>
      </trkpt>
      <trkpt lat="42.90453" lon="-0.69832">
        <ele>1267.155029</ele>
        <time>2012-03-24T14:03:53Z</time>
      </trkpt>
      <trkpt lat="42.90447" lon="-0.69827">
        <ele>1265.232422</ele>
        <time>2012-03-24T14:04:00Z</time>
      </trkpt>
      <trkpt lat="42.90447" lon="-0.69823">
        <ele>1264.751709</ele>
        <time>2012-03-24T14:04:03Z</time>
      </trkpt>
      <trkpt lat="42.90446" lon="-0.69811">
        <ele>1262.829102</ele>
        <time>2012-03-24T14:04:12Z</time>
      </trkpt>
      <trkpt lat="42.90443" lon="-0.69802">
        <ele>1261.387207</ele>
        <time>2012-03-24T14:04:19Z</time>
      </trkpt>
      <trkpt lat="42.90443" lon="-0.69799">
        <ele>1261.387207</ele>
        <time>2012-03-24T14:04:21Z</time>
      </trkpt>
      <trkpt lat="42.90442" lon="-0.69796">
        <ele>1260.425781</ele>
        <time>2012-03-24T14:04:24Z</time>
      </trkpt>
      <trkpt lat="42.9044" lon="-0.69788">
        <ele>1258.022461</ele>
        <time>2012-03-24T14:04:30Z</time>
      </trkpt>
      <trkpt lat="42.90439" lon="-0.69785">
        <ele>1256.580322</ele>
        <time>2012-03-24T14:04:32Z</time>
      </trkpt>
      <trkpt lat="42.90431" lon="-0.69769">
        <ele>1252.254395</ele>
        <time>2012-03-24T14:04:47Z</time>
      </trkpt>
      <trkpt lat="42.90423" lon="-0.69753">
        <ele>1250.332031</ele>
        <time>2012-03-24T14:04:59Z</time>
      </trkpt>
      <trkpt lat="42.90422" lon="-0.6975">
        <ele>1248.889893</ele>
        <time>2012-03-24T14:05:02Z</time>
      </trkpt>
      <trkpt lat="42.90418" lon="-0.69739">
        <ele>1248.40918</ele>
        <time>2012-03-24T14:05:12Z</time>
      </trkpt>
      <trkpt lat="42.90419" lon="-0.69736">
        <ele>1248.40918</ele>
        <time>2012-03-24T14:05:15Z</time>
      </trkpt>
      <trkpt lat="42.90419" lon="-0.69726">
        <ele>1247.928711</ele>
        <time>2012-03-24T14:05:23Z</time>
      </trkpt>
      <trkpt lat="42.90421" lon="-0.69719">
        <ele>1247.447998</ele>
        <time>2012-03-24T14:05:28Z</time>
      </trkpt>
      <trkpt lat="42.90422" lon="-0.69715">
        <ele>1246.967285</ele>
        <time>2012-03-24T14:05:31Z</time>
      </trkpt>
      <trkpt lat="42.90424" lon="-0.69709">
        <ele>1245.044678</ele>
        <time>2012-03-24T14:05:37Z</time>
      </trkpt>
      <trkpt lat="42.90424" lon="-0.69706">
        <ele>1244.563965</ele>
        <time>2012-03-24T14:05:39Z</time>
      </trkpt>
      <trkpt lat="42.90424" lon="-0.69704">
        <ele>1244.083496</ele>
        <time>2012-03-24T14:05:41Z</time>
      </trkpt>
      <trkpt lat="42.90426" lon="-0.69693">
        <ele>1242.641357</ele>
        <time>2012-03-24T14:05:50Z</time>
      </trkpt>
      <trkpt lat="42.90426" lon="-0.6969">
        <ele>1242.160645</ele>
        <time>2012-03-24T14:05:52Z</time>
      </trkpt>
      <trkpt lat="42.9043" lon="-0.69677">
        <ele>1240.718506</ele>
        <time>2012-03-24T14:06:00Z</time>
      </trkpt>
      <trkpt lat="42.90432" lon="-0.69674">
        <ele>1239.757324</ele>
        <time>2012-03-24T14:06:03Z</time>
      </trkpt>
      <trkpt lat="42.90432" lon="-0.69668">
        <ele>1239.276611</ele>
        <time>2012-03-24T14:06:07Z</time>
      </trkpt>
      <trkpt lat="42.90433" lon="-0.69663">
        <ele>1238.796143</ele>
        <time>2012-03-24T14:06:10Z</time>
      </trkpt>
      <trkpt lat="42.90427" lon="-0.6965">
        <ele>1237.354004</ele>
        <time>2012-03-24T14:06:22Z</time>
      </trkpt>
      <trkpt lat="42.90423" lon="-0.69646">
        <ele>1236.392822</ele>
        <time>2012-03-24T14:06:27Z</time>
      </trkpt>
      <trkpt lat="42.9042" lon="-0.69639">
        <ele>1235.912109</ele>
        <time>2012-03-24T14:06:33Z</time>
      </trkpt>
      <trkpt lat="42.90418" lon="-0.69635">
        <ele>1234.950928</ele>
        <time>2012-03-24T14:06:36Z</time>
      </trkpt>
      <trkpt lat="42.90417" lon="-0.69632">
        <ele>1233.989502</ele>
        <time>2012-03-24T14:06:38Z</time>
      </trkpt>
      <trkpt lat="42.90414" lon="-0.69623">
        <ele>1232.066895</ele>
        <time>2012-03-24T14:06:44Z</time>
      </trkpt>
      <trkpt lat="42.90414" lon="-0.69605">
        <ele>1227.260254</ele>
        <time>2012-03-24T14:06:55Z</time>
      </trkpt>
      <trkpt lat="42.90412" lon="-0.69589">
        <ele>1226.298828</ele>
        <time>2012-03-24T14:07:04Z</time>
      </trkpt>
      <trkpt lat="42.90416" lon="-0.69558">
        <ele>1221.011719</ele>
        <time>2012-03-24T14:07:22Z</time>
      </trkpt>
      <trkpt lat="42.90415" lon="-0.69552">
        <ele>1220.531006</ele>
        <time>2012-03-24T14:07:26Z</time>
      </trkpt>
      <trkpt lat="42.90412" lon="-0.69534">
        <ele>1218.127686</ele>
        <time>2012-03-24T14:07:38Z</time>
      </trkpt>
      <trkpt lat="42.90409" lon="-0.69523">
        <ele>1218.608398</ele>
        <time>2012-03-24T14:07:45Z</time>
      </trkpt>
      <trkpt lat="42.90409" lon="-0.69513">
        <ele>1217.646973</ele>
        <time>2012-03-24T14:07:51Z</time>
      </trkpt>
      <trkpt lat="42.90417" lon="-0.69488">
        <ele>1216.205078</ele>
        <time>2012-03-24T14:08:06Z</time>
      </trkpt>
      <trkpt lat="42.90417" lon="-0.69477">
        <ele>1216.205078</ele>
        <time>2012-03-24T14:08:13Z</time>
      </trkpt>
      <trkpt lat="42.90416" lon="-0.69467">
        <ele>1215.243896</ele>
        <time>2012-03-24T14:08:19Z</time>
      </trkpt>
      <trkpt lat="42.90416" lon="-0.69464">
        <ele>1215.243896</ele>
        <time>2012-03-24T14:08:21Z</time>
      </trkpt>
      <trkpt lat="42.90414" lon="-0.69441">
        <ele>1212.840576</ele>
        <time>2012-03-24T14:08:36Z</time>
      </trkpt>
      <trkpt lat="42.90411" lon="-0.69433">
        <ele>1210.437012</ele>
        <time>2012-03-24T14:08:43Z</time>
      </trkpt>
      <trkpt lat="42.90411" lon="-0.6943">
        <ele>1210.437012</ele>
        <time>2012-03-24T14:08:45Z</time>
      </trkpt>
      <trkpt lat="42.90413" lon="-0.69409">
        <ele>1208.514404</ele>
        <time>2012-03-24T14:08:58Z</time>
      </trkpt>
      <trkpt lat="42.90422" lon="-0.6939">
        <ele>1208.995117</ele>
        <time>2012-03-24T14:09:11Z</time>
      </trkpt>
      <trkpt lat="42.90428" lon="-0.6938">
        <ele>1208.995117</ele>
        <time>2012-03-24T14:09:18Z</time>
      </trkpt>
      <trkpt lat="42.90429" lon="-0.69378">
        <ele>1208.514404</ele>
        <time>2012-03-24T14:09:20Z</time>
      </trkpt>
      <trkpt lat="42.90431" lon="-0.69374">
        <ele>1208.033936</ele>
        <time>2012-03-24T14:09:23Z</time>
      </trkpt>
      <trkpt lat="42.90433" lon="-0.6937">
        <ele>1207.553223</ele>
        <time>2012-03-24T14:09:26Z</time>
      </trkpt>
      <trkpt lat="42.90436" lon="-0.69364">
        <ele>1207.07251</ele>
        <time>2012-03-24T14:09:31Z</time>
      </trkpt>
      <trkpt lat="42.90442" lon="-0.69359">
        <ele>1205.630615</ele>
        <time>2012-03-24T14:09:37Z</time>
      </trkpt>
      <trkpt lat="42.90443" lon="-0.69356">
        <ele>1204.669189</ele>
        <time>2012-03-24T14:09:39Z</time>
      </trkpt>
      <trkpt lat="42.90445" lon="-0.69351">
        <ele>1204.188721</ele>
        <time>2012-03-24T14:09:43Z</time>
      </trkpt>
      <trkpt lat="42.9045" lon="-0.69329">
        <ele>1200.343506</ele>
        <time>2012-03-24T14:09:59Z</time>
      </trkpt>
      <trkpt lat="42.90449" lon="-0.69327">
        <ele>1199.862793</ele>
        <time>2012-03-24T14:10:02Z</time>
      </trkpt>
      <trkpt lat="42.90458" lon="-0.69309">
        <ele>1198.901367</ele>
        <time>2012-03-24T14:10:16Z</time>
      </trkpt>
      <trkpt lat="42.9046" lon="-0.69306">
        <ele>1198.420654</ele>
        <time>2012-03-24T14:10:19Z</time>
      </trkpt>
      <trkpt lat="42.90463" lon="-0.693">
        <ele>1196.498291</ele>
        <time>2012-03-24T14:10:25Z</time>
      </trkpt>
      <trkpt lat="42.90465" lon="-0.69298">
        <ele>1195.536621</ele>
        <time>2012-03-24T14:10:27Z</time>
      </trkpt>
      <trkpt lat="42.90467" lon="-0.69295">
        <ele>1194.094727</ele>
        <time>2012-03-24T14:10:31Z</time>
      </trkpt>
      <trkpt lat="42.90473" lon="-0.69286">
        <ele>1189.768799</ele>
        <time>2012-03-24T14:10:40Z</time>
      </trkpt>
      <trkpt lat="42.90476" lon="-0.69281">
        <ele>1188.807617</ele>
        <time>2012-03-24T14:10:45Z</time>
      </trkpt>
      <trkpt lat="42.90481" lon="-0.69275">
        <ele>1187.365479</ele>
        <time>2012-03-24T14:10:51Z</time>
      </trkpt>
      <trkpt lat="42.90483" lon="-0.69272">
        <ele>1187.365479</ele>
        <time>2012-03-24T14:10:55Z</time>
      </trkpt>
      <trkpt lat="42.90485" lon="-0.69269">
        <ele>1187.365479</ele>
        <time>2012-03-24T14:10:58Z</time>
      </trkpt>
      <trkpt lat="42.90491" lon="-0.69255">
        <ele>1187.846191</ele>
        <time>2012-03-24T14:11:09Z</time>
      </trkpt>
      <trkpt lat="42.90494" lon="-0.69252">
        <ele>1187.365479</ele>
        <time>2012-03-24T14:11:13Z</time>
      </trkpt>
      <trkpt lat="42.90506" lon="-0.69233">
        <ele>1185.442871</ele>
        <time>2012-03-24T14:11:29Z</time>
      </trkpt>
      <trkpt lat="42.90507" lon="-0.6923">
        <ele>1185.442871</ele>
        <time>2012-03-24T14:11:31Z</time>
      </trkpt>
      <trkpt lat="42.90514" lon="-0.69217">
        <ele>1184.962402</ele>
        <time>2012-03-24T14:11:41Z</time>
      </trkpt>
      <trkpt lat="42.90518" lon="-0.69206">
        <ele>1185.442871</ele>
        <time>2012-03-24T14:11:48Z</time>
      </trkpt>
      <trkpt lat="42.90525" lon="-0.69185">
        <ele>1184.481689</ele>
        <time>2012-03-24T14:12:01Z</time>
      </trkpt>
      <trkpt lat="42.90528" lon="-0.69176">
        <ele>1184.000977</ele>
        <time>2012-03-24T14:12:07Z</time>
      </trkpt>
      <trkpt lat="42.90532" lon="-0.69168">
        <ele>1183.520264</ele>
        <time>2012-03-24T14:12:12Z</time>
      </trkpt>
      <trkpt lat="42.90541" lon="-0.69159">
        <ele>1182.078369</ele>
        <time>2012-03-24T14:12:21Z</time>
      </trkpt>
      <trkpt lat="42.90544" lon="-0.69154">
        <ele>1181.117188</ele>
        <time>2012-03-24T14:12:26Z</time>
      </trkpt>
      <trkpt lat="42.90545" lon="-0.69151">
        <ele>1180.636475</ele>
        <time>2012-03-24T14:12:28Z</time>
      </trkpt>
      <trkpt lat="42.90547" lon="-0.69151">
        <ele>1180.636475</ele>
        <time>2012-03-24T14:12:31Z</time>
      </trkpt>
      <trkpt lat="42.90552" lon="-0.69146">
        <ele>1179.194092</ele>
        <time>2012-03-24T14:12:36Z</time>
      </trkpt>
      <trkpt lat="42.90557" lon="-0.69141">
        <ele>1177.752197</ele>
        <time>2012-03-24T14:12:41Z</time>
      </trkpt>
      <trkpt lat="42.90562" lon="-0.69122">
        <ele>1176.310303</ele>
        <time>2012-03-24T14:12:53Z</time>
      </trkpt>
      <trkpt lat="42.90563" lon="-0.69119">
        <ele>1176.310303</ele>
        <time>2012-03-24T14:12:55Z</time>
      </trkpt>
      <trkpt lat="42.90564" lon="-0.6909">
        <ele>1178.23291</ele>
        <time>2012-03-24T14:13:15Z</time>
      </trkpt>
      <trkpt lat="42.90568" lon="-0.69079">
        <ele>1177.752197</ele>
        <time>2012-03-24T14:13:22Z</time>
      </trkpt>
      <trkpt lat="42.90579" lon="-0.69054">
        <ele>1179.674805</ele>
        <time>2012-03-24T14:13:41Z</time>
      </trkpt>
      <trkpt lat="42.90587" lon="-0.69034">
        <ele>1179.194092</ele>
        <time>2012-03-24T14:13:54Z</time>
      </trkpt>
      <trkpt lat="42.9059" lon="-0.69026">
        <ele>1178.23291</ele>
        <time>2012-03-24T14:14:00Z</time>
      </trkpt>
      <trkpt lat="42.90592" lon="-0.6902">
        <ele>1177.271729</ele>
        <time>2012-03-24T14:14:03Z</time>
      </trkpt>
      <trkpt lat="42.90593" lon="-0.69015">
        <ele>1176.310303</ele>
        <time>2012-03-24T14:14:07Z</time>
      </trkpt>
      <trkpt lat="42.90598" lon="-0.69003">
        <ele>1175.82959</ele>
        <time>2012-03-24T14:14:15Z</time>
      </trkpt>
      <trkpt lat="42.906" lon="-0.68999">
        <ele>1174.868408</ele>
        <time>2012-03-24T14:14:18Z</time>
      </trkpt>
      <trkpt lat="42.90607" lon="-0.68989">
        <ele>1173.906982</ele>
        <time>2012-03-24T14:14:26Z</time>
      </trkpt>
      <trkpt lat="42.90625" lon="-0.68968">
        <ele>1172.945801</ele>
        <time>2012-03-24T14:14:43Z</time>
      </trkpt>
      <trkpt lat="42.90626" lon="-0.68968">
        <ele>1172.945801</ele>
        <time>2012-03-24T14:14:44Z</time>
      </trkpt>
      <trkpt lat="42.90641" lon="-0.68952">
        <ele>1173.906982</ele>
        <time>2012-03-24T14:14:59Z</time>
      </trkpt>
      <trkpt lat="42.90651" lon="-0.68945">
        <ele>1173.906982</ele>
        <time>2012-03-24T14:15:08Z</time>
      </trkpt>
      <trkpt lat="42.90657" lon="-0.68942">
        <ele>1173.426514</ele>
        <time>2012-03-24T14:15:14Z</time>
      </trkpt>
      <trkpt lat="42.90661" lon="-0.68938">
        <ele>1172.945801</ele>
        <time>2012-03-24T14:15:18Z</time>
      </trkpt>
      <trkpt lat="42.90666" lon="-0.68927">
        <ele>1172.945801</ele>
        <time>2012-03-24T14:15:25Z</time>
      </trkpt>
      <trkpt lat="42.90667" lon="-0.68918">
        <ele>1172.945801</ele>
        <time>2012-03-24T14:15:30Z</time>
      </trkpt>
      <trkpt lat="42.90667" lon="-0.68911">
        <ele>1172.465088</ele>
        <time>2012-03-24T14:15:34Z</time>
      </trkpt>
      <trkpt lat="42.90667" lon="-0.68901">
        <ele>1171.984375</ele>
        <time>2012-03-24T14:15:48Z</time>
      </trkpt>
      <trkpt lat="42.90667" lon="-0.68899">
        <ele>1171.984375</ele>
        <time>2012-03-24T14:15:50Z</time>
      </trkpt>
      <trkpt lat="42.90667" lon="-0.68896">
        <ele>1171.984375</ele>
        <time>2012-03-24T14:15:53Z</time>
      </trkpt>
      <trkpt lat="42.9067" lon="-0.68871">
        <ele>1169.100586</ele>
        <time>2012-03-24T14:16:08Z</time>
      </trkpt>
      <trkpt lat="42.9067" lon="-0.68864">
        <ele>1168.619873</ele>
        <time>2012-03-24T14:16:12Z</time>
      </trkpt>
      <trkpt lat="42.90669" lon="-0.68857">
        <ele>1165.736084</ele>
        <time>2012-03-24T14:16:17Z</time>
      </trkpt>
      <trkpt lat="42.90667" lon="-0.68849">
        <ele>1165.736084</ele>
        <time>2012-03-24T14:16:22Z</time>
      </trkpt>
      <trkpt lat="42.90665" lon="-0.68845">
        <ele>1164.774658</ele>
        <time>2012-03-24T14:16:25Z</time>
      </trkpt>
      <trkpt lat="42.90649" lon="-0.68828">
        <ele>1164.774658</ele>
        <time>2012-03-24T14:16:41Z</time>
      </trkpt>
      <trkpt lat="42.90638" lon="-0.68819">
        <ele>1160.929199</ele>
        <time>2012-03-24T14:16:52Z</time>
      </trkpt>
      <trkpt lat="42.90637" lon="-0.68816">
        <ele>1160.448486</ele>
        <time>2012-03-24T14:16:54Z</time>
      </trkpt>
      <trkpt lat="42.9063" lon="-0.68804">
        <ele>1159.487305</ele>
        <time>2012-03-24T14:17:06Z</time>
      </trkpt>
      <trkpt lat="42.90628" lon="-0.68799">
        <ele>1159.487305</ele>
        <time>2012-03-24T14:17:09Z</time>
      </trkpt>
      <trkpt lat="42.90624" lon="-0.68791">
        <ele>1158.04541</ele>
        <time>2012-03-24T14:17:15Z</time>
      </trkpt>
      <trkpt lat="42.90622" lon="-0.6878">
        <ele>1156.122559</ele>
        <time>2012-03-24T14:17:23Z</time>
      </trkpt>
      <trkpt lat="42.90621" lon="-0.68778">
        <ele>1156.122559</ele>
        <time>2012-03-24T14:17:25Z</time>
      </trkpt>
      <trkpt lat="42.90621" lon="-0.68764">
        <ele>1154.680664</ele>
        <time>2012-03-24T14:17:35Z</time>
      </trkpt>
      <trkpt lat="42.90621" lon="-0.68757">
        <ele>1153.719482</ele>
        <time>2012-03-24T14:17:41Z</time>
      </trkpt>
      <trkpt lat="42.90619" lon="-0.68752">
        <ele>1153.23877</ele>
        <time>2012-03-24T14:17:45Z</time>
      </trkpt>
      <trkpt lat="42.9062" lon="-0.6875">
        <ele>1153.719482</ele>
        <time>2012-03-24T14:17:47Z</time>
      </trkpt>
      <trkpt lat="42.9062" lon="-0.6874">
        <ele>1153.719482</ele>
        <time>2012-03-24T14:17:55Z</time>
      </trkpt>
      <trkpt lat="42.90624" lon="-0.6873">
        <ele>1153.719482</ele>
        <time>2012-03-24T14:18:01Z</time>
      </trkpt>
      <trkpt lat="42.90626" lon="-0.68726">
        <ele>1153.23877</ele>
        <time>2012-03-24T14:18:04Z</time>
      </trkpt>
      <trkpt lat="42.90625" lon="-0.68723">
        <ele>1153.23877</ele>
        <time>2012-03-24T14:18:06Z</time>
      </trkpt>
      <trkpt lat="42.90628" lon="-0.68702">
        <ele>1151.316162</ele>
        <time>2012-03-24T14:18:18Z</time>
      </trkpt>
      <trkpt lat="42.90631" lon="-0.68693">
        <ele>1146.509521</ele>
        <time>2012-03-24T14:18:24Z</time>
      </trkpt>
      <trkpt lat="42.90634" lon="-0.68686">
        <ele>1143.625488</ele>
        <time>2012-03-24T14:18:30Z</time>
      </trkpt>
      <trkpt lat="42.90636" lon="-0.68687">
        <ele>1143.144775</ele>
        <time>2012-03-24T14:18:32Z</time>
      </trkpt>
      <trkpt lat="42.90641" lon="-0.68685">
        <ele>1141.702881</ele>
        <time>2012-03-24T14:18:38Z</time>
      </trkpt>
      <trkpt lat="42.90642" lon="-0.68679">
        <ele>1140.260986</ele>
        <time>2012-03-24T14:18:43Z</time>
      </trkpt>
      <trkpt lat="42.90643" lon="-0.68676">
        <ele>1139.780273</ele>
        <time>2012-03-24T14:18:45Z</time>
      </trkpt>
      <trkpt lat="42.90646" lon="-0.6867">
        <ele>1140.260986</ele>
        <time>2012-03-24T14:18:50Z</time>
      </trkpt>
      <trkpt lat="42.90648" lon="-0.68668">
        <ele>1139.780273</ele>
        <time>2012-03-24T14:18:52Z</time>
      </trkpt>
      <trkpt lat="42.90649" lon="-0.68657">
        <ele>1137.857666</ele>
        <time>2012-03-24T14:19:00Z</time>
      </trkpt>
      <trkpt lat="42.90652" lon="-0.68653">
        <ele>1136.415771</ele>
        <time>2012-03-24T14:19:03Z</time>
      </trkpt>
      <trkpt lat="42.90654" lon="-0.6865">
        <ele>1134.973877</ele>
        <time>2012-03-24T14:19:07Z</time>
      </trkpt>
      <trkpt lat="42.9066" lon="-0.68645">
        <ele>1133.051025</ele>
        <time>2012-03-24T14:19:14Z</time>
      </trkpt>
      <trkpt lat="42.90666" lon="-0.68643">
        <ele>1132.570557</ele>
        <time>2012-03-24T14:19:20Z</time>
      </trkpt>
      <trkpt lat="42.90666" lon="-0.68635">
        <ele>1131.608887</ele>
        <time>2012-03-24T14:19:25Z</time>
      </trkpt>
      <trkpt lat="42.90666" lon="-0.68631">
        <ele>1131.128418</ele>
        <time>2012-03-24T14:19:27Z</time>
      </trkpt>
      <trkpt lat="42.90668" lon="-0.68622">
        <ele>1129.686279</ele>
        <time>2012-03-24T14:19:34Z</time>
      </trkpt>
      <trkpt lat="42.90671" lon="-0.68617">
        <ele>1129.686279</ele>
        <time>2012-03-24T14:19:38Z</time>
      </trkpt>
      <trkpt lat="42.90682" lon="-0.68601">
        <ele>1129.205566</ele>
        <time>2012-03-24T14:19:51Z</time>
      </trkpt>
      <trkpt lat="42.90686" lon="-0.68593">
        <ele>1127.763672</ele>
        <time>2012-03-24T14:19:58Z</time>
      </trkpt>
      <trkpt lat="42.9069" lon="-0.68586">
        <ele>1125.841064</ele>
        <time>2012-03-24T14:20:04Z</time>
      </trkpt>
      <trkpt lat="42.90702" lon="-0.68569">
        <ele>1124.39917</ele>
        <time>2012-03-24T14:20:18Z</time>
      </trkpt>
      <trkpt lat="42.90711" lon="-0.68549">
        <ele>1122.476562</ele>
        <time>2012-03-24T14:20:32Z</time>
      </trkpt>
      <trkpt lat="42.90717" lon="-0.68541">
        <ele>1121.515137</ele>
        <time>2012-03-24T14:20:39Z</time>
      </trkpt>
      <trkpt lat="42.90723" lon="-0.68532">
        <ele>1121.515137</ele>
        <time>2012-03-24T14:20:46Z</time>
      </trkpt>
      <trkpt lat="42.90728" lon="-0.68524">
        <ele>1121.99585</ele>
        <time>2012-03-24T14:20:52Z</time>
      </trkpt>
      <trkpt lat="42.90732" lon="-0.68515">
        <ele>1120.553955</ele>
        <time>2012-03-24T14:20:58Z</time>
      </trkpt>
      <trkpt lat="42.90736" lon="-0.68508">
        <ele>1120.073242</ele>
        <time>2012-03-24T14:21:03Z</time>
      </trkpt>
      <trkpt lat="42.90743" lon="-0.68496">
        <ele>1119.592773</ele>
        <time>2012-03-24T14:21:12Z</time>
      </trkpt>
      <trkpt lat="42.90744" lon="-0.68489">
        <ele>1121.034668</ele>
        <time>2012-03-24T14:21:16Z</time>
      </trkpt>
      <trkpt lat="42.90748" lon="-0.68479">
        <ele>1120.553955</ele>
        <time>2012-03-24T14:21:23Z</time>
      </trkpt>
      <trkpt lat="42.90751" lon="-0.68468">
        <ele>1119.112061</ele>
        <time>2012-03-24T14:21:30Z</time>
      </trkpt>
      <trkpt lat="42.90752" lon="-0.68459">
        <ele>1119.112061</ele>
        <time>2012-03-24T14:21:35Z</time>
      </trkpt>
      <trkpt lat="42.90753" lon="-0.68456">
        <ele>1119.592773</ele>
        <time>2012-03-24T14:21:37Z</time>
      </trkpt>
      <trkpt lat="42.90758" lon="-0.68437">
        <ele>1116.228027</ele>
        <time>2012-03-24T14:21:49Z</time>
      </trkpt>
      <trkpt lat="42.90759" lon="-0.68429">
        <ele>1114.785889</ele>
        <time>2012-03-24T14:21:55Z</time>
      </trkpt>
      <trkpt lat="42.90759" lon="-0.68426">
        <ele>1113.824463</ele>
        <time>2012-03-24T14:21:57Z</time>
      </trkpt>
      <trkpt lat="42.9076" lon="-0.68418">
        <ele>1112.382568</ele>
        <time>2012-03-24T14:22:03Z</time>
      </trkpt>
      <trkpt lat="42.90761" lon="-0.68411">
        <ele>1112.863281</ele>
        <time>2012-03-24T14:22:08Z</time>
      </trkpt>
      <trkpt lat="42.90762" lon="-0.68409">
        <ele>1113.343994</ele>
        <time>2012-03-24T14:22:10Z</time>
      </trkpt>
      <trkpt lat="42.90767" lon="-0.68387">
        <ele>1109.498779</ele>
        <time>2012-03-24T14:22:25Z</time>
      </trkpt>
      <trkpt lat="42.90768" lon="-0.68384">
        <ele>1109.498779</ele>
        <time>2012-03-24T14:22:27Z</time>
      </trkpt>
      <trkpt lat="42.90769" lon="-0.68382">
        <ele>1109.498779</ele>
        <time>2012-03-24T14:22:29Z</time>
      </trkpt>
      <trkpt lat="42.9077" lon="-0.68378">
        <ele>1108.537354</ele>
        <time>2012-03-24T14:22:32Z</time>
      </trkpt>
      <trkpt lat="42.90775" lon="-0.68361">
        <ele>1106.614746</ele>
        <time>2012-03-24T14:22:45Z</time>
      </trkpt>
      <trkpt lat="42.90781" lon="-0.6835">
        <ele>1105.172852</ele>
        <time>2012-03-24T14:22:54Z</time>
      </trkpt>
      <trkpt lat="42.90784" lon="-0.68348">
        <ele>1105.172852</ele>
        <time>2012-03-24T14:22:56Z</time>
      </trkpt>
      <trkpt lat="42.90785" lon="-0.68344">
        <ele>1105.172852</ele>
        <time>2012-03-24T14:22:59Z</time>
      </trkpt>
      <trkpt lat="42.90792" lon="-0.68332">
        <ele>1103.250244</ele>
        <time>2012-03-24T14:23:09Z</time>
      </trkpt>
      <trkpt lat="42.90794" lon="-0.68329">
        <ele>1102.769531</ele>
        <time>2012-03-24T14:23:12Z</time>
      </trkpt>
      <trkpt lat="42.90795" lon="-0.68322">
        <ele>1102.288818</ele>
        <time>2012-03-24T14:23:16Z</time>
      </trkpt>
      <trkpt lat="42.90808" lon="-0.68302">
        <ele>1098.443359</ele>
        <time>2012-03-24T14:23:32Z</time>
      </trkpt>
      <trkpt lat="42.90811" lon="-0.68299">
        <ele>1097.001465</ele>
        <time>2012-03-24T14:23:35Z</time>
      </trkpt>
      <trkpt lat="42.90815" lon="-0.68282">
        <ele>1094.117676</ele>
        <time>2012-03-24T14:23:46Z</time>
      </trkpt>
      <trkpt lat="42.90818" lon="-0.68273">
        <ele>1093.15625</ele>
        <time>2012-03-24T14:23:51Z</time>
      </trkpt>
      <trkpt lat="42.90827" lon="-0.68249">
        <ele>1092.195068</ele>
        <time>2012-03-24T14:24:06Z</time>
      </trkpt>
      <trkpt lat="42.90828" lon="-0.68243">
        <ele>1092.675781</ele>
        <time>2012-03-24T14:24:09Z</time>
      </trkpt>
      <trkpt lat="42.9083" lon="-0.68238">
        <ele>1092.675781</ele>
        <time>2012-03-24T14:24:13Z</time>
      </trkpt>
      <trkpt lat="42.90831" lon="-0.68234">
        <ele>1093.636963</ele>
        <time>2012-03-24T14:24:16Z</time>
      </trkpt>
      <trkpt lat="42.90833" lon="-0.68225">
        <ele>1094.598145</ele>
        <time>2012-03-24T14:24:21Z</time>
      </trkpt>
      <trkpt lat="42.90833" lon="-0.68217">
        <ele>1096.520996</ele>
        <time>2012-03-24T14:24:25Z</time>
      </trkpt>
      <trkpt lat="42.90834" lon="-0.68212">
        <ele>1097.001465</ele>
        <time>2012-03-24T14:24:28Z</time>
      </trkpt>
      <trkpt lat="42.90839" lon="-0.68196">
        <ele>1094.117676</ele>
        <time>2012-03-24T14:24:37Z</time>
      </trkpt>
      <trkpt lat="42.90838" lon="-0.68182">
        <ele>1092.675781</ele>
        <time>2012-03-24T14:24:44Z</time>
      </trkpt>
      <trkpt lat="42.9084" lon="-0.6817">
        <ele>1090.272461</ele>
        <time>2012-03-24T14:24:50Z</time>
      </trkpt>
      <trkpt lat="42.9084" lon="-0.68166">
        <ele>1089.311035</ele>
        <time>2012-03-24T14:24:52Z</time>
      </trkpt>
      <trkpt lat="42.90848" lon="-0.6814">
        <ele>1085.946533</ele>
        <time>2012-03-24T14:25:08Z</time>
      </trkpt>
      <trkpt lat="42.90853" lon="-0.68136">
        <ele>1085.946533</ele>
        <time>2012-03-24T14:25:12Z</time>
      </trkpt>
      <trkpt lat="42.90878" lon="-0.68119">
        <ele>1091.233643</ele>
        <time>2012-03-24T14:25:32Z</time>
      </trkpt>
      <trkpt lat="42.90885" lon="-0.68113">
        <ele>1094.598145</ele>
        <time>2012-03-24T14:25:39Z</time>
      </trkpt>
      <trkpt lat="42.90892" lon="-0.68107">
        <ele>1096.520996</ele>
        <time>2012-03-24T14:25:45Z</time>
      </trkpt>
      <trkpt lat="42.909" lon="-0.681">
        <ele>1097.482178</ele>
        <time>2012-03-24T14:25:52Z</time>
      </trkpt>
      <trkpt lat="42.90905" lon="-0.68093">
        <ele>1095.55957</ele>
        <time>2012-03-24T14:25:57Z</time>
      </trkpt>
      <trkpt lat="42.90917" lon="-0.68075">
        <ele>1087.869141</ele>
        <time>2012-03-24T14:26:10Z</time>
      </trkpt>
      <trkpt lat="42.90921" lon="-0.68066">
        <ele>1085.46582</ele>
        <time>2012-03-24T14:26:16Z</time>
      </trkpt>
      <trkpt lat="42.90924" lon="-0.68057">
        <ele>1084.023926</ele>
        <time>2012-03-24T14:26:21Z</time>
      </trkpt>
      <trkpt lat="42.90925" lon="-0.68052">
        <ele>1083.542969</ele>
        <time>2012-03-24T14:26:24Z</time>
      </trkpt>
      <trkpt lat="42.90928" lon="-0.68032">
        <ele>1083.542969</ele>
        <time>2012-03-24T14:26:36Z</time>
      </trkpt>
      <trkpt lat="42.90933" lon="-0.68014">
        <ele>1077.775146</ele>
        <time>2012-03-24T14:26:46Z</time>
      </trkpt>
      <trkpt lat="42.9094" lon="-0.67998">
        <ele>1072.96875</ele>
        <time>2012-03-24T14:26:57Z</time>
      </trkpt>
      <trkpt lat="42.9094" lon="-0.67993">
        <ele>1072.488037</ele>
        <time>2012-03-24T14:27:00Z</time>
      </trkpt>
      <trkpt lat="42.90942" lon="-0.67984">
        <ele>1071.046143</ele>
        <time>2012-03-24T14:27:06Z</time>
      </trkpt>
      <trkpt lat="42.90944" lon="-0.67972">
        <ele>1071.046143</ele>
        <time>2012-03-24T14:27:13Z</time>
      </trkpt>
      <trkpt lat="42.90946" lon="-0.67959">
        <ele>1069.123535</ele>
        <time>2012-03-24T14:27:20Z</time>
      </trkpt>
      <trkpt lat="42.90951" lon="-0.67932">
        <ele>1063.835938</ele>
        <time>2012-03-24T14:27:36Z</time>
      </trkpt>
      <trkpt lat="42.90953" lon="-0.67917">
        <ele>1060.952148</ele>
        <time>2012-03-24T14:27:46Z</time>
      </trkpt>
      <trkpt lat="42.90956" lon="-0.67903">
        <ele>1059.990723</ele>
        <time>2012-03-24T14:28:03Z</time>
      </trkpt>
      <trkpt lat="42.90959" lon="-0.67908">
        <ele>1059.990723</ele>
        <time>2012-03-24T14:28:20Z</time>
      </trkpt>
      <trkpt lat="42.90959" lon="-0.67909">
        <ele>1060.471436</ele>
        <time>2012-03-24T14:30:03Z</time>
      </trkpt>
      <trkpt lat="42.90959" lon="-0.6791">
        <ele>1060.952148</ele>
        <time>2012-03-24T14:31:07Z</time>
      </trkpt>
      <trkpt lat="42.90959" lon="-0.6791">
        <ele>1061.913574</ele>
        <time>2012-03-24T14:32:18Z</time>
      </trkpt>
      <trkpt lat="42.90959" lon="-0.67911">
        <ele>1062.874756</ele>
        <time>2012-03-24T14:33:16Z</time>
      </trkpt>
      <trkpt lat="42.9096" lon="-0.67911">
        <ele>1063.355469</ele>
        <time>2012-03-24T14:34:57Z</time>
      </trkpt>
    </trkseg>
  </trk>
</gpx>